<?xml version="1.0" encoding="UTF-8" standalone="no" ?>
<gpx xmlns="http://www.topografix.com/GPX/1/1" xmlns:xsi="http://www.w3.org/2001/XMLSchema-instance" xsi:schemaLocation="http://www.topografix.com/GPX/1/1 http://www.topografix.com/GPX/1/1/gpx.xsd" version="1.1" creator="VisuGPX - https://www.visugpx.com">
  <metadata>
    <name>TOURTOUR le village dans le ciel</name>
    <desc><![CDATA[TOURTOUR par la tour Grimaldi et le rocher des Infirmières.]]></desc>
  </metadata>
  <trk>
    <name><![CDATA[Tourtour la Tour Grimaldi le rocher des Infirmières]]></name>
    <trkseg>
      <trkpt lat="43.58796" lon="6.30392">
        <ele>640.08</ele>
        <time>2016-10-21T07:08:45Z</time>
      </trkpt>
      <trkpt lat="43.58796" lon="6.3039">
        <ele>640.13</ele>
        <time>2016-10-21T07:09:11Z</time>
      </trkpt>
      <trkpt lat="43.58797" lon="6.30388">
        <ele>640.02</ele>
        <time>2016-10-21T07:09:42Z</time>
      </trkpt>
      <trkpt lat="43.58793" lon="6.30389">
        <ele>640.04</ele>
        <time>2016-10-21T07:10:07Z</time>
      </trkpt>
      <trkpt lat="43.58796" lon="6.30388">
        <ele>640.01</ele>
        <time>2016-10-21T07:10:24Z</time>
      </trkpt>
      <trkpt lat="43.58796" lon="6.30387">
        <ele>639.9</ele>
        <time>2016-10-21T07:10:54Z</time>
      </trkpt>
      <trkpt lat="43.58795" lon="6.30389">
        <ele>639.74</ele>
        <time>2016-10-21T07:11:20Z</time>
      </trkpt>
      <trkpt lat="43.58794" lon="6.30391">
        <ele>640.11</ele>
        <time>2016-10-21T07:11:35Z</time>
      </trkpt>
      <trkpt lat="43.5879" lon="6.30389">
        <ele>639.73</ele>
        <time>2016-10-21T07:11:51Z</time>
      </trkpt>
      <trkpt lat="43.58793" lon="6.3039">
        <ele>639.68</ele>
        <time>2016-10-21T07:12:32Z</time>
      </trkpt>
      <trkpt lat="43.58795" lon="6.3039">
        <ele>639.61</ele>
        <time>2016-10-21T07:13:10Z</time>
      </trkpt>
      <trkpt lat="43.58792" lon="6.3039">
        <ele>639.76</ele>
        <time>2016-10-21T07:13:45Z</time>
      </trkpt>
      <trkpt lat="43.58793" lon="6.3039">
        <ele>639.72</ele>
        <time>2016-10-21T07:14:28Z</time>
      </trkpt>
      <trkpt lat="43.58793" lon="6.30391">
        <ele>639.75</ele>
        <time>2016-10-21T07:14:49Z</time>
      </trkpt>
      <trkpt lat="43.5879" lon="6.30394">
        <ele>639.62</ele>
        <time>2016-10-21T07:15:06Z</time>
      </trkpt>
      <trkpt lat="43.58788" lon="6.304">
        <ele>639.53</ele>
        <time>2016-10-21T07:15:11Z</time>
      </trkpt>
      <trkpt lat="43.5878" lon="6.3042">
        <ele>639.44</ele>
        <time>2016-10-21T07:15:28Z</time>
      </trkpt>
      <trkpt lat="43.58778" lon="6.30424">
        <ele>638.99</ele>
        <time>2016-10-21T07:15:46Z</time>
      </trkpt>
      <trkpt lat="43.58773" lon="6.30443">
        <ele>639.02</ele>
        <time>2016-10-21T07:16:11Z</time>
      </trkpt>
      <trkpt lat="43.58767" lon="6.30465">
        <ele>639.81</ele>
        <time>2016-10-21T07:16:27Z</time>
      </trkpt>
      <trkpt lat="43.58763" lon="6.30495">
        <ele>641.13</ele>
        <time>2016-10-21T07:16:44Z</time>
      </trkpt>
      <trkpt lat="43.58758" lon="6.30523">
        <ele>641.18</ele>
        <time>2016-10-21T07:17:00Z</time>
      </trkpt>
      <trkpt lat="43.5875" lon="6.3055">
        <ele>641.99</ele>
        <time>2016-10-21T07:17:17Z</time>
      </trkpt>
      <trkpt lat="43.58752" lon="6.30568">
        <ele>643.73</ele>
        <time>2016-10-21T07:17:33Z</time>
      </trkpt>
      <trkpt lat="43.58755" lon="6.30564">
        <ele>644.26</ele>
        <time>2016-10-21T07:17:37Z</time>
      </trkpt>
      <trkpt lat="43.58763" lon="6.30545">
        <ele>646.13</ele>
        <time>2016-10-21T07:17:52Z</time>
      </trkpt>
      <trkpt lat="43.58765" lon="6.30543">
        <ele>646.33</ele>
        <time>2016-10-21T07:17:54Z</time>
      </trkpt>
      <trkpt lat="43.58774" lon="6.3052">
        <ele>647.85</ele>
        <time>2016-10-21T07:18:12Z</time>
      </trkpt>
      <trkpt lat="43.58776" lon="6.30517">
        <ele>647.95</ele>
        <time>2016-10-21T07:18:14Z</time>
      </trkpt>
      <trkpt lat="43.58783" lon="6.30502">
        <ele>648.38</ele>
        <time>2016-10-21T07:18:26Z</time>
      </trkpt>
      <trkpt lat="43.58786" lon="6.30486">
        <ele>649.07</ele>
        <time>2016-10-21T07:18:36Z</time>
      </trkpt>
      <trkpt lat="43.58792" lon="6.30463">
        <ele>649.8</ele>
        <time>2016-10-21T07:18:52Z</time>
      </trkpt>
      <trkpt lat="43.58795" lon="6.30449">
        <ele>650.06</ele>
        <time>2016-10-21T07:19:06Z</time>
      </trkpt>
      <trkpt lat="43.58795" lon="6.3044">
        <ele>649.77</ele>
        <time>2016-10-21T07:19:26Z</time>
      </trkpt>
      <trkpt lat="43.58794" lon="6.30439">
        <ele>649.67</ele>
        <time>2016-10-21T07:19:50Z</time>
      </trkpt>
      <trkpt lat="43.58794" lon="6.30438">
        <ele>649.64</ele>
        <time>2016-10-21T07:20:17Z</time>
      </trkpt>
      <trkpt lat="43.58794" lon="6.30437">
        <ele>649.4</ele>
        <time>2016-10-21T07:20:45Z</time>
      </trkpt>
      <trkpt lat="43.58808" lon="6.3044">
        <ele>650.38</ele>
        <time>2016-10-21T07:21:04Z</time>
      </trkpt>
      <trkpt lat="43.58817" lon="6.30444">
        <ele>650.23</ele>
        <time>2016-10-21T07:21:25Z</time>
      </trkpt>
      <trkpt lat="43.58821" lon="6.30443">
        <ele>650.15</ele>
        <time>2016-10-21T07:21:45Z</time>
      </trkpt>
      <trkpt lat="43.58825" lon="6.30446">
        <ele>649.89</ele>
        <time>2016-10-21T07:22:07Z</time>
      </trkpt>
      <trkpt lat="43.58826" lon="6.30443">
        <ele>650.14</ele>
        <time>2016-10-21T07:22:32Z</time>
      </trkpt>
      <trkpt lat="43.58825" lon="6.30444">
        <ele>649.72</ele>
        <time>2016-10-21T07:23:01Z</time>
      </trkpt>
      <trkpt lat="43.58824" lon="6.30441">
        <ele>649.74</ele>
        <time>2016-10-21T07:23:21Z</time>
      </trkpt>
      <trkpt lat="43.58823" lon="6.30435">
        <ele>649.82</ele>
        <time>2016-10-21T07:23:47Z</time>
      </trkpt>
      <trkpt lat="43.58829" lon="6.30417">
        <ele>648.55</ele>
        <time>2016-10-21T07:24:05Z</time>
      </trkpt>
      <trkpt lat="43.58831" lon="6.30414">
        <ele>647.99</ele>
        <time>2016-10-21T07:24:08Z</time>
      </trkpt>
      <trkpt lat="43.58832" lon="6.30412">
        <ele>647.81</ele>
        <time>2016-10-21T07:24:10Z</time>
      </trkpt>
      <trkpt lat="43.58844" lon="6.3039">
        <ele>645.15</ele>
        <time>2016-10-21T07:24:28Z</time>
      </trkpt>
      <trkpt lat="43.58845" lon="6.30389">
        <ele>645.04</ele>
        <time>2016-10-21T07:24:29Z</time>
      </trkpt>
      <trkpt lat="43.58857" lon="6.30367">
        <ele>642.68</ele>
        <time>2016-10-21T07:24:45Z</time>
      </trkpt>
      <trkpt lat="43.58861" lon="6.3036">
        <ele>641.88</ele>
        <time>2016-10-21T07:25:12Z</time>
      </trkpt>
      <trkpt lat="43.5886" lon="6.30361">
        <ele>641.92</ele>
        <time>2016-10-21T07:25:45Z</time>
      </trkpt>
      <trkpt lat="43.5886" lon="6.30359">
        <ele>641.48</ele>
        <time>2016-10-21T07:26:14Z</time>
      </trkpt>
      <trkpt lat="43.58859" lon="6.30357">
        <ele>641.38</ele>
        <time>2016-10-21T07:26:40Z</time>
      </trkpt>
      <trkpt lat="43.5886" lon="6.30358">
        <ele>641.32</ele>
        <time>2016-10-21T07:27:06Z</time>
      </trkpt>
      <trkpt lat="43.5886" lon="6.3036">
        <ele>641.56</ele>
        <time>2016-10-21T07:27:25Z</time>
      </trkpt>
      <trkpt lat="43.5886" lon="6.3036">
        <ele>641.45</ele>
        <time>2016-10-21T07:27:49Z</time>
      </trkpt>
      <trkpt lat="43.5886" lon="6.30357">
        <ele>641.27</ele>
        <time>2016-10-21T07:28:18Z</time>
      </trkpt>
      <trkpt lat="43.58864" lon="6.30349">
        <ele>640.66</ele>
        <time>2016-10-21T07:28:27Z</time>
      </trkpt>
      <trkpt lat="43.58867" lon="6.30339">
        <ele>639.75</ele>
        <time>2016-10-21T07:28:37Z</time>
      </trkpt>
      <trkpt lat="43.58877" lon="6.30322">
        <ele>638.4</ele>
        <time>2016-10-21T07:28:56Z</time>
      </trkpt>
      <trkpt lat="43.58875" lon="6.30304">
        <ele>637.9</ele>
        <time>2016-10-21T07:29:11Z</time>
      </trkpt>
      <trkpt lat="43.58875" lon="6.30302">
        <ele>637.76</ele>
        <time>2016-10-21T07:29:30Z</time>
      </trkpt>
      <trkpt lat="43.58884" lon="6.30314">
        <ele>636.53</ele>
        <time>2016-10-21T07:29:47Z</time>
      </trkpt>
      <trkpt lat="43.5889" lon="6.30319">
        <ele>636.3</ele>
        <time>2016-10-21T07:29:51Z</time>
      </trkpt>
      <trkpt lat="43.58888" lon="6.3033">
        <ele>636.39</ele>
        <time>2016-10-21T07:30:09Z</time>
      </trkpt>
      <trkpt lat="43.58879" lon="6.30333">
        <ele>636.33</ele>
        <time>2016-10-21T07:30:36Z</time>
      </trkpt>
      <trkpt lat="43.58887" lon="6.30331">
        <ele>636.4</ele>
        <time>2016-10-21T07:31:37Z</time>
      </trkpt>
      <trkpt lat="43.58877" lon="6.30333">
        <ele>636.09</ele>
        <time>2016-10-21T07:31:57Z</time>
      </trkpt>
      <trkpt lat="43.58882" lon="6.30332">
        <ele>636.24</ele>
        <time>2016-10-21T07:32:12Z</time>
      </trkpt>
      <trkpt lat="43.58892" lon="6.30304">
        <ele>635.84</ele>
        <time>2016-10-21T07:32:34Z</time>
      </trkpt>
      <trkpt lat="43.58899" lon="6.30285">
        <ele>634.95</ele>
        <time>2016-10-21T07:32:53Z</time>
      </trkpt>
      <trkpt lat="43.58915" lon="6.30267">
        <ele>634.77</ele>
        <time>2016-10-21T07:33:13Z</time>
      </trkpt>
      <trkpt lat="43.58929" lon="6.30245">
        <ele>635.21</ele>
        <time>2016-10-21T07:33:35Z</time>
      </trkpt>
      <trkpt lat="43.58946" lon="6.3024">
        <ele>635.45</ele>
        <time>2016-10-21T07:33:56Z</time>
      </trkpt>
      <trkpt lat="43.58964" lon="6.30237">
        <ele>635.7</ele>
        <time>2016-10-21T07:34:16Z</time>
      </trkpt>
      <trkpt lat="43.58969" lon="6.30237">
        <ele>636.08</ele>
        <time>2016-10-21T07:34:21Z</time>
      </trkpt>
      <trkpt lat="43.58983" lon="6.30235">
        <ele>636.16</ele>
        <time>2016-10-21T07:34:33Z</time>
      </trkpt>
      <trkpt lat="43.58996" lon="6.30226">
        <ele>637.33</ele>
        <time>2016-10-21T07:34:48Z</time>
      </trkpt>
      <trkpt lat="43.59004" lon="6.3021">
        <ele>638.39</ele>
        <time>2016-10-21T07:35:04Z</time>
      </trkpt>
      <trkpt lat="43.59004" lon="6.30201">
        <ele>640.57</ele>
        <time>2016-10-21T07:35:26Z</time>
      </trkpt>
      <trkpt lat="43.59007" lon="6.30194">
        <ele>640.43</ele>
        <time>2016-10-21T07:35:36Z</time>
      </trkpt>
      <trkpt lat="43.59011" lon="6.30184">
        <ele>641.14</ele>
        <time>2016-10-21T07:35:44Z</time>
      </trkpt>
      <trkpt lat="43.59011" lon="6.30182">
        <ele>641.42</ele>
        <time>2016-10-21T07:35:46Z</time>
      </trkpt>
      <trkpt lat="43.59012" lon="6.3018">
        <ele>641.67</ele>
        <time>2016-10-21T07:35:48Z</time>
      </trkpt>
      <trkpt lat="43.59015" lon="6.30172">
        <ele>642.3</ele>
        <time>2016-10-21T07:35:54Z</time>
      </trkpt>
      <trkpt lat="43.59026" lon="6.30155">
        <ele>643.39</ele>
        <time>2016-10-21T07:36:12Z</time>
      </trkpt>
      <trkpt lat="43.59035" lon="6.30151">
        <ele>643.6</ele>
        <time>2016-10-21T07:36:22Z</time>
      </trkpt>
      <trkpt lat="43.5905" lon="6.30146">
        <ele>644.49</ele>
        <time>2016-10-21T07:36:39Z</time>
      </trkpt>
      <trkpt lat="43.59057" lon="6.30143">
        <ele>645.07</ele>
        <time>2016-10-21T07:36:55Z</time>
      </trkpt>
      <trkpt lat="43.59066" lon="6.3014">
        <ele>645.84</ele>
        <time>2016-10-21T07:37:20Z</time>
      </trkpt>
      <trkpt lat="43.59083" lon="6.30133">
        <ele>647.39</ele>
        <time>2016-10-21T07:37:37Z</time>
      </trkpt>
      <trkpt lat="43.59091" lon="6.30135">
        <ele>648.5</ele>
        <time>2016-10-21T07:37:48Z</time>
      </trkpt>
      <trkpt lat="43.59098" lon="6.30138">
        <ele>648.66</ele>
        <time>2016-10-21T07:37:53Z</time>
      </trkpt>
      <trkpt lat="43.59101" lon="6.30139">
        <ele>648.68</ele>
        <time>2016-10-21T07:37:55Z</time>
      </trkpt>
      <trkpt lat="43.59112" lon="6.30148">
        <ele>649.09</ele>
        <time>2016-10-21T07:38:10Z</time>
      </trkpt>
      <trkpt lat="43.59125" lon="6.30157">
        <ele>649.9</ele>
        <time>2016-10-21T07:38:22Z</time>
      </trkpt>
      <trkpt lat="43.59143" lon="6.30165">
        <ele>651.7</ele>
        <time>2016-10-21T07:38:42Z</time>
      </trkpt>
      <trkpt lat="43.59155" lon="6.30164">
        <ele>652.16</ele>
        <time>2016-10-21T07:39:09Z</time>
      </trkpt>
      <trkpt lat="43.59165" lon="6.30161">
        <ele>651.97</ele>
        <time>2016-10-21T07:39:36Z</time>
      </trkpt>
      <trkpt lat="43.59175" lon="6.30161">
        <ele>652.49</ele>
        <time>2016-10-21T07:39:58Z</time>
      </trkpt>
      <trkpt lat="43.59188" lon="6.30159">
        <ele>653.05</ele>
        <time>2016-10-21T07:40:23Z</time>
      </trkpt>
      <trkpt lat="43.59205" lon="6.30152">
        <ele>653.6</ele>
        <time>2016-10-21T07:40:47Z</time>
      </trkpt>
      <trkpt lat="43.59214" lon="6.30151">
        <ele>653.54</ele>
        <time>2016-10-21T07:41:10Z</time>
      </trkpt>
      <trkpt lat="43.5923" lon="6.30146">
        <ele>653.08</ele>
        <time>2016-10-21T07:41:30Z</time>
      </trkpt>
      <trkpt lat="43.59242" lon="6.30143">
        <ele>652.67</ele>
        <time>2016-10-21T07:41:43Z</time>
      </trkpt>
      <trkpt lat="43.59249" lon="6.30137">
        <ele>652.19</ele>
        <time>2016-10-21T07:42:10Z</time>
      </trkpt>
      <trkpt lat="43.59257" lon="6.30133">
        <ele>651.17</ele>
        <time>2016-10-21T07:42:30Z</time>
      </trkpt>
      <trkpt lat="43.59277" lon="6.30126">
        <ele>650.22</ele>
        <time>2016-10-21T07:42:48Z</time>
      </trkpt>
      <trkpt lat="43.5929" lon="6.30123">
        <ele>649.84</ele>
        <time>2016-10-21T07:43:03Z</time>
      </trkpt>
      <trkpt lat="43.59304" lon="6.30119">
        <ele>649.68</ele>
        <time>2016-10-21T07:43:18Z</time>
      </trkpt>
      <trkpt lat="43.59307" lon="6.30118">
        <ele>649.7</ele>
        <time>2016-10-21T07:43:20Z</time>
      </trkpt>
      <trkpt lat="43.59316" lon="6.30115">
        <ele>649.7</ele>
        <time>2016-10-21T07:43:26Z</time>
      </trkpt>
      <trkpt lat="43.59332" lon="6.30109">
        <ele>649.27</ele>
        <time>2016-10-21T07:43:39Z</time>
      </trkpt>
      <trkpt lat="43.59354" lon="6.30099">
        <ele>647.74</ele>
        <time>2016-10-21T07:43:58Z</time>
      </trkpt>
      <trkpt lat="43.5938" lon="6.3009">
        <ele>646.38</ele>
        <time>2016-10-21T07:44:16Z</time>
      </trkpt>
      <trkpt lat="43.59398" lon="6.30082">
        <ele>646.09</ele>
        <time>2016-10-21T07:44:30Z</time>
      </trkpt>
      <trkpt lat="43.59419" lon="6.30074">
        <ele>646.12</ele>
        <time>2016-10-21T07:44:45Z</time>
      </trkpt>
      <trkpt lat="43.59439" lon="6.30066">
        <ele>646.21</ele>
        <time>2016-10-21T07:45:00Z</time>
      </trkpt>
      <trkpt lat="43.59463" lon="6.30058">
        <ele>647.1</ele>
        <time>2016-10-21T07:45:17Z</time>
      </trkpt>
      <trkpt lat="43.59483" lon="6.3005">
        <ele>648.58</ele>
        <time>2016-10-21T07:45:32Z</time>
      </trkpt>
      <trkpt lat="43.59496" lon="6.30041">
        <ele>649.98</ele>
        <time>2016-10-21T07:45:45Z</time>
      </trkpt>
      <trkpt lat="43.59515" lon="6.30029">
        <ele>651.33</ele>
        <time>2016-10-21T07:46:02Z</time>
      </trkpt>
      <trkpt lat="43.59526" lon="6.30021">
        <ele>651.32</ele>
        <time>2016-10-21T07:46:10Z</time>
      </trkpt>
      <trkpt lat="43.59527" lon="6.30019">
        <ele>651.19</ele>
        <time>2016-10-21T07:46:12Z</time>
      </trkpt>
      <trkpt lat="43.59542" lon="6.30007">
        <ele>650.37</ele>
        <time>2016-10-21T07:46:25Z</time>
      </trkpt>
      <trkpt lat="43.59557" lon="6.29987">
        <ele>649.38</ele>
        <time>2016-10-21T07:46:43Z</time>
      </trkpt>
      <trkpt lat="43.59563" lon="6.29977">
        <ele>649.62</ele>
        <time>2016-10-21T07:46:54Z</time>
      </trkpt>
      <trkpt lat="43.59576" lon="6.29961">
        <ele>650.13</ele>
        <time>2016-10-21T07:47:13Z</time>
      </trkpt>
      <trkpt lat="43.59588" lon="6.29949">
        <ele>649.99</ele>
        <time>2016-10-21T07:47:28Z</time>
      </trkpt>
      <trkpt lat="43.59606" lon="6.29931">
        <ele>649.74</ele>
        <time>2016-10-21T07:47:46Z</time>
      </trkpt>
      <trkpt lat="43.59617" lon="6.29926">
        <ele>649.33</ele>
        <time>2016-10-21T07:47:55Z</time>
      </trkpt>
      <trkpt lat="43.59637" lon="6.29912">
        <ele>649.54</ele>
        <time>2016-10-21T07:48:14Z</time>
      </trkpt>
      <trkpt lat="43.59646" lon="6.29904">
        <ele>649.66</ele>
        <time>2016-10-21T07:48:23Z</time>
      </trkpt>
      <trkpt lat="43.59668" lon="6.29892">
        <ele>649.43</ele>
        <time>2016-10-21T07:48:40Z</time>
      </trkpt>
      <trkpt lat="43.59676" lon="6.29884">
        <ele>649.59</ele>
        <time>2016-10-21T07:48:47Z</time>
      </trkpt>
      <trkpt lat="43.59693" lon="6.29866">
        <ele>650.02</ele>
        <time>2016-10-21T07:49:02Z</time>
      </trkpt>
      <trkpt lat="43.59705" lon="6.29837">
        <ele>648.98</ele>
        <time>2016-10-21T07:49:19Z</time>
      </trkpt>
      <trkpt lat="43.59705" lon="6.29835">
        <ele>648.94</ele>
        <time>2016-10-21T07:49:20Z</time>
      </trkpt>
      <trkpt lat="43.5971" lon="6.29828">
        <ele>648.64</ele>
        <time>2016-10-21T07:49:25Z</time>
      </trkpt>
      <trkpt lat="43.59719" lon="6.29817">
        <ele>648.52</ele>
        <time>2016-10-21T07:49:35Z</time>
      </trkpt>
      <trkpt lat="43.59734" lon="6.29803">
        <ele>648.09</ele>
        <time>2016-10-21T07:49:51Z</time>
      </trkpt>
      <trkpt lat="43.59735" lon="6.29802">
        <ele>648.08</ele>
        <time>2016-10-21T07:49:52Z</time>
      </trkpt>
      <trkpt lat="43.59741" lon="6.29797">
        <ele>648.17</ele>
        <time>2016-10-21T07:49:56Z</time>
      </trkpt>
      <trkpt lat="43.59756" lon="6.29783">
        <ele>647.96</ele>
        <time>2016-10-21T07:50:12Z</time>
      </trkpt>
      <trkpt lat="43.59768" lon="6.29746">
        <ele>646.4</ele>
        <time>2016-10-21T07:50:34Z</time>
      </trkpt>
      <trkpt lat="43.59778" lon="6.29716">
        <ele>644.36</ele>
        <time>2016-10-21T07:50:56Z</time>
      </trkpt>
      <trkpt lat="43.5979" lon="6.29681">
        <ele>642.31</ele>
        <time>2016-10-21T07:51:18Z</time>
      </trkpt>
      <trkpt lat="43.59789" lon="6.29673">
        <ele>642.05</ele>
        <time>2016-10-21T07:51:21Z</time>
      </trkpt>
      <trkpt lat="43.59792" lon="6.29655">
        <ele>641.7</ele>
        <time>2016-10-21T07:51:29Z</time>
      </trkpt>
      <trkpt lat="43.59799" lon="6.29625">
        <ele>640.3</ele>
        <time>2016-10-21T07:51:47Z</time>
      </trkpt>
      <trkpt lat="43.59804" lon="6.29608">
        <ele>640.08</ele>
        <time>2016-10-21T07:51:57Z</time>
      </trkpt>
      <trkpt lat="43.59807" lon="6.29601">
        <ele>640.01</ele>
        <time>2016-10-21T07:52:01Z</time>
      </trkpt>
      <trkpt lat="43.59818" lon="6.29574">
        <ele>639.6</ele>
        <time>2016-10-21T07:52:18Z</time>
      </trkpt>
      <trkpt lat="43.59819" lon="6.29568">
        <ele>639.61</ele>
        <time>2016-10-21T07:52:22Z</time>
      </trkpt>
      <trkpt lat="43.59821" lon="6.29563">
        <ele>639.52</ele>
        <time>2016-10-21T07:52:26Z</time>
      </trkpt>
      <trkpt lat="43.59822" lon="6.2956">
        <ele>639.51</ele>
        <time>2016-10-21T07:52:28Z</time>
      </trkpt>
      <trkpt lat="43.59831" lon="6.29535">
        <ele>639.56</ele>
        <time>2016-10-21T07:52:43Z</time>
      </trkpt>
      <trkpt lat="43.59834" lon="6.29527">
        <ele>639.55</ele>
        <time>2016-10-21T07:52:47Z</time>
      </trkpt>
      <trkpt lat="43.59843" lon="6.29503">
        <ele>639.69</ele>
        <time>2016-10-21T07:53:02Z</time>
      </trkpt>
      <trkpt lat="43.59842" lon="6.29466">
        <ele>639.15</ele>
        <time>2016-10-21T07:53:21Z</time>
      </trkpt>
      <trkpt lat="43.59834" lon="6.29432">
        <ele>639.21</ele>
        <time>2016-10-21T07:53:37Z</time>
      </trkpt>
      <trkpt lat="43.59829" lon="6.29416">
        <ele>639.52</ele>
        <time>2016-10-21T07:53:45Z</time>
      </trkpt>
      <trkpt lat="43.59834" lon="6.29391">
        <ele>639.88</ele>
        <time>2016-10-21T07:54:01Z</time>
      </trkpt>
      <trkpt lat="43.59837" lon="6.29368">
        <ele>640.64</ele>
        <time>2016-10-21T07:54:15Z</time>
      </trkpt>
      <trkpt lat="43.59837" lon="6.29361">
        <ele>640.73</ele>
        <time>2016-10-21T07:54:20Z</time>
      </trkpt>
      <trkpt lat="43.59835" lon="6.29335">
        <ele>640.56</ele>
        <time>2016-10-21T07:54:35Z</time>
      </trkpt>
      <trkpt lat="43.59835" lon="6.29323">
        <ele>640.23</ele>
        <time>2016-10-21T07:54:43Z</time>
      </trkpt>
      <trkpt lat="43.59842" lon="6.29299">
        <ele>640.39</ele>
        <time>2016-10-21T07:54:59Z</time>
      </trkpt>
      <trkpt lat="43.5985" lon="6.29274">
        <ele>640.31</ele>
        <time>2016-10-21T07:55:15Z</time>
      </trkpt>
      <trkpt lat="43.59852" lon="6.29267">
        <ele>640.3</ele>
        <time>2016-10-21T07:55:19Z</time>
      </trkpt>
      <trkpt lat="43.59857" lon="6.29244">
        <ele>641.13</ele>
        <time>2016-10-21T07:55:34Z</time>
      </trkpt>
      <trkpt lat="43.59861" lon="6.29218">
        <ele>641.22</ele>
        <time>2016-10-21T07:55:49Z</time>
      </trkpt>
      <trkpt lat="43.59864" lon="6.29203">
        <ele>641.36</ele>
        <time>2016-10-21T07:55:58Z</time>
      </trkpt>
      <trkpt lat="43.59863" lon="6.29183">
        <ele>641.75</ele>
        <time>2016-10-21T07:56:11Z</time>
      </trkpt>
      <trkpt lat="43.59864" lon="6.29158">
        <ele>642.56</ele>
        <time>2016-10-21T07:56:27Z</time>
      </trkpt>
      <trkpt lat="43.59862" lon="6.29141">
        <ele>642.36</ele>
        <time>2016-10-21T07:56:48Z</time>
      </trkpt>
      <trkpt lat="43.59861" lon="6.29125">
        <ele>642.01</ele>
        <time>2016-10-21T07:57:03Z</time>
      </trkpt>
      <trkpt lat="43.59858" lon="6.29104">
        <ele>641.6</ele>
        <time>2016-10-21T07:57:22Z</time>
      </trkpt>
      <trkpt lat="43.59858" lon="6.29097">
        <ele>641.19</ele>
        <time>2016-10-21T07:57:39Z</time>
      </trkpt>
      <trkpt lat="43.59858" lon="6.29099">
        <ele>640.94</ele>
        <time>2016-10-21T07:58:03Z</time>
      </trkpt>
      <trkpt lat="43.59857" lon="6.29098">
        <ele>641.12</ele>
        <time>2016-10-21T07:58:34Z</time>
      </trkpt>
      <trkpt lat="43.59859" lon="6.29099">
        <ele>641.08</ele>
        <time>2016-10-21T07:59:04Z</time>
      </trkpt>
      <trkpt lat="43.59858" lon="6.29095">
        <ele>641.15</ele>
        <time>2016-10-21T07:59:33Z</time>
      </trkpt>
      <trkpt lat="43.59856" lon="6.29091">
        <ele>640.95</ele>
        <time>2016-10-21T08:00:02Z</time>
      </trkpt>
      <trkpt lat="43.5986" lon="6.29092">
        <ele>640.83</ele>
        <time>2016-10-21T08:00:25Z</time>
      </trkpt>
      <trkpt lat="43.59859" lon="6.29092">
        <ele>641.02</ele>
        <time>2016-10-21T08:00:34Z</time>
      </trkpt>
      <trkpt lat="43.59853" lon="6.29095">
        <ele>641.34</ele>
        <time>2016-10-21T08:00:52Z</time>
      </trkpt>
      <trkpt lat="43.59853" lon="6.29097">
        <ele>641.38</ele>
        <time>2016-10-21T08:01:24Z</time>
      </trkpt>
      <trkpt lat="43.59854" lon="6.29096">
        <ele>641.51</ele>
        <time>2016-10-21T08:01:49Z</time>
      </trkpt>
      <trkpt lat="43.59857" lon="6.29096">
        <ele>640.88</ele>
        <time>2016-10-21T08:02:18Z</time>
      </trkpt>
      <trkpt lat="43.59858" lon="6.29097">
        <ele>640.74</ele>
        <time>2016-10-21T08:02:45Z</time>
      </trkpt>
      <trkpt lat="43.59858" lon="6.29098">
        <ele>641.05</ele>
        <time>2016-10-21T08:03:14Z</time>
      </trkpt>
      <trkpt lat="43.5986" lon="6.29098">
        <ele>640.92</ele>
        <time>2016-10-21T08:03:43Z</time>
      </trkpt>
      <trkpt lat="43.59859" lon="6.29095">
        <ele>640.82</ele>
        <time>2016-10-21T08:04:08Z</time>
      </trkpt>
      <trkpt lat="43.59856" lon="6.29094">
        <ele>640.98</ele>
        <time>2016-10-21T08:04:41Z</time>
      </trkpt>
      <trkpt lat="43.59855" lon="6.29094">
        <ele>640.95</ele>
        <time>2016-10-21T08:05:08Z</time>
      </trkpt>
      <trkpt lat="43.59855" lon="6.29098">
        <ele>641.25</ele>
        <time>2016-10-21T08:05:33Z</time>
      </trkpt>
      <trkpt lat="43.59857" lon="6.29096">
        <ele>641.71</ele>
        <time>2016-10-21T08:05:55Z</time>
      </trkpt>
      <trkpt lat="43.59856" lon="6.29098">
        <ele>641.31</ele>
        <time>2016-10-21T08:06:20Z</time>
      </trkpt>
      <trkpt lat="43.59856" lon="6.29096">
        <ele>641.23</ele>
        <time>2016-10-21T08:06:46Z</time>
      </trkpt>
      <trkpt lat="43.59857" lon="6.29098">
        <ele>641.04</ele>
        <time>2016-10-21T08:07:21Z</time>
      </trkpt>
      <trkpt lat="43.59856" lon="6.29095">
        <ele>641.04</ele>
        <time>2016-10-21T08:07:46Z</time>
      </trkpt>
      <trkpt lat="43.59856" lon="6.29096">
        <ele>641.02</ele>
        <time>2016-10-21T08:08:12Z</time>
      </trkpt>
      <trkpt lat="43.59856" lon="6.29098">
        <ele>641.01</ele>
        <time>2016-10-21T08:08:32Z</time>
      </trkpt>
      <trkpt lat="43.5986" lon="6.29104">
        <ele>641.27</ele>
        <time>2016-10-21T08:08:52Z</time>
      </trkpt>
      <trkpt lat="43.5986" lon="6.291">
        <ele>640.94</ele>
        <time>2016-10-21T08:09:15Z</time>
      </trkpt>
      <trkpt lat="43.5986" lon="6.2912">
        <ele>641.22</ele>
        <time>2016-10-21T08:09:34Z</time>
      </trkpt>
      <trkpt lat="43.59863" lon="6.29147">
        <ele>641.48</ele>
        <time>2016-10-21T08:09:50Z</time>
      </trkpt>
      <trkpt lat="43.59864" lon="6.29178">
        <ele>641.99</ele>
        <time>2016-10-21T08:10:09Z</time>
      </trkpt>
      <trkpt lat="43.59862" lon="6.29209">
        <ele>641.09</ele>
        <time>2016-10-21T08:10:26Z</time>
      </trkpt>
      <trkpt lat="43.59857" lon="6.2924">
        <ele>641.02</ele>
        <time>2016-10-21T08:10:45Z</time>
      </trkpt>
      <trkpt lat="43.59849" lon="6.29276">
        <ele>640.59</ele>
        <time>2016-10-21T08:11:05Z</time>
      </trkpt>
      <trkpt lat="43.59836" lon="6.29308">
        <ele>639.88</ele>
        <time>2016-10-21T08:11:25Z</time>
      </trkpt>
      <trkpt lat="43.59834" lon="6.29338">
        <ele>639.83</ele>
        <time>2016-10-21T08:11:42Z</time>
      </trkpt>
      <trkpt lat="43.59836" lon="6.29368">
        <ele>640.37</ele>
        <time>2016-10-21T08:11:59Z</time>
      </trkpt>
      <trkpt lat="43.5983" lon="6.29392">
        <ele>640.09</ele>
        <time>2016-10-21T08:12:14Z</time>
      </trkpt>
      <trkpt lat="43.59826" lon="6.2941">
        <ele>639.43</ele>
        <time>2016-10-21T08:12:24Z</time>
      </trkpt>
      <trkpt lat="43.59829" lon="6.29432">
        <ele>639.05</ele>
        <time>2016-10-21T08:12:37Z</time>
      </trkpt>
      <trkpt lat="43.5983" lon="6.29442">
        <ele>638.88</ele>
        <time>2016-10-21T08:12:44Z</time>
      </trkpt>
      <trkpt lat="43.59831" lon="6.29454">
        <ele>638.71</ele>
        <time>2016-10-21T08:12:53Z</time>
      </trkpt>
      <trkpt lat="43.59831" lon="6.29477">
        <ele>639.05</ele>
        <time>2016-10-21T08:13:07Z</time>
      </trkpt>
      <trkpt lat="43.5983" lon="6.29493">
        <ele>639.42</ele>
        <time>2016-10-21T08:13:20Z</time>
      </trkpt>
      <trkpt lat="43.59825" lon="6.29517">
        <ele>638.92</ele>
        <time>2016-10-21T08:13:37Z</time>
      </trkpt>
      <trkpt lat="43.59815" lon="6.29545">
        <ele>638.87</ele>
        <time>2016-10-21T08:13:53Z</time>
      </trkpt>
      <trkpt lat="43.59809" lon="6.29571">
        <ele>638.93</ele>
        <time>2016-10-21T08:14:05Z</time>
      </trkpt>
      <trkpt lat="43.59797" lon="6.29599">
        <ele>639.32</ele>
        <time>2016-10-21T08:14:20Z</time>
      </trkpt>
      <trkpt lat="43.59794" lon="6.29627">
        <ele>639.72</ele>
        <time>2016-10-21T08:14:35Z</time>
      </trkpt>
      <trkpt lat="43.59787" lon="6.29659">
        <ele>640.79</ele>
        <time>2016-10-21T08:14:53Z</time>
      </trkpt>
      <trkpt lat="43.59782" lon="6.29681">
        <ele>641.87</ele>
        <time>2016-10-21T08:15:08Z</time>
      </trkpt>
      <trkpt lat="43.59775" lon="6.29705">
        <ele>643.62</ele>
        <time>2016-10-21T08:15:25Z</time>
      </trkpt>
      <trkpt lat="43.59765" lon="6.29736">
        <ele>645.55</ele>
        <time>2016-10-21T08:15:46Z</time>
      </trkpt>
      <trkpt lat="43.59758" lon="6.29756">
        <ele>647.11</ele>
        <time>2016-10-21T08:16:04Z</time>
      </trkpt>
      <trkpt lat="43.59761" lon="6.2976">
        <ele>647.87</ele>
        <time>2016-10-21T08:16:35Z</time>
      </trkpt>
      <trkpt lat="43.59768" lon="6.29755">
        <ele>647.9</ele>
        <time>2016-10-21T08:16:52Z</time>
      </trkpt>
      <trkpt lat="43.59771" lon="6.29752">
        <ele>648.04</ele>
        <time>2016-10-21T08:17:07Z</time>
      </trkpt>
      <trkpt lat="43.5979" lon="6.29746">
        <ele>648.41</ele>
        <time>2016-10-21T08:17:23Z</time>
      </trkpt>
      <trkpt lat="43.59791" lon="6.29745">
        <ele>648.44</ele>
        <time>2016-10-21T08:17:24Z</time>
      </trkpt>
      <trkpt lat="43.59798" lon="6.29742">
        <ele>648.71</ele>
        <time>2016-10-21T08:17:30Z</time>
      </trkpt>
      <trkpt lat="43.59816" lon="6.2973">
        <ele>649.02</ele>
        <time>2016-10-21T08:17:46Z</time>
      </trkpt>
      <trkpt lat="43.59839" lon="6.29724">
        <ele>649.15</ele>
        <time>2016-10-21T08:18:02Z</time>
      </trkpt>
      <trkpt lat="43.59859" lon="6.2972">
        <ele>649.01</ele>
        <time>2016-10-21T08:18:16Z</time>
      </trkpt>
      <trkpt lat="43.5987" lon="6.29718">
        <ele>648.71</ele>
        <time>2016-10-21T08:18:28Z</time>
      </trkpt>
      <trkpt lat="43.59892" lon="6.29711">
        <ele>648.88</ele>
        <time>2016-10-21T08:18:45Z</time>
      </trkpt>
      <trkpt lat="43.59904" lon="6.29707">
        <ele>648.94</ele>
        <time>2016-10-21T08:18:54Z</time>
      </trkpt>
      <trkpt lat="43.59927" lon="6.297">
        <ele>648.96</ele>
        <time>2016-10-21T08:19:10Z</time>
      </trkpt>
      <trkpt lat="43.59946" lon="6.29693">
        <ele>648.76</ele>
        <time>2016-10-21T08:19:23Z</time>
      </trkpt>
      <trkpt lat="43.59952" lon="6.29692">
        <ele>648.8</ele>
        <time>2016-10-21T08:19:28Z</time>
      </trkpt>
      <trkpt lat="43.59972" lon="6.29679">
        <ele>648.63</ele>
        <time>2016-10-21T08:19:43Z</time>
      </trkpt>
      <trkpt lat="43.59991" lon="6.29666">
        <ele>648.57</ele>
        <time>2016-10-21T08:19:59Z</time>
      </trkpt>
      <trkpt lat="43.6001" lon="6.29651">
        <ele>648.07</ele>
        <time>2016-10-21T08:20:17Z</time>
      </trkpt>
      <trkpt lat="43.60018" lon="6.29643">
        <ele>647.93</ele>
        <time>2016-10-21T08:20:34Z</time>
      </trkpt>
      <trkpt lat="43.60027" lon="6.29636">
        <ele>647.84</ele>
        <time>2016-10-21T08:20:48Z</time>
      </trkpt>
      <trkpt lat="43.60039" lon="6.29626">
        <ele>647.71</ele>
        <time>2016-10-21T08:20:58Z</time>
      </trkpt>
      <trkpt lat="43.60059" lon="6.2961">
        <ele>646.94</ele>
        <time>2016-10-21T08:21:15Z</time>
      </trkpt>
      <trkpt lat="43.60073" lon="6.29592">
        <ele>645.94</ele>
        <time>2016-10-21T08:21:30Z</time>
      </trkpt>
      <trkpt lat="43.60085" lon="6.29576">
        <ele>645.18</ele>
        <time>2016-10-21T08:21:44Z</time>
      </trkpt>
      <trkpt lat="43.60099" lon="6.29551">
        <ele>643.67</ele>
        <time>2016-10-21T08:21:59Z</time>
      </trkpt>
      <trkpt lat="43.60118" lon="6.29536">
        <ele>641.94</ele>
        <time>2016-10-21T08:22:15Z</time>
      </trkpt>
      <trkpt lat="43.60133" lon="6.29517">
        <ele>639.63</ele>
        <time>2016-10-21T08:22:32Z</time>
      </trkpt>
      <trkpt lat="43.6015" lon="6.29504">
        <ele>637.5</ele>
        <time>2016-10-21T08:22:48Z</time>
      </trkpt>
      <trkpt lat="43.60164" lon="6.29484">
        <ele>635.74</ele>
        <time>2016-10-21T08:23:01Z</time>
      </trkpt>
      <trkpt lat="43.6017" lon="6.29471">
        <ele>634.43</ele>
        <time>2016-10-21T08:23:18Z</time>
      </trkpt>
      <trkpt lat="43.60186" lon="6.29451">
        <ele>633.65</ele>
        <time>2016-10-21T08:23:37Z</time>
      </trkpt>
      <trkpt lat="43.60196" lon="6.29438">
        <ele>633.46</ele>
        <time>2016-10-21T08:23:49Z</time>
      </trkpt>
      <trkpt lat="43.60206" lon="6.29413">
        <ele>632.92</ele>
        <time>2016-10-21T08:24:05Z</time>
      </trkpt>
      <trkpt lat="43.60211" lon="6.29392">
        <ele>632.86</ele>
        <time>2016-10-21T08:24:19Z</time>
      </trkpt>
      <trkpt lat="43.60215" lon="6.29371">
        <ele>632.94</ele>
        <time>2016-10-21T08:24:33Z</time>
      </trkpt>
      <trkpt lat="43.60222" lon="6.29352">
        <ele>633.42</ele>
        <time>2016-10-21T08:24:47Z</time>
      </trkpt>
      <trkpt lat="43.60232" lon="6.29337">
        <ele>633.27</ele>
        <time>2016-10-21T08:24:59Z</time>
      </trkpt>
      <trkpt lat="43.60233" lon="6.29335">
        <ele>633.22</ele>
        <time>2016-10-21T08:25:01Z</time>
      </trkpt>
      <trkpt lat="43.60239" lon="6.29331">
        <ele>633.16</ele>
        <time>2016-10-21T08:25:06Z</time>
      </trkpt>
      <trkpt lat="43.60245" lon="6.29326">
        <ele>633.28</ele>
        <time>2016-10-21T08:25:11Z</time>
      </trkpt>
      <trkpt lat="43.60253" lon="6.29319">
        <ele>633.37</ele>
        <time>2016-10-21T08:25:17Z</time>
      </trkpt>
      <trkpt lat="43.60258" lon="6.29313">
        <ele>633.49</ele>
        <time>2016-10-21T08:25:22Z</time>
      </trkpt>
      <trkpt lat="43.60267" lon="6.29281">
        <ele>634.64</ele>
        <time>2016-10-21T08:25:40Z</time>
      </trkpt>
      <trkpt lat="43.60266" lon="6.29259">
        <ele>635.34</ele>
        <time>2016-10-21T08:25:56Z</time>
      </trkpt>
      <trkpt lat="43.60264" lon="6.29253">
        <ele>635.77</ele>
        <time>2016-10-21T08:26:26Z</time>
      </trkpt>
      <trkpt lat="43.60263" lon="6.2924">
        <ele>635.7</ele>
        <time>2016-10-21T08:26:48Z</time>
      </trkpt>
      <trkpt lat="43.60263" lon="6.29211">
        <ele>636.28</ele>
        <time>2016-10-21T08:27:04Z</time>
      </trkpt>
      <trkpt lat="43.60261" lon="6.29191">
        <ele>637.38</ele>
        <time>2016-10-21T08:27:21Z</time>
      </trkpt>
      <trkpt lat="43.60261" lon="6.29186">
        <ele>637.8</ele>
        <time>2016-10-21T08:27:39Z</time>
      </trkpt>
      <trkpt lat="43.60259" lon="6.29181">
        <ele>638.76</ele>
        <time>2016-10-21T08:27:55Z</time>
      </trkpt>
      <trkpt lat="43.6026" lon="6.29187">
        <ele>638.31</ele>
        <time>2016-10-21T08:28:11Z</time>
      </trkpt>
      <trkpt lat="43.60263" lon="6.2919">
        <ele>637.97</ele>
        <time>2016-10-21T08:28:24Z</time>
      </trkpt>
      <trkpt lat="43.60276" lon="6.29203">
        <ele>637.65</ele>
        <time>2016-10-21T08:28:40Z</time>
      </trkpt>
      <trkpt lat="43.60274" lon="6.29198">
        <ele>637.52</ele>
        <time>2016-10-21T08:29:06Z</time>
      </trkpt>
      <trkpt lat="43.60267" lon="6.29189">
        <ele>637.71</ele>
        <time>2016-10-21T08:29:23Z</time>
      </trkpt>
      <trkpt lat="43.60263" lon="6.29187">
        <ele>637.92</ele>
        <time>2016-10-21T08:29:47Z</time>
      </trkpt>
      <trkpt lat="43.60262" lon="6.2919">
        <ele>637.97</ele>
        <time>2016-10-21T08:30:14Z</time>
      </trkpt>
      <trkpt lat="43.60263" lon="6.29189">
        <ele>637.49</ele>
        <time>2016-10-21T08:30:33Z</time>
      </trkpt>
      <trkpt lat="43.60263" lon="6.29187">
        <ele>637.53</ele>
        <time>2016-10-21T08:31:01Z</time>
      </trkpt>
      <trkpt lat="43.60273" lon="6.29198">
        <ele>637.34</ele>
        <time>2016-10-21T08:31:20Z</time>
      </trkpt>
      <trkpt lat="43.60278" lon="6.29204">
        <ele>637.03</ele>
        <time>2016-10-21T08:31:26Z</time>
      </trkpt>
      <trkpt lat="43.60292" lon="6.29206">
        <ele>637.07</ele>
        <time>2016-10-21T08:31:42Z</time>
      </trkpt>
      <trkpt lat="43.60296" lon="6.29205">
        <ele>637.36</ele>
        <time>2016-10-21T08:32:03Z</time>
      </trkpt>
      <trkpt lat="43.60299" lon="6.29205">
        <ele>637.1</ele>
        <time>2016-10-21T08:32:16Z</time>
      </trkpt>
      <trkpt lat="43.60309" lon="6.29208">
        <ele>637.57</ele>
        <time>2016-10-21T08:32:33Z</time>
      </trkpt>
      <trkpt lat="43.60308" lon="6.29207">
        <ele>636.94</ele>
        <time>2016-10-21T08:33:02Z</time>
      </trkpt>
      <trkpt lat="43.60307" lon="6.29204">
        <ele>637.24</ele>
        <time>2016-10-21T08:33:32Z</time>
      </trkpt>
      <trkpt lat="43.60307" lon="6.29203">
        <ele>636.94</ele>
        <time>2016-10-21T08:33:56Z</time>
      </trkpt>
      <trkpt lat="43.60308" lon="6.29203">
        <ele>636.93</ele>
        <time>2016-10-21T08:34:33Z</time>
      </trkpt>
      <trkpt lat="43.60318" lon="6.29209">
        <ele>636.98</ele>
        <time>2016-10-21T08:34:45Z</time>
      </trkpt>
      <trkpt lat="43.60335" lon="6.2922">
        <ele>637.37</ele>
        <time>2016-10-21T08:35:01Z</time>
      </trkpt>
      <trkpt lat="43.60347" lon="6.29226">
        <ele>637.66</ele>
        <time>2016-10-21T08:35:15Z</time>
      </trkpt>
      <trkpt lat="43.60355" lon="6.29227">
        <ele>637.71</ele>
        <time>2016-10-21T08:35:55Z</time>
      </trkpt>
      <trkpt lat="43.60377" lon="6.29229">
        <ele>638.3</ele>
        <time>2016-10-21T08:36:11Z</time>
      </trkpt>
      <trkpt lat="43.60401" lon="6.29236">
        <ele>639.16</ele>
        <time>2016-10-21T08:36:27Z</time>
      </trkpt>
      <trkpt lat="43.60407" lon="6.29243">
        <ele>639.39</ele>
        <time>2016-10-21T08:36:32Z</time>
      </trkpt>
      <trkpt lat="43.60412" lon="6.29273">
        <ele>639.74</ele>
        <time>2016-10-21T08:36:45Z</time>
      </trkpt>
      <trkpt lat="43.60413" lon="6.29281">
        <ele>639.91</ele>
        <time>2016-10-21T08:36:49Z</time>
      </trkpt>
      <trkpt lat="43.60429" lon="6.29294">
        <ele>641.76</ele>
        <time>2016-10-21T08:37:08Z</time>
      </trkpt>
      <trkpt lat="43.6043" lon="6.29294">
        <ele>641.76</ele>
        <time>2016-10-21T08:37:09Z</time>
      </trkpt>
      <trkpt lat="43.60449" lon="6.29289">
        <ele>642.54</ele>
        <time>2016-10-21T08:37:25Z</time>
      </trkpt>
      <trkpt lat="43.60464" lon="6.29288">
        <ele>642.79</ele>
        <time>2016-10-21T08:37:39Z</time>
      </trkpt>
      <trkpt lat="43.6048" lon="6.29288">
        <ele>642.99</ele>
        <time>2016-10-21T08:37:52Z</time>
      </trkpt>
      <trkpt lat="43.60492" lon="6.2929">
        <ele>643.07</ele>
        <time>2016-10-21T08:38:04Z</time>
      </trkpt>
      <trkpt lat="43.60509" lon="6.29299">
        <ele>643.43</ele>
        <time>2016-10-21T08:38:21Z</time>
      </trkpt>
      <trkpt lat="43.60518" lon="6.293">
        <ele>643.87</ele>
        <time>2016-10-21T08:38:42Z</time>
      </trkpt>
      <trkpt lat="43.60515" lon="6.29298">
        <ele>643.88</ele>
        <time>2016-10-21T08:39:13Z</time>
      </trkpt>
      <trkpt lat="43.60517" lon="6.293">
        <ele>644.02</ele>
        <time>2016-10-21T08:39:41Z</time>
      </trkpt>
      <trkpt lat="43.60522" lon="6.29301">
        <ele>644.1</ele>
        <time>2016-10-21T08:40:05Z</time>
      </trkpt>
      <trkpt lat="43.60521" lon="6.29305">
        <ele>644.05</ele>
        <time>2016-10-21T08:40:34Z</time>
      </trkpt>
      <trkpt lat="43.60519" lon="6.29305">
        <ele>643.94</ele>
        <time>2016-10-21T08:41:03Z</time>
      </trkpt>
      <trkpt lat="43.60527" lon="6.29302">
        <ele>644.35</ele>
        <time>2016-10-21T08:41:23Z</time>
      </trkpt>
      <trkpt lat="43.60531" lon="6.29303">
        <ele>644.62</ele>
        <time>2016-10-21T08:41:48Z</time>
      </trkpt>
      <trkpt lat="43.60538" lon="6.29301">
        <ele>644.76</ele>
        <time>2016-10-21T08:42:22Z</time>
      </trkpt>
      <trkpt lat="43.60553" lon="6.293">
        <ele>646.06</ele>
        <time>2016-10-21T08:42:46Z</time>
      </trkpt>
      <trkpt lat="43.60563" lon="6.293">
        <ele>646.84</ele>
        <time>2016-10-21T08:43:10Z</time>
      </trkpt>
      <trkpt lat="43.60573" lon="6.29299">
        <ele>646.98</ele>
        <time>2016-10-21T08:43:35Z</time>
      </trkpt>
      <trkpt lat="43.60574" lon="6.29298">
        <ele>647.32</ele>
        <time>2016-10-21T08:44:00Z</time>
      </trkpt>
      <trkpt lat="43.60572" lon="6.29299">
        <ele>646.92</ele>
        <time>2016-10-21T08:44:20Z</time>
      </trkpt>
      <trkpt lat="43.60573" lon="6.29299">
        <ele>647.04</ele>
        <time>2016-10-21T08:44:44Z</time>
      </trkpt>
      <trkpt lat="43.60576" lon="6.29301">
        <ele>646.98</ele>
        <time>2016-10-21T08:45:08Z</time>
      </trkpt>
      <trkpt lat="43.60565" lon="6.293">
        <ele>646.52</ele>
        <time>2016-10-21T08:45:29Z</time>
      </trkpt>
      <trkpt lat="43.6056" lon="6.29297">
        <ele>646.2</ele>
        <time>2016-10-21T08:45:34Z</time>
      </trkpt>
      <trkpt lat="43.60543" lon="6.29297">
        <ele>644.81</ele>
        <time>2016-10-21T08:45:51Z</time>
      </trkpt>
      <trkpt lat="43.60528" lon="6.29306">
        <ele>643.54</ele>
        <time>2016-10-21T08:46:08Z</time>
      </trkpt>
      <trkpt lat="43.60537" lon="6.29329">
        <ele>643.4</ele>
        <time>2016-10-21T08:46:29Z</time>
      </trkpt>
      <trkpt lat="43.60549" lon="6.29346">
        <ele>643.6</ele>
        <time>2016-10-21T08:46:45Z</time>
      </trkpt>
      <trkpt lat="43.60554" lon="6.29361">
        <ele>643.94</ele>
        <time>2016-10-21T08:47:06Z</time>
      </trkpt>
      <trkpt lat="43.60555" lon="6.29368">
        <ele>644.37</ele>
        <time>2016-10-21T08:47:31Z</time>
      </trkpt>
      <trkpt lat="43.60556" lon="6.29366">
        <ele>643.99</ele>
        <time>2016-10-21T08:47:55Z</time>
      </trkpt>
      <trkpt lat="43.60563" lon="6.29368">
        <ele>644.06</ele>
        <time>2016-10-21T08:48:03Z</time>
      </trkpt>
      <trkpt lat="43.60575" lon="6.29368">
        <ele>645.36</ele>
        <time>2016-10-21T08:48:19Z</time>
      </trkpt>
      <trkpt lat="43.6058" lon="6.29369">
        <ele>646.29</ele>
        <time>2016-10-21T08:48:40Z</time>
      </trkpt>
      <trkpt lat="43.60586" lon="6.29362">
        <ele>645.94</ele>
        <time>2016-10-21T08:49:00Z</time>
      </trkpt>
      <trkpt lat="43.6059" lon="6.29358">
        <ele>646.01</ele>
        <time>2016-10-21T08:49:05Z</time>
      </trkpt>
      <trkpt lat="43.60598" lon="6.29353">
        <ele>646.33</ele>
        <time>2016-10-21T08:49:19Z</time>
      </trkpt>
      <trkpt lat="43.60616" lon="6.29341">
        <ele>646.97</ele>
        <time>2016-10-21T08:49:39Z</time>
      </trkpt>
      <trkpt lat="43.60617" lon="6.2934">
        <ele>647.02</ele>
        <time>2016-10-21T08:49:40Z</time>
      </trkpt>
      <trkpt lat="43.60626" lon="6.29335">
        <ele>647.45</ele>
        <time>2016-10-21T08:49:49Z</time>
      </trkpt>
      <trkpt lat="43.60639" lon="6.29317">
        <ele>648.2</ele>
        <time>2016-10-21T08:50:04Z</time>
      </trkpt>
      <trkpt lat="43.60643" lon="6.29309">
        <ele>648.53</ele>
        <time>2016-10-21T08:50:11Z</time>
      </trkpt>
      <trkpt lat="43.6066" lon="6.293">
        <ele>649.68</ele>
        <time>2016-10-21T08:50:27Z</time>
      </trkpt>
      <trkpt lat="43.60666" lon="6.29298">
        <ele>650.16</ele>
        <time>2016-10-21T08:50:33Z</time>
      </trkpt>
      <trkpt lat="43.6068" lon="6.29284">
        <ele>651.04</ele>
        <time>2016-10-21T08:50:46Z</time>
      </trkpt>
      <trkpt lat="43.60686" lon="6.2928">
        <ele>651.41</ele>
        <time>2016-10-21T08:51:02Z</time>
      </trkpt>
      <trkpt lat="43.6069" lon="6.29277">
        <ele>651.41</ele>
        <time>2016-10-21T08:51:29Z</time>
      </trkpt>
      <trkpt lat="43.60696" lon="6.29268">
        <ele>651.06</ele>
        <time>2016-10-21T08:51:54Z</time>
      </trkpt>
      <trkpt lat="43.60698" lon="6.29261">
        <ele>651.22</ele>
        <time>2016-10-21T08:52:10Z</time>
      </trkpt>
      <trkpt lat="43.60696" lon="6.29261">
        <ele>651.31</ele>
        <time>2016-10-21T08:52:42Z</time>
      </trkpt>
      <trkpt lat="43.60699" lon="6.29262">
        <ele>651.07</ele>
        <time>2016-10-21T08:53:11Z</time>
      </trkpt>
      <trkpt lat="43.60699" lon="6.29261">
        <ele>650.87</ele>
        <time>2016-10-21T08:53:40Z</time>
      </trkpt>
      <trkpt lat="43.60697" lon="6.29259">
        <ele>651.08</ele>
        <time>2016-10-21T08:54:09Z</time>
      </trkpt>
      <trkpt lat="43.60698" lon="6.29262">
        <ele>650.91</ele>
        <time>2016-10-21T08:54:37Z</time>
      </trkpt>
      <trkpt lat="43.60699" lon="6.29261">
        <ele>651.17</ele>
        <time>2016-10-21T08:55:01Z</time>
      </trkpt>
      <trkpt lat="43.60702" lon="6.29254">
        <ele>651.13</ele>
        <time>2016-10-21T08:55:26Z</time>
      </trkpt>
      <trkpt lat="43.60706" lon="6.29242">
        <ele>650.75</ele>
        <time>2016-10-21T08:55:34Z</time>
      </trkpt>
      <trkpt lat="43.60709" lon="6.29239">
        <ele>650.78</ele>
        <time>2016-10-21T08:55:37Z</time>
      </trkpt>
      <trkpt lat="43.60721" lon="6.2923">
        <ele>651.15</ele>
        <time>2016-10-21T08:55:51Z</time>
      </trkpt>
      <trkpt lat="43.60723" lon="6.29226">
        <ele>651.5</ele>
        <time>2016-10-21T08:55:55Z</time>
      </trkpt>
      <trkpt lat="43.60726" lon="6.29218">
        <ele>652.04</ele>
        <time>2016-10-21T08:56:00Z</time>
      </trkpt>
      <trkpt lat="43.60732" lon="6.29214">
        <ele>652.56</ele>
        <time>2016-10-21T08:56:06Z</time>
      </trkpt>
      <trkpt lat="43.60741" lon="6.29207">
        <ele>653.09</ele>
        <time>2016-10-21T08:56:18Z</time>
      </trkpt>
      <trkpt lat="43.60737" lon="6.29192">
        <ele>654.79</ele>
        <time>2016-10-21T08:56:30Z</time>
      </trkpt>
      <trkpt lat="43.60723" lon="6.29182">
        <ele>656.47</ele>
        <time>2016-10-21T08:56:45Z</time>
      </trkpt>
      <trkpt lat="43.60711" lon="6.29171">
        <ele>658.49</ele>
        <time>2016-10-21T08:57:01Z</time>
      </trkpt>
      <trkpt lat="43.60707" lon="6.29162">
        <ele>659.95</ele>
        <time>2016-10-21T08:57:18Z</time>
      </trkpt>
      <trkpt lat="43.60699" lon="6.29155">
        <ele>661.31</ele>
        <time>2016-10-21T08:57:28Z</time>
      </trkpt>
      <trkpt lat="43.60683" lon="6.2916">
        <ele>662.88</ele>
        <time>2016-10-21T08:57:44Z</time>
      </trkpt>
      <trkpt lat="43.6067" lon="6.29163">
        <ele>664.68</ele>
        <time>2016-10-21T08:57:59Z</time>
      </trkpt>
      <trkpt lat="43.60652" lon="6.29154">
        <ele>666.54</ele>
        <time>2016-10-21T08:58:18Z</time>
      </trkpt>
      <trkpt lat="43.60643" lon="6.29151">
        <ele>666.95</ele>
        <time>2016-10-21T08:58:26Z</time>
      </trkpt>
      <trkpt lat="43.60641" lon="6.29152">
        <ele>666.97</ele>
        <time>2016-10-21T08:58:28Z</time>
      </trkpt>
      <trkpt lat="43.60634" lon="6.2915">
        <ele>666.92</ele>
        <time>2016-10-21T08:58:34Z</time>
      </trkpt>
      <trkpt lat="43.60618" lon="6.29139">
        <ele>665.88</ele>
        <time>2016-10-21T08:58:50Z</time>
      </trkpt>
      <trkpt lat="43.60608" lon="6.2913">
        <ele>664.94</ele>
        <time>2016-10-21T08:59:02Z</time>
      </trkpt>
      <trkpt lat="43.60605" lon="6.29128">
        <ele>664.56</ele>
        <time>2016-10-21T08:59:05Z</time>
      </trkpt>
      <trkpt lat="43.60594" lon="6.29111">
        <ele>662.69</ele>
        <time>2016-10-21T08:59:19Z</time>
      </trkpt>
      <trkpt lat="43.60588" lon="6.29104">
        <ele>661.55</ele>
        <time>2016-10-21T08:59:26Z</time>
      </trkpt>
      <trkpt lat="43.6057" lon="6.29095">
        <ele>659.83</ele>
        <time>2016-10-21T08:59:41Z</time>
      </trkpt>
      <trkpt lat="43.60551" lon="6.29089">
        <ele>658.47</ele>
        <time>2016-10-21T08:59:56Z</time>
      </trkpt>
      <trkpt lat="43.6054" lon="6.29085">
        <ele>658</ele>
        <time>2016-10-21T09:00:05Z</time>
      </trkpt>
      <trkpt lat="43.6053" lon="6.29081">
        <ele>657.68</ele>
        <time>2016-10-21T09:00:14Z</time>
      </trkpt>
      <trkpt lat="43.6051" lon="6.29082">
        <ele>657.44</ele>
        <time>2016-10-21T09:00:29Z</time>
      </trkpt>
      <trkpt lat="43.60495" lon="6.29088">
        <ele>657.66</ele>
        <time>2016-10-21T09:00:43Z</time>
      </trkpt>
      <trkpt lat="43.60494" lon="6.29088">
        <ele>657.72</ele>
        <time>2016-10-21T09:00:44Z</time>
      </trkpt>
      <trkpt lat="43.60484" lon="6.29093">
        <ele>658.14</ele>
        <time>2016-10-21T09:00:53Z</time>
      </trkpt>
      <trkpt lat="43.60469" lon="6.29103">
        <ele>657.27</ele>
        <time>2016-10-21T09:01:08Z</time>
      </trkpt>
      <trkpt lat="43.60465" lon="6.29103">
        <ele>656.92</ele>
        <time>2016-10-21T09:01:12Z</time>
      </trkpt>
      <trkpt lat="43.60445" lon="6.29102">
        <ele>655.17</ele>
        <time>2016-10-21T09:01:29Z</time>
      </trkpt>
      <trkpt lat="43.60429" lon="6.29103">
        <ele>652.77</ele>
        <time>2016-10-21T09:01:43Z</time>
      </trkpt>
      <trkpt lat="43.60408" lon="6.29099">
        <ele>651.21</ele>
        <time>2016-10-21T09:01:59Z</time>
      </trkpt>
      <trkpt lat="43.60385" lon="6.29092">
        <ele>650.66</ele>
        <time>2016-10-21T09:02:16Z</time>
      </trkpt>
      <trkpt lat="43.60383" lon="6.29091">
        <ele>650.71</ele>
        <time>2016-10-21T09:02:18Z</time>
      </trkpt>
      <trkpt lat="43.60378" lon="6.2909">
        <ele>650.85</ele>
        <time>2016-10-21T09:02:22Z</time>
      </trkpt>
      <trkpt lat="43.60375" lon="6.29089">
        <ele>650.92</ele>
        <time>2016-10-21T09:02:24Z</time>
      </trkpt>
      <trkpt lat="43.60354" lon="6.29078">
        <ele>651.47</ele>
        <time>2016-10-21T09:02:42Z</time>
      </trkpt>
      <trkpt lat="43.60354" lon="6.29078">
        <ele>651.5</ele>
        <time>2016-10-21T09:02:43Z</time>
      </trkpt>
      <trkpt lat="43.6034" lon="6.29064">
        <ele>651.87</ele>
        <time>2016-10-21T09:02:59Z</time>
      </trkpt>
      <trkpt lat="43.60332" lon="6.29051">
        <ele>651.31</ele>
        <time>2016-10-21T09:03:11Z</time>
      </trkpt>
      <trkpt lat="43.60329" lon="6.29032">
        <ele>651.35</ele>
        <time>2016-10-21T09:03:32Z</time>
      </trkpt>
      <trkpt lat="43.60329" lon="6.29029">
        <ele>651.31</ele>
        <time>2016-10-21T09:03:59Z</time>
      </trkpt>
      <trkpt lat="43.60328" lon="6.29027">
        <ele>651.03</ele>
        <time>2016-10-21T09:04:27Z</time>
      </trkpt>
      <trkpt lat="43.60329" lon="6.29026">
        <ele>651.25</ele>
        <time>2016-10-21T09:05:01Z</time>
      </trkpt>
      <trkpt lat="43.60328" lon="6.29027">
        <ele>651.45</ele>
        <time>2016-10-21T09:05:35Z</time>
      </trkpt>
      <trkpt lat="43.60327" lon="6.29027">
        <ele>650.97</ele>
        <time>2016-10-21T09:06:07Z</time>
      </trkpt>
      <trkpt lat="43.60327" lon="6.29029">
        <ele>650.99</ele>
        <time>2016-10-21T09:06:45Z</time>
      </trkpt>
      <trkpt lat="43.60327" lon="6.29028">
        <ele>651.05</ele>
        <time>2016-10-21T09:07:22Z</time>
      </trkpt>
      <trkpt lat="43.60327" lon="6.2903">
        <ele>650.92</ele>
        <time>2016-10-21T09:07:51Z</time>
      </trkpt>
      <trkpt lat="43.60326" lon="6.29036">
        <ele>650.69</ele>
        <time>2016-10-21T09:08:16Z</time>
      </trkpt>
      <trkpt lat="43.60331" lon="6.29053">
        <ele>651.05</ele>
        <time>2016-10-21T09:08:35Z</time>
      </trkpt>
      <trkpt lat="43.60333" lon="6.29057">
        <ele>651.02</ele>
        <time>2016-10-21T09:08:38Z</time>
      </trkpt>
      <trkpt lat="43.60343" lon="6.29072">
        <ele>651.28</ele>
        <time>2016-10-21T09:08:55Z</time>
      </trkpt>
      <trkpt lat="43.60352" lon="6.2908">
        <ele>651.18</ele>
        <time>2016-10-21T09:09:11Z</time>
      </trkpt>
      <trkpt lat="43.60361" lon="6.29085">
        <ele>651.05</ele>
        <time>2016-10-21T09:09:32Z</time>
      </trkpt>
      <trkpt lat="43.60365" lon="6.29087">
        <ele>651</ele>
        <time>2016-10-21T09:09:52Z</time>
      </trkpt>
      <trkpt lat="43.6038" lon="6.29092">
        <ele>650.65</ele>
        <time>2016-10-21T09:10:07Z</time>
      </trkpt>
      <trkpt lat="43.60394" lon="6.291">
        <ele>650.25</ele>
        <time>2016-10-21T09:10:28Z</time>
      </trkpt>
      <trkpt lat="43.60408" lon="6.29103">
        <ele>650.19</ele>
        <time>2016-10-21T09:10:45Z</time>
      </trkpt>
      <trkpt lat="43.60411" lon="6.29103">
        <ele>650.34</ele>
        <time>2016-10-21T09:10:58Z</time>
      </trkpt>
      <trkpt lat="43.60422" lon="6.29106">
        <ele>650.68</ele>
        <time>2016-10-21T09:11:22Z</time>
      </trkpt>
      <trkpt lat="43.60439" lon="6.29105">
        <ele>652.47</ele>
        <time>2016-10-21T09:11:40Z</time>
      </trkpt>
      <trkpt lat="43.60455" lon="6.29108">
        <ele>654.75</ele>
        <time>2016-10-21T09:11:57Z</time>
      </trkpt>
      <trkpt lat="43.60474" lon="6.291">
        <ele>656.36</ele>
        <time>2016-10-21T09:12:15Z</time>
      </trkpt>
      <trkpt lat="43.6048" lon="6.29097">
        <ele>656.67</ele>
        <time>2016-10-21T09:12:20Z</time>
      </trkpt>
      <trkpt lat="43.60494" lon="6.29088">
        <ele>656.82</ele>
        <time>2016-10-21T09:12:37Z</time>
      </trkpt>
      <trkpt lat="43.60505" lon="6.29082">
        <ele>656.45</ele>
        <time>2016-10-21T09:12:48Z</time>
      </trkpt>
      <trkpt lat="43.60528" lon="6.29086">
        <ele>656.69</ele>
        <time>2016-10-21T09:13:06Z</time>
      </trkpt>
      <trkpt lat="43.6055" lon="6.29093">
        <ele>657.47</ele>
        <time>2016-10-21T09:13:21Z</time>
      </trkpt>
      <trkpt lat="43.6057" lon="6.29099">
        <ele>658.53</ele>
        <time>2016-10-21T09:13:36Z</time>
      </trkpt>
      <trkpt lat="43.60579" lon="6.29102">
        <ele>659.38</ele>
        <time>2016-10-21T09:13:44Z</time>
      </trkpt>
      <trkpt lat="43.60592" lon="6.29117">
        <ele>661.3</ele>
        <time>2016-10-21T09:13:58Z</time>
      </trkpt>
      <trkpt lat="43.60595" lon="6.29121">
        <ele>661.77</ele>
        <time>2016-10-21T09:14:02Z</time>
      </trkpt>
      <trkpt lat="43.6061" lon="6.29137">
        <ele>663.99</ele>
        <time>2016-10-21T09:14:19Z</time>
      </trkpt>
      <trkpt lat="43.60628" lon="6.2915">
        <ele>665.04</ele>
        <time>2016-10-21T09:14:34Z</time>
      </trkpt>
      <trkpt lat="43.60643" lon="6.29152">
        <ele>665.96</ele>
        <time>2016-10-21T09:14:47Z</time>
      </trkpt>
      <trkpt lat="43.60653" lon="6.29146">
        <ele>667.13</ele>
        <time>2016-10-21T09:15:05Z</time>
      </trkpt>
      <trkpt lat="43.60656" lon="6.29144">
        <ele>667.16</ele>
        <time>2016-10-21T09:15:42Z</time>
      </trkpt>
      <trkpt lat="43.60654" lon="6.29147">
        <ele>666.69</ele>
        <time>2016-10-21T09:16:13Z</time>
      </trkpt>
      <trkpt lat="43.60653" lon="6.29145">
        <ele>667.03</ele>
        <time>2016-10-21T09:16:52Z</time>
      </trkpt>
      <trkpt lat="43.60654" lon="6.29146">
        <ele>667.06</ele>
        <time>2016-10-21T09:17:42Z</time>
      </trkpt>
      <trkpt lat="43.60655" lon="6.2914">
        <ele>666.97</ele>
        <time>2016-10-21T09:18:10Z</time>
      </trkpt>
      <trkpt lat="43.6066" lon="6.29128">
        <ele>668.19</ele>
        <time>2016-10-21T09:18:27Z</time>
      </trkpt>
      <trkpt lat="43.60662" lon="6.29127">
        <ele>668.38</ele>
        <time>2016-10-21T09:18:29Z</time>
      </trkpt>
      <trkpt lat="43.60673" lon="6.29119">
        <ele>669.98</ele>
        <time>2016-10-21T09:18:47Z</time>
      </trkpt>
      <trkpt lat="43.60683" lon="6.2911">
        <ele>672.98</ele>
        <time>2016-10-21T09:19:06Z</time>
      </trkpt>
      <trkpt lat="43.60693" lon="6.291">
        <ele>675.65</ele>
        <time>2016-10-21T09:19:25Z</time>
      </trkpt>
      <trkpt lat="43.60701" lon="6.2909">
        <ele>678.8</ele>
        <time>2016-10-21T09:19:42Z</time>
      </trkpt>
      <trkpt lat="43.60708" lon="6.29086">
        <ele>681.57</ele>
        <time>2016-10-21T09:20:05Z</time>
      </trkpt>
      <trkpt lat="43.60706" lon="6.29084">
        <ele>681.96</ele>
        <time>2016-10-21T09:20:38Z</time>
      </trkpt>
      <trkpt lat="43.60718" lon="6.29086">
        <ele>682.4</ele>
        <time>2016-10-21T09:20:56Z</time>
      </trkpt>
      <trkpt lat="43.60734" lon="6.2908">
        <ele>683.11</ele>
        <time>2016-10-21T09:21:12Z</time>
      </trkpt>
      <trkpt lat="43.60742" lon="6.29073">
        <ele>683.56</ele>
        <time>2016-10-21T09:21:24Z</time>
      </trkpt>
      <trkpt lat="43.60754" lon="6.29065">
        <ele>683.88</ele>
        <time>2016-10-21T09:21:39Z</time>
      </trkpt>
      <trkpt lat="43.60764" lon="6.29056">
        <ele>684.14</ele>
        <time>2016-10-21T09:21:49Z</time>
      </trkpt>
      <trkpt lat="43.60769" lon="6.29049">
        <ele>684.45</ele>
        <time>2016-10-21T09:21:55Z</time>
      </trkpt>
      <trkpt lat="43.60776" lon="6.29042">
        <ele>685.21</ele>
        <time>2016-10-21T09:22:03Z</time>
      </trkpt>
      <trkpt lat="43.60788" lon="6.29036">
        <ele>685.38</ele>
        <time>2016-10-21T09:22:19Z</time>
      </trkpt>
      <trkpt lat="43.60807" lon="6.29029">
        <ele>685.56</ele>
        <time>2016-10-21T09:22:36Z</time>
      </trkpt>
      <trkpt lat="43.60812" lon="6.29022">
        <ele>685.97</ele>
        <time>2016-10-21T09:22:43Z</time>
      </trkpt>
      <trkpt lat="43.60815" lon="6.29021">
        <ele>686.09</ele>
        <time>2016-10-21T09:22:45Z</time>
      </trkpt>
      <trkpt lat="43.60818" lon="6.29017">
        <ele>686.3</ele>
        <time>2016-10-21T09:22:49Z</time>
      </trkpt>
      <trkpt lat="43.60833" lon="6.2901">
        <ele>687.48</ele>
        <time>2016-10-21T09:23:06Z</time>
      </trkpt>
      <trkpt lat="43.60853" lon="6.28996">
        <ele>690.17</ele>
        <time>2016-10-21T09:23:26Z</time>
      </trkpt>
      <trkpt lat="43.60859" lon="6.28989">
        <ele>690.89</ele>
        <time>2016-10-21T09:23:34Z</time>
      </trkpt>
      <trkpt lat="43.60862" lon="6.28987">
        <ele>690.76</ele>
        <time>2016-10-21T09:23:37Z</time>
      </trkpt>
      <trkpt lat="43.60871" lon="6.28977">
        <ele>690.84</ele>
        <time>2016-10-21T09:23:48Z</time>
      </trkpt>
      <trkpt lat="43.60883" lon="6.28959">
        <ele>691.16</ele>
        <time>2016-10-21T09:24:04Z</time>
      </trkpt>
      <trkpt lat="43.60898" lon="6.28944">
        <ele>691.47</ele>
        <time>2016-10-21T09:24:21Z</time>
      </trkpt>
      <trkpt lat="43.60908" lon="6.28927">
        <ele>691.6</ele>
        <time>2016-10-21T09:24:34Z</time>
      </trkpt>
      <trkpt lat="43.60912" lon="6.28921">
        <ele>691.73</ele>
        <time>2016-10-21T09:24:39Z</time>
      </trkpt>
      <trkpt lat="43.60925" lon="6.28915">
        <ele>691.82</ele>
        <time>2016-10-21T09:24:52Z</time>
      </trkpt>
      <trkpt lat="43.60937" lon="6.28911">
        <ele>692.45</ele>
        <time>2016-10-21T09:25:08Z</time>
      </trkpt>
      <trkpt lat="43.60939" lon="6.28908">
        <ele>692.96</ele>
        <time>2016-10-21T09:25:40Z</time>
      </trkpt>
      <trkpt lat="43.60946" lon="6.28902">
        <ele>692.85</ele>
        <time>2016-10-21T09:26:08Z</time>
      </trkpt>
      <trkpt lat="43.60963" lon="6.28895">
        <ele>692.36</ele>
        <time>2016-10-21T09:26:25Z</time>
      </trkpt>
      <trkpt lat="43.60978" lon="6.28891">
        <ele>690.66</ele>
        <time>2016-10-21T09:26:40Z</time>
      </trkpt>
      <trkpt lat="43.60993" lon="6.28887">
        <ele>689.87</ele>
        <time>2016-10-21T09:26:54Z</time>
      </trkpt>
      <trkpt lat="43.61002" lon="6.28885">
        <ele>690.75</ele>
        <time>2016-10-21T09:27:11Z</time>
      </trkpt>
      <trkpt lat="43.61006" lon="6.28884">
        <ele>690.96</ele>
        <time>2016-10-21T09:27:38Z</time>
      </trkpt>
      <trkpt lat="43.61007" lon="6.28885">
        <ele>691.36</ele>
        <time>2016-10-21T09:28:04Z</time>
      </trkpt>
      <trkpt lat="43.61021" lon="6.28879">
        <ele>691.54</ele>
        <time>2016-10-21T09:28:25Z</time>
      </trkpt>
      <trkpt lat="43.61034" lon="6.28872">
        <ele>692.24</ele>
        <time>2016-10-21T09:28:41Z</time>
      </trkpt>
      <trkpt lat="43.6105" lon="6.28863">
        <ele>694.12</ele>
        <time>2016-10-21T09:29:02Z</time>
      </trkpt>
      <trkpt lat="43.61054" lon="6.28862">
        <ele>695.08</ele>
        <time>2016-10-21T09:29:26Z</time>
      </trkpt>
      <trkpt lat="43.61056" lon="6.28861">
        <ele>694.98</ele>
        <time>2016-10-21T09:29:54Z</time>
      </trkpt>
      <trkpt lat="43.61058" lon="6.28858">
        <ele>694.97</ele>
        <time>2016-10-21T09:30:17Z</time>
      </trkpt>
      <trkpt lat="43.61075" lon="6.28848">
        <ele>695.95</ele>
        <time>2016-10-21T09:30:35Z</time>
      </trkpt>
      <trkpt lat="43.61086" lon="6.2884">
        <ele>696.77</ele>
        <time>2016-10-21T09:30:46Z</time>
      </trkpt>
      <trkpt lat="43.6109" lon="6.28837">
        <ele>696.82</ele>
        <time>2016-10-21T09:30:51Z</time>
      </trkpt>
      <trkpt lat="43.61097" lon="6.28834">
        <ele>696.89</ele>
        <time>2016-10-21T09:30:56Z</time>
      </trkpt>
      <trkpt lat="43.61116" lon="6.2883">
        <ele>697.56</ele>
        <time>2016-10-21T09:31:13Z</time>
      </trkpt>
      <trkpt lat="43.61132" lon="6.28823">
        <ele>698.97</ele>
        <time>2016-10-21T09:31:29Z</time>
      </trkpt>
      <trkpt lat="43.61137" lon="6.28814">
        <ele>699.27</ele>
        <time>2016-10-21T09:31:51Z</time>
      </trkpt>
      <trkpt lat="43.61138" lon="6.28812">
        <ele>699.74</ele>
        <time>2016-10-21T09:32:17Z</time>
      </trkpt>
      <trkpt lat="43.61139" lon="6.28813">
        <ele>699.67</ele>
        <time>2016-10-21T09:32:48Z</time>
      </trkpt>
      <trkpt lat="43.6114" lon="6.28813">
        <ele>699.7</ele>
        <time>2016-10-21T09:33:14Z</time>
      </trkpt>
      <trkpt lat="43.61146" lon="6.28815">
        <ele>699.75</ele>
        <time>2016-10-21T09:33:37Z</time>
      </trkpt>
      <trkpt lat="43.61154" lon="6.28816">
        <ele>699.5</ele>
        <time>2016-10-21T09:33:53Z</time>
      </trkpt>
      <trkpt lat="43.61174" lon="6.28816">
        <ele>698.57</ele>
        <time>2016-10-21T09:34:11Z</time>
      </trkpt>
      <trkpt lat="43.61187" lon="6.28818">
        <ele>697.63</ele>
        <time>2016-10-21T09:34:28Z</time>
      </trkpt>
      <trkpt lat="43.61201" lon="6.28831">
        <ele>697.07</ele>
        <time>2016-10-21T09:34:47Z</time>
      </trkpt>
      <trkpt lat="43.61204" lon="6.28835">
        <ele>696.73</ele>
        <time>2016-10-21T09:35:09Z</time>
      </trkpt>
      <trkpt lat="43.61222" lon="6.28832">
        <ele>698.08</ele>
        <time>2016-10-21T09:35:29Z</time>
      </trkpt>
      <trkpt lat="43.61232" lon="6.28818">
        <ele>698.93</ele>
        <time>2016-10-21T09:35:46Z</time>
      </trkpt>
      <trkpt lat="43.61243" lon="6.288">
        <ele>699.88</ele>
        <time>2016-10-21T09:36:04Z</time>
      </trkpt>
      <trkpt lat="43.61251" lon="6.28787">
        <ele>701.17</ele>
        <time>2016-10-21T09:36:18Z</time>
      </trkpt>
      <trkpt lat="43.61258" lon="6.28771">
        <ele>702.43</ele>
        <time>2016-10-21T09:36:32Z</time>
      </trkpt>
      <trkpt lat="43.61268" lon="6.28754">
        <ele>704.09</ele>
        <time>2016-10-21T09:36:50Z</time>
      </trkpt>
      <trkpt lat="43.61273" lon="6.28739">
        <ele>705.44</ele>
        <time>2016-10-21T09:37:04Z</time>
      </trkpt>
      <trkpt lat="43.61282" lon="6.28726">
        <ele>707.18</ele>
        <time>2016-10-21T09:37:19Z</time>
      </trkpt>
      <trkpt lat="43.61288" lon="6.28704">
        <ele>709.57</ele>
        <time>2016-10-21T09:37:38Z</time>
      </trkpt>
      <trkpt lat="43.61301" lon="6.28706">
        <ele>711.99</ele>
        <time>2016-10-21T09:37:59Z</time>
      </trkpt>
      <trkpt lat="43.61317" lon="6.28709">
        <ele>714.69</ele>
        <time>2016-10-21T09:38:22Z</time>
      </trkpt>
      <trkpt lat="43.6133" lon="6.28709">
        <ele>716.32</ele>
        <time>2016-10-21T09:38:39Z</time>
      </trkpt>
      <trkpt lat="43.61343" lon="6.28697">
        <ele>718.62</ele>
        <time>2016-10-21T09:38:57Z</time>
      </trkpt>
      <trkpt lat="43.61349" lon="6.28677">
        <ele>721.4</ele>
        <time>2016-10-21T09:39:19Z</time>
      </trkpt>
      <trkpt lat="43.61355" lon="6.28662">
        <ele>722.55</ele>
        <time>2016-10-21T09:39:38Z</time>
      </trkpt>
      <trkpt lat="43.61365" lon="6.28654">
        <ele>724.26</ele>
        <time>2016-10-21T09:39:58Z</time>
      </trkpt>
      <trkpt lat="43.61373" lon="6.2867">
        <ele>725.44</ele>
        <time>2016-10-21T09:40:15Z</time>
      </trkpt>
      <trkpt lat="43.61382" lon="6.28688">
        <ele>726.4</ele>
        <time>2016-10-21T09:40:30Z</time>
      </trkpt>
      <trkpt lat="43.6139" lon="6.28709">
        <ele>727</ele>
        <time>2016-10-21T09:40:46Z</time>
      </trkpt>
      <trkpt lat="43.61398" lon="6.28731">
        <ele>729.14</ele>
        <time>2016-10-21T09:41:01Z</time>
      </trkpt>
      <trkpt lat="43.614" lon="6.28737">
        <ele>729.74</ele>
        <time>2016-10-21T09:41:05Z</time>
      </trkpt>
      <trkpt lat="43.61407" lon="6.28748">
        <ele>730.52</ele>
        <time>2016-10-21T09:41:12Z</time>
      </trkpt>
      <trkpt lat="43.61416" lon="6.28762">
        <ele>730.37</ele>
        <time>2016-10-21T09:41:22Z</time>
      </trkpt>
      <trkpt lat="43.61431" lon="6.28766">
        <ele>730.71</ele>
        <time>2016-10-21T09:41:36Z</time>
      </trkpt>
      <trkpt lat="43.61436" lon="6.28769">
        <ele>731.28</ele>
        <time>2016-10-21T09:41:41Z</time>
      </trkpt>
      <trkpt lat="43.61452" lon="6.28771">
        <ele>732.16</ele>
        <time>2016-10-21T09:41:53Z</time>
      </trkpt>
      <trkpt lat="43.61464" lon="6.28772">
        <ele>733</ele>
        <time>2016-10-21T09:42:03Z</time>
      </trkpt>
      <trkpt lat="43.61486" lon="6.28769">
        <ele>734.15</ele>
        <time>2016-10-21T09:42:19Z</time>
      </trkpt>
      <trkpt lat="43.61496" lon="6.28768">
        <ele>734.35</ele>
        <time>2016-10-21T09:42:29Z</time>
      </trkpt>
      <trkpt lat="43.61505" lon="6.28775">
        <ele>734.43</ele>
        <time>2016-10-21T09:42:38Z</time>
      </trkpt>
      <trkpt lat="43.61517" lon="6.28795">
        <ele>733.74</ele>
        <time>2016-10-21T09:42:52Z</time>
      </trkpt>
      <trkpt lat="43.61522" lon="6.28799">
        <ele>733.38</ele>
        <time>2016-10-21T09:42:56Z</time>
      </trkpt>
      <trkpt lat="43.61529" lon="6.28806">
        <ele>733.16</ele>
        <time>2016-10-21T09:43:03Z</time>
      </trkpt>
      <trkpt lat="43.61532" lon="6.28809">
        <ele>733.13</ele>
        <time>2016-10-21T09:43:06Z</time>
      </trkpt>
      <trkpt lat="43.61543" lon="6.28819">
        <ele>732.83</ele>
        <time>2016-10-21T09:43:17Z</time>
      </trkpt>
      <trkpt lat="43.61549" lon="6.28819">
        <ele>732.88</ele>
        <time>2016-10-21T09:43:20Z</time>
      </trkpt>
      <trkpt lat="43.61553" lon="6.2882">
        <ele>733.01</ele>
        <time>2016-10-21T09:43:23Z</time>
      </trkpt>
      <trkpt lat="43.61568" lon="6.28819">
        <ele>733.78</ele>
        <time>2016-10-21T09:43:36Z</time>
      </trkpt>
      <trkpt lat="43.61585" lon="6.28816">
        <ele>734.11</ele>
        <time>2016-10-21T09:43:57Z</time>
      </trkpt>
      <trkpt lat="43.61599" lon="6.2881">
        <ele>733.27</ele>
        <time>2016-10-21T09:44:18Z</time>
      </trkpt>
      <trkpt lat="43.61612" lon="6.28807">
        <ele>733.3</ele>
        <time>2016-10-21T09:44:39Z</time>
      </trkpt>
      <trkpt lat="43.61629" lon="6.28794">
        <ele>735.22</ele>
        <time>2016-10-21T09:45:02Z</time>
      </trkpt>
      <trkpt lat="43.61641" lon="6.28792">
        <ele>736.09</ele>
        <time>2016-10-21T09:45:11Z</time>
      </trkpt>
      <trkpt lat="43.6166" lon="6.28788">
        <ele>738.8</ele>
        <time>2016-10-21T09:45:36Z</time>
      </trkpt>
      <trkpt lat="43.61687" lon="6.28789">
        <ele>740.48</ele>
        <time>2016-10-21T09:45:57Z</time>
      </trkpt>
      <trkpt lat="43.61712" lon="6.28785">
        <ele>742.48</ele>
        <time>2016-10-21T09:46:17Z</time>
      </trkpt>
      <trkpt lat="43.61742" lon="6.28782">
        <ele>744.58</ele>
        <time>2016-10-21T09:46:38Z</time>
      </trkpt>
      <trkpt lat="43.61766" lon="6.28774">
        <ele>745.6</ele>
        <time>2016-10-21T09:46:57Z</time>
      </trkpt>
      <trkpt lat="43.61789" lon="6.28759">
        <ele>747.13</ele>
        <time>2016-10-21T09:47:17Z</time>
      </trkpt>
      <trkpt lat="43.61808" lon="6.28749">
        <ele>749.22</ele>
        <time>2016-10-21T09:47:41Z</time>
      </trkpt>
      <trkpt lat="43.61815" lon="6.28743">
        <ele>751.66</ele>
        <time>2016-10-21T09:47:57Z</time>
      </trkpt>
      <trkpt lat="43.61835" lon="6.28729">
        <ele>753.66</ele>
        <time>2016-10-21T09:48:21Z</time>
      </trkpt>
      <trkpt lat="43.61855" lon="6.2873">
        <ele>754.33</ele>
        <time>2016-10-21T09:48:34Z</time>
      </trkpt>
      <trkpt lat="43.6187" lon="6.28715">
        <ele>755.53</ele>
        <time>2016-10-21T09:48:53Z</time>
      </trkpt>
      <trkpt lat="43.61882" lon="6.28692">
        <ele>757.89</ele>
        <time>2016-10-21T09:49:18Z</time>
      </trkpt>
      <trkpt lat="43.61902" lon="6.28677">
        <ele>760.97</ele>
        <time>2016-10-21T09:49:40Z</time>
      </trkpt>
      <trkpt lat="43.61904" lon="6.28654">
        <ele>763.69</ele>
        <time>2016-10-21T09:50:01Z</time>
      </trkpt>
      <trkpt lat="43.61901" lon="6.28631">
        <ele>765.89</ele>
        <time>2016-10-21T09:50:21Z</time>
      </trkpt>
      <trkpt lat="43.61912" lon="6.2862">
        <ele>768.55</ele>
        <time>2016-10-21T09:50:44Z</time>
      </trkpt>
      <trkpt lat="43.61917" lon="6.28612">
        <ele>770.22</ele>
        <time>2016-10-21T09:50:58Z</time>
      </trkpt>
      <trkpt lat="43.61922" lon="6.28603">
        <ele>771.92</ele>
        <time>2016-10-21T09:51:15Z</time>
      </trkpt>
      <trkpt lat="43.61919" lon="6.28592">
        <ele>773.29</ele>
        <time>2016-10-21T09:51:27Z</time>
      </trkpt>
      <trkpt lat="43.61929" lon="6.2858">
        <ele>776.5</ele>
        <time>2016-10-21T09:51:50Z</time>
      </trkpt>
      <trkpt lat="43.61922" lon="6.28556">
        <ele>778.96</ele>
        <time>2016-10-21T09:52:10Z</time>
      </trkpt>
      <trkpt lat="43.61927" lon="6.28538">
        <ele>781.93</ele>
        <time>2016-10-21T09:52:30Z</time>
      </trkpt>
      <trkpt lat="43.61935" lon="6.28521">
        <ele>784.63</ele>
        <time>2016-10-21T09:52:53Z</time>
      </trkpt>
      <trkpt lat="43.61936" lon="6.28499">
        <ele>786.95</ele>
        <time>2016-10-21T09:53:13Z</time>
      </trkpt>
      <trkpt lat="43.61932" lon="6.28486">
        <ele>787.47</ele>
        <time>2016-10-21T09:53:33Z</time>
      </trkpt>
      <trkpt lat="43.61934" lon="6.28484">
        <ele>787.49</ele>
        <time>2016-10-21T09:53:59Z</time>
      </trkpt>
      <trkpt lat="43.6194" lon="6.28477">
        <ele>787.8</ele>
        <time>2016-10-21T09:54:19Z</time>
      </trkpt>
      <trkpt lat="43.61956" lon="6.28465">
        <ele>790.86</ele>
        <time>2016-10-21T09:54:41Z</time>
      </trkpt>
      <trkpt lat="43.61971" lon="6.2846">
        <ele>793.93</ele>
        <time>2016-10-21T09:54:59Z</time>
      </trkpt>
      <trkpt lat="43.61977" lon="6.28451">
        <ele>796.7</ele>
        <time>2016-10-21T09:55:17Z</time>
      </trkpt>
      <trkpt lat="43.61975" lon="6.28448">
        <ele>797.14</ele>
        <time>2016-10-21T09:55:20Z</time>
      </trkpt>
      <trkpt lat="43.61992" lon="6.28443">
        <ele>800.01</ele>
        <time>2016-10-21T09:55:40Z</time>
      </trkpt>
      <trkpt lat="43.61998" lon="6.28437">
        <ele>799.8</ele>
        <time>2016-10-21T09:56:08Z</time>
      </trkpt>
      <trkpt lat="43.61973" lon="6.28403">
        <ele>802.26</ele>
        <time>2016-10-21T09:56:30Z</time>
      </trkpt>
      <trkpt lat="43.61967" lon="6.28397">
        <ele>802.65</ele>
        <time>2016-10-21T09:56:34Z</time>
      </trkpt>
      <trkpt lat="43.61948" lon="6.28378">
        <ele>804.41</ele>
        <time>2016-10-21T09:56:58Z</time>
      </trkpt>
      <trkpt lat="43.61929" lon="6.28354">
        <ele>807.1</ele>
        <time>2016-10-21T09:57:19Z</time>
      </trkpt>
      <trkpt lat="43.61917" lon="6.28354">
        <ele>810.07</ele>
        <time>2016-10-21T09:57:39Z</time>
      </trkpt>
      <trkpt lat="43.61907" lon="6.28361">
        <ele>812.36</ele>
        <time>2016-10-21T09:57:56Z</time>
      </trkpt>
      <trkpt lat="43.61893" lon="6.28367">
        <ele>815.37</ele>
        <time>2016-10-21T09:58:13Z</time>
      </trkpt>
      <trkpt lat="43.619" lon="6.2835">
        <ele>818.12</ele>
        <time>2016-10-21T09:58:31Z</time>
      </trkpt>
      <trkpt lat="43.61909" lon="6.28335">
        <ele>821.18</ele>
        <time>2016-10-21T09:58:48Z</time>
      </trkpt>
      <trkpt lat="43.61915" lon="6.28314">
        <ele>823.51</ele>
        <time>2016-10-21T09:59:07Z</time>
      </trkpt>
      <trkpt lat="43.61919" lon="6.28289">
        <ele>826.49</ele>
        <time>2016-10-21T09:59:30Z</time>
      </trkpt>
      <trkpt lat="43.61932" lon="6.2827">
        <ele>827.95</ele>
        <time>2016-10-21T09:59:49Z</time>
      </trkpt>
      <trkpt lat="43.61934" lon="6.28267">
        <ele>828.18</ele>
        <time>2016-10-21T09:59:52Z</time>
      </trkpt>
      <trkpt lat="43.61946" lon="6.28259">
        <ele>828.69</ele>
        <time>2016-10-21T10:00:05Z</time>
      </trkpt>
      <trkpt lat="43.61957" lon="6.28267">
        <ele>830.4</ele>
        <time>2016-10-21T10:00:19Z</time>
      </trkpt>
      <trkpt lat="43.61959" lon="6.28269">
        <ele>830.75</ele>
        <time>2016-10-21T10:00:21Z</time>
      </trkpt>
      <trkpt lat="43.61972" lon="6.28283">
        <ele>833.14</ele>
        <time>2016-10-21T10:00:37Z</time>
      </trkpt>
      <trkpt lat="43.61987" lon="6.28292">
        <ele>835.53</ele>
        <time>2016-10-21T10:01:00Z</time>
      </trkpt>
      <trkpt lat="43.62003" lon="6.28302">
        <ele>837.37</ele>
        <time>2016-10-21T10:01:17Z</time>
      </trkpt>
      <trkpt lat="43.62021" lon="6.2831">
        <ele>840.05</ele>
        <time>2016-10-21T10:01:35Z</time>
      </trkpt>
      <trkpt lat="43.62037" lon="6.28318">
        <ele>842.97</ele>
        <time>2016-10-21T10:01:55Z</time>
      </trkpt>
      <trkpt lat="43.6205" lon="6.28311">
        <ele>844.97</ele>
        <time>2016-10-21T10:02:11Z</time>
      </trkpt>
      <trkpt lat="43.62052" lon="6.2831">
        <ele>845.22</ele>
        <time>2016-10-21T10:02:13Z</time>
      </trkpt>
      <trkpt lat="43.62064" lon="6.283">
        <ele>845.97</ele>
        <time>2016-10-21T10:02:27Z</time>
      </trkpt>
      <trkpt lat="43.62078" lon="6.28295">
        <ele>845.24</ele>
        <time>2016-10-21T10:02:44Z</time>
      </trkpt>
      <trkpt lat="43.62087" lon="6.28295">
        <ele>845.41</ele>
        <time>2016-10-21T10:03:01Z</time>
      </trkpt>
      <trkpt lat="43.62093" lon="6.28289">
        <ele>845.43</ele>
        <time>2016-10-21T10:03:22Z</time>
      </trkpt>
      <trkpt lat="43.62097" lon="6.28274">
        <ele>848.42</ele>
        <time>2016-10-21T10:03:44Z</time>
      </trkpt>
      <trkpt lat="43.62099" lon="6.28262">
        <ele>851.45</ele>
        <time>2016-10-21T10:04:00Z</time>
      </trkpt>
      <trkpt lat="43.62103" lon="6.28253">
        <ele>854.5</ele>
        <time>2016-10-21T10:04:17Z</time>
      </trkpt>
      <trkpt lat="43.62111" lon="6.28248">
        <ele>857.54</ele>
        <time>2016-10-21T10:04:37Z</time>
      </trkpt>
      <trkpt lat="43.62122" lon="6.28253">
        <ele>858.99</ele>
        <time>2016-10-21T10:04:54Z</time>
      </trkpt>
      <trkpt lat="43.62134" lon="6.2826">
        <ele>858.55</ele>
        <time>2016-10-21T10:05:10Z</time>
      </trkpt>
      <trkpt lat="43.62152" lon="6.28248">
        <ele>858.62</ele>
        <time>2016-10-21T10:05:26Z</time>
      </trkpt>
      <trkpt lat="43.62165" lon="6.28241">
        <ele>859.24</ele>
        <time>2016-10-21T10:05:42Z</time>
      </trkpt>
      <trkpt lat="43.62182" lon="6.28234">
        <ele>860.55</ele>
        <time>2016-10-21T10:06:07Z</time>
      </trkpt>
      <trkpt lat="43.6219" lon="6.28234">
        <ele>861.06</ele>
        <time>2016-10-21T10:06:14Z</time>
      </trkpt>
      <trkpt lat="43.62194" lon="6.28236">
        <ele>861.16</ele>
        <time>2016-10-21T10:06:17Z</time>
      </trkpt>
      <trkpt lat="43.62208" lon="6.28236">
        <ele>861.45</ele>
        <time>2016-10-21T10:06:30Z</time>
      </trkpt>
      <trkpt lat="43.62214" lon="6.28232">
        <ele>862.31</ele>
        <time>2016-10-21T10:06:46Z</time>
      </trkpt>
      <trkpt lat="43.62219" lon="6.28232">
        <ele>862.63</ele>
        <time>2016-10-21T10:07:12Z</time>
      </trkpt>
      <trkpt lat="43.62217" lon="6.28232">
        <ele>862.56</ele>
        <time>2016-10-21T10:07:36Z</time>
      </trkpt>
      <trkpt lat="43.62212" lon="6.28235">
        <ele>862.51</ele>
        <time>2016-10-21T10:08:01Z</time>
      </trkpt>
      <trkpt lat="43.62211" lon="6.28234">
        <ele>862.28</ele>
        <time>2016-10-21T10:08:29Z</time>
      </trkpt>
      <trkpt lat="43.62207" lon="6.28234">
        <ele>862.45</ele>
        <time>2016-10-21T10:08:44Z</time>
      </trkpt>
      <trkpt lat="43.62193" lon="6.28232">
        <ele>861.5</ele>
        <time>2016-10-21T10:09:02Z</time>
      </trkpt>
      <trkpt lat="43.62172" lon="6.28231">
        <ele>860.32</ele>
        <time>2016-10-21T10:09:27Z</time>
      </trkpt>
      <trkpt lat="43.62155" lon="6.28244">
        <ele>858.56</ele>
        <time>2016-10-21T10:09:46Z</time>
      </trkpt>
      <trkpt lat="43.62137" lon="6.28251">
        <ele>858.73</ele>
        <time>2016-10-21T10:10:06Z</time>
      </trkpt>
      <trkpt lat="43.62119" lon="6.28248">
        <ele>857.52</ele>
        <time>2016-10-21T10:10:26Z</time>
      </trkpt>
      <trkpt lat="43.62107" lon="6.28245">
        <ele>854.48</ele>
        <time>2016-10-21T10:10:44Z</time>
      </trkpt>
      <trkpt lat="43.62106" lon="6.28246">
        <ele>854.3</ele>
        <time>2016-10-21T10:10:45Z</time>
      </trkpt>
      <trkpt lat="43.62104" lon="6.28262">
        <ele>852.18</ele>
        <time>2016-10-21T10:11:09Z</time>
      </trkpt>
      <trkpt lat="43.62109" lon="6.2827">
        <ele>852.83</ele>
        <time>2016-10-21T10:11:30Z</time>
      </trkpt>
      <trkpt lat="43.62116" lon="6.28271">
        <ele>853.93</ele>
        <time>2016-10-21T10:11:47Z</time>
      </trkpt>
      <trkpt lat="43.62122" lon="6.28271">
        <ele>854.72</ele>
        <time>2016-10-21T10:12:10Z</time>
      </trkpt>
      <trkpt lat="43.62122" lon="6.28276">
        <ele>854.94</ele>
        <time>2016-10-21T10:12:36Z</time>
      </trkpt>
      <trkpt lat="43.62126" lon="6.28275">
        <ele>854.42</ele>
        <time>2016-10-21T10:13:02Z</time>
      </trkpt>
      <trkpt lat="43.62122" lon="6.28272">
        <ele>854.59</ele>
        <time>2016-10-21T10:13:35Z</time>
      </trkpt>
      <trkpt lat="43.62121" lon="6.28276">
        <ele>855.21</ele>
        <time>2016-10-21T10:14:01Z</time>
      </trkpt>
      <trkpt lat="43.62119" lon="6.28275">
        <ele>855.17</ele>
        <time>2016-10-21T10:14:26Z</time>
      </trkpt>
      <trkpt lat="43.6212" lon="6.28275">
        <ele>854.9</ele>
        <time>2016-10-21T10:14:55Z</time>
      </trkpt>
      <trkpt lat="43.6212" lon="6.28272">
        <ele>854.7</ele>
        <time>2016-10-21T10:15:27Z</time>
      </trkpt>
      <trkpt lat="43.62124" lon="6.28274">
        <ele>854.67</ele>
        <time>2016-10-21T10:15:57Z</time>
      </trkpt>
      <trkpt lat="43.62124" lon="6.28271">
        <ele>854.31</ele>
        <time>2016-10-21T10:16:31Z</time>
      </trkpt>
      <trkpt lat="43.62125" lon="6.28272">
        <ele>854.15</ele>
        <time>2016-10-21T10:17:02Z</time>
      </trkpt>
      <trkpt lat="43.62127" lon="6.28273">
        <ele>854.38</ele>
        <time>2016-10-21T10:17:34Z</time>
      </trkpt>
      <trkpt lat="43.62125" lon="6.2827">
        <ele>854.49</ele>
        <time>2016-10-21T10:18:04Z</time>
      </trkpt>
      <trkpt lat="43.62124" lon="6.28269">
        <ele>854.01</ele>
        <time>2016-10-21T10:18:32Z</time>
      </trkpt>
      <trkpt lat="43.62124" lon="6.28271">
        <ele>853.88</ele>
        <time>2016-10-21T10:19:15Z</time>
      </trkpt>
      <trkpt lat="43.62123" lon="6.2827">
        <ele>854.06</ele>
        <time>2016-10-21T10:19:46Z</time>
      </trkpt>
      <trkpt lat="43.62118" lon="6.28268">
        <ele>854.19</ele>
        <time>2016-10-21T10:20:15Z</time>
      </trkpt>
      <trkpt lat="43.62122" lon="6.28267">
        <ele>854.19</ele>
        <time>2016-10-21T10:20:44Z</time>
      </trkpt>
      <trkpt lat="43.62125" lon="6.2827">
        <ele>854.31</ele>
        <time>2016-10-21T10:21:23Z</time>
      </trkpt>
      <trkpt lat="43.62121" lon="6.28273">
        <ele>854.36</ele>
        <time>2016-10-21T10:22:02Z</time>
      </trkpt>
      <trkpt lat="43.62118" lon="6.28272">
        <ele>854.5</ele>
        <time>2016-10-21T10:22:33Z</time>
      </trkpt>
      <trkpt lat="43.62122" lon="6.28267">
        <ele>854.67</ele>
        <time>2016-10-21T10:23:06Z</time>
      </trkpt>
      <trkpt lat="43.62128" lon="6.28268">
        <ele>854.57</ele>
        <time>2016-10-21T10:23:33Z</time>
      </trkpt>
      <trkpt lat="43.62125" lon="6.28267">
        <ele>854.35</ele>
        <time>2016-10-21T10:24:04Z</time>
      </trkpt>
      <trkpt lat="43.62127" lon="6.28271">
        <ele>854.38</ele>
        <time>2016-10-21T10:24:38Z</time>
      </trkpt>
      <trkpt lat="43.62124" lon="6.2827">
        <ele>854.42</ele>
        <time>2016-10-21T10:25:16Z</time>
      </trkpt>
      <trkpt lat="43.62122" lon="6.28271">
        <ele>854.41</ele>
        <time>2016-10-21T10:25:46Z</time>
      </trkpt>
      <trkpt lat="43.6212" lon="6.2827">
        <ele>854.53</ele>
        <time>2016-10-21T10:26:15Z</time>
      </trkpt>
      <trkpt lat="43.62124" lon="6.28271">
        <ele>854.55</ele>
        <time>2016-10-21T10:26:47Z</time>
      </trkpt>
      <trkpt lat="43.62123" lon="6.28273">
        <ele>854.38</ele>
        <time>2016-10-21T10:27:23Z</time>
      </trkpt>
      <trkpt lat="43.62121" lon="6.28269">
        <ele>854.56</ele>
        <time>2016-10-21T10:27:58Z</time>
      </trkpt>
      <trkpt lat="43.62122" lon="6.28269">
        <ele>854.3</ele>
        <time>2016-10-21T10:28:30Z</time>
      </trkpt>
      <trkpt lat="43.62127" lon="6.28271">
        <ele>854.3</ele>
        <time>2016-10-21T10:28:59Z</time>
      </trkpt>
      <trkpt lat="43.62125" lon="6.28272">
        <ele>854.44</ele>
        <time>2016-10-21T10:29:25Z</time>
      </trkpt>
      <trkpt lat="43.62125" lon="6.28271">
        <ele>854.26</ele>
        <time>2016-10-21T10:30:01Z</time>
      </trkpt>
      <trkpt lat="43.62122" lon="6.28268">
        <ele>854.4</ele>
        <time>2016-10-21T10:30:31Z</time>
      </trkpt>
      <trkpt lat="43.62122" lon="6.28269">
        <ele>854.29</ele>
        <time>2016-10-21T10:31:05Z</time>
      </trkpt>
      <trkpt lat="43.62124" lon="6.28271">
        <ele>854.29</ele>
        <time>2016-10-21T10:31:36Z</time>
      </trkpt>
      <trkpt lat="43.62126" lon="6.28269">
        <ele>854.47</ele>
        <time>2016-10-21T10:32:10Z</time>
      </trkpt>
      <trkpt lat="43.62124" lon="6.28269">
        <ele>854.16</ele>
        <time>2016-10-21T10:32:44Z</time>
      </trkpt>
      <trkpt lat="43.62124" lon="6.2827">
        <ele>854.32</ele>
        <time>2016-10-21T10:33:11Z</time>
      </trkpt>
      <trkpt lat="43.62124" lon="6.28273">
        <ele>853.6</ele>
        <time>2016-10-21T10:33:40Z</time>
      </trkpt>
      <trkpt lat="43.62124" lon="6.28277">
        <ele>853.62</ele>
        <time>2016-10-21T10:34:08Z</time>
      </trkpt>
      <trkpt lat="43.62122" lon="6.28277">
        <ele>853.89</ele>
        <time>2016-10-21T10:34:33Z</time>
      </trkpt>
      <trkpt lat="43.62121" lon="6.28273">
        <ele>854.76</ele>
        <time>2016-10-21T10:34:57Z</time>
      </trkpt>
      <trkpt lat="43.62122" lon="6.2827">
        <ele>854.82</ele>
        <time>2016-10-21T10:35:35Z</time>
      </trkpt>
      <trkpt lat="43.62122" lon="6.28269">
        <ele>854.43</ele>
        <time>2016-10-21T10:36:07Z</time>
      </trkpt>
      <trkpt lat="43.62123" lon="6.28271">
        <ele>854.29</ele>
        <time>2016-10-21T10:36:46Z</time>
      </trkpt>
      <trkpt lat="43.62121" lon="6.28267">
        <ele>854.31</ele>
        <time>2016-10-21T10:37:32Z</time>
      </trkpt>
      <trkpt lat="43.62126" lon="6.28268">
        <ele>854.4</ele>
        <time>2016-10-21T10:38:19Z</time>
      </trkpt>
      <trkpt lat="43.62124" lon="6.28268">
        <ele>854.11</ele>
        <time>2016-10-21T10:38:50Z</time>
      </trkpt>
      <trkpt lat="43.62122" lon="6.28267">
        <ele>854.26</ele>
        <time>2016-10-21T10:39:21Z</time>
      </trkpt>
      <trkpt lat="43.62119" lon="6.28268">
        <ele>854.16</ele>
        <time>2016-10-21T10:39:49Z</time>
      </trkpt>
      <trkpt lat="43.62123" lon="6.28267">
        <ele>854.57</ele>
        <time>2016-10-21T10:40:21Z</time>
      </trkpt>
      <trkpt lat="43.62126" lon="6.28266">
        <ele>854.44</ele>
        <time>2016-10-21T10:40:48Z</time>
      </trkpt>
      <trkpt lat="43.62122" lon="6.28265">
        <ele>854.55</ele>
        <time>2016-10-21T10:41:18Z</time>
      </trkpt>
      <trkpt lat="43.62122" lon="6.28264">
        <ele>854.15</ele>
        <time>2016-10-21T10:41:46Z</time>
      </trkpt>
      <trkpt lat="43.62122" lon="6.28264">
        <ele>854.04</ele>
        <time>2016-10-21T10:42:15Z</time>
      </trkpt>
      <trkpt lat="43.62117" lon="6.28267">
        <ele>854.09</ele>
        <time>2016-10-21T10:42:46Z</time>
      </trkpt>
      <trkpt lat="43.62118" lon="6.28267">
        <ele>854.19</ele>
        <time>2016-10-21T10:43:20Z</time>
      </trkpt>
      <trkpt lat="43.62117" lon="6.2827">
        <ele>853.8</ele>
        <time>2016-10-21T10:43:50Z</time>
      </trkpt>
      <trkpt lat="43.62116" lon="6.2827">
        <ele>854.45</ele>
        <time>2016-10-21T10:44:20Z</time>
      </trkpt>
      <trkpt lat="43.62115" lon="6.2827">
        <ele>854.44</ele>
        <time>2016-10-21T10:44:50Z</time>
      </trkpt>
      <trkpt lat="43.62118" lon="6.28273">
        <ele>853.82</ele>
        <time>2016-10-21T10:45:10Z</time>
      </trkpt>
      <trkpt lat="43.62114" lon="6.28275">
        <ele>853.08</ele>
        <time>2016-10-21T10:45:31Z</time>
      </trkpt>
      <trkpt lat="43.62105" lon="6.28272">
        <ele>851.51</ele>
        <time>2016-10-21T10:45:53Z</time>
      </trkpt>
      <trkpt lat="43.62098" lon="6.2828">
        <ele>849.41</ele>
        <time>2016-10-21T10:46:11Z</time>
      </trkpt>
      <trkpt lat="43.62095" lon="6.28286">
        <ele>848.02</ele>
        <time>2016-10-21T10:46:20Z</time>
      </trkpt>
      <trkpt lat="43.62082" lon="6.28294">
        <ele>844.77</ele>
        <time>2016-10-21T10:46:34Z</time>
      </trkpt>
      <trkpt lat="43.62068" lon="6.28296">
        <ele>844.32</ele>
        <time>2016-10-21T10:46:50Z</time>
      </trkpt>
      <trkpt lat="43.62055" lon="6.28304">
        <ele>844.99</ele>
        <time>2016-10-21T10:47:11Z</time>
      </trkpt>
      <trkpt lat="43.62041" lon="6.28316">
        <ele>844.57</ele>
        <time>2016-10-21T10:47:35Z</time>
      </trkpt>
      <trkpt lat="43.62028" lon="6.28312">
        <ele>842.12</ele>
        <time>2016-10-21T10:47:55Z</time>
      </trkpt>
      <trkpt lat="43.62022" lon="6.28306">
        <ele>840.61</ele>
        <time>2016-10-21T10:48:10Z</time>
      </trkpt>
      <trkpt lat="43.62018" lon="6.28303">
        <ele>839.64</ele>
        <time>2016-10-21T10:48:31Z</time>
      </trkpt>
      <trkpt lat="43.62008" lon="6.28299">
        <ele>838.42</ele>
        <time>2016-10-21T10:48:53Z</time>
      </trkpt>
      <trkpt lat="43.61991" lon="6.28288">
        <ele>836.18</ele>
        <time>2016-10-21T10:49:10Z</time>
      </trkpt>
      <trkpt lat="43.61975" lon="6.28273">
        <ele>833.06</ele>
        <time>2016-10-21T10:49:28Z</time>
      </trkpt>
      <trkpt lat="43.61971" lon="6.28268">
        <ele>832.2</ele>
        <time>2016-10-21T10:49:34Z</time>
      </trkpt>
      <trkpt lat="43.6197" lon="6.28266">
        <ele>831.89</ele>
        <time>2016-10-21T10:49:36Z</time>
      </trkpt>
      <trkpt lat="43.61959" lon="6.28249">
        <ele>829.87</ele>
        <time>2016-10-21T10:49:55Z</time>
      </trkpt>
      <trkpt lat="43.61949" lon="6.28239">
        <ele>831.64</ele>
        <time>2016-10-21T10:50:11Z</time>
      </trkpt>
      <trkpt lat="43.61937" lon="6.28232">
        <ele>834.48</ele>
        <time>2016-10-21T10:50:28Z</time>
      </trkpt>
      <trkpt lat="43.6193" lon="6.28223">
        <ele>837.53</ele>
        <time>2016-10-21T10:50:44Z</time>
      </trkpt>
      <trkpt lat="43.61922" lon="6.28216">
        <ele>840.53</ele>
        <time>2016-10-21T10:51:00Z</time>
      </trkpt>
      <trkpt lat="43.61913" lon="6.2821">
        <ele>843.55</ele>
        <time>2016-10-21T10:51:17Z</time>
      </trkpt>
      <trkpt lat="43.61909" lon="6.28199">
        <ele>846.65</ele>
        <time>2016-10-21T10:51:32Z</time>
      </trkpt>
      <trkpt lat="43.61908" lon="6.28187">
        <ele>849.68</ele>
        <time>2016-10-21T10:51:50Z</time>
      </trkpt>
      <trkpt lat="43.6191" lon="6.28184">
        <ele>850.66</ele>
        <time>2016-10-21T10:52:13Z</time>
      </trkpt>
      <trkpt lat="43.61915" lon="6.28166">
        <ele>851.5</ele>
        <time>2016-10-21T10:52:33Z</time>
      </trkpt>
      <trkpt lat="43.61909" lon="6.28154">
        <ele>853.38</ele>
        <time>2016-10-21T10:52:51Z</time>
      </trkpt>
      <trkpt lat="43.61904" lon="6.28153">
        <ele>855</ele>
        <time>2016-10-21T10:53:11Z</time>
      </trkpt>
      <trkpt lat="43.61903" lon="6.28157">
        <ele>856.28</ele>
        <time>2016-10-21T10:53:32Z</time>
      </trkpt>
      <trkpt lat="43.61902" lon="6.28159">
        <ele>856.66</ele>
        <time>2016-10-21T10:54:00Z</time>
      </trkpt>
      <trkpt lat="43.61903" lon="6.2816">
        <ele>856.57</ele>
        <time>2016-10-21T10:54:29Z</time>
      </trkpt>
      <trkpt lat="43.61903" lon="6.28158">
        <ele>856.56</ele>
        <time>2016-10-21T10:54:53Z</time>
      </trkpt>
      <trkpt lat="43.61899" lon="6.28162">
        <ele>856.59</ele>
        <time>2016-10-21T10:55:27Z</time>
      </trkpt>
      <trkpt lat="43.61896" lon="6.28168">
        <ele>856.92</ele>
        <time>2016-10-21T10:55:55Z</time>
      </trkpt>
      <trkpt lat="43.61883" lon="6.28175">
        <ele>858.35</ele>
        <time>2016-10-21T10:56:17Z</time>
      </trkpt>
      <trkpt lat="43.61876" lon="6.28177">
        <ele>859.89</ele>
        <time>2016-10-21T10:56:40Z</time>
      </trkpt>
      <trkpt lat="43.61868" lon="6.28182">
        <ele>862.44</ele>
        <time>2016-10-21T10:57:01Z</time>
      </trkpt>
      <trkpt lat="43.61868" lon="6.28182">
        <ele>863.52</ele>
        <time>2016-10-21T10:57:23Z</time>
      </trkpt>
      <trkpt lat="43.61867" lon="6.28177">
        <ele>863.77</ele>
        <time>2016-10-21T10:57:42Z</time>
      </trkpt>
      <trkpt lat="43.61867" lon="6.28174">
        <ele>863.65</ele>
        <time>2016-10-21T10:58:10Z</time>
      </trkpt>
      <trkpt lat="43.61867" lon="6.28175">
        <ele>863.33</ele>
        <time>2016-10-21T10:58:38Z</time>
      </trkpt>
      <trkpt lat="43.61867" lon="6.28175">
        <ele>863.34</ele>
        <time>2016-10-21T10:59:11Z</time>
      </trkpt>
      <trkpt lat="43.61867" lon="6.28174">
        <ele>863.63</ele>
        <time>2016-10-21T10:59:33Z</time>
      </trkpt>
      <trkpt lat="43.61861" lon="6.28174">
        <ele>863.57</ele>
        <time>2016-10-21T10:59:55Z</time>
      </trkpt>
      <trkpt lat="43.61854" lon="6.28172">
        <ele>863.92</ele>
        <time>2016-10-21T11:00:12Z</time>
      </trkpt>
      <trkpt lat="43.6185" lon="6.28166">
        <ele>864.07</ele>
        <time>2016-10-21T11:00:29Z</time>
      </trkpt>
      <trkpt lat="43.61849" lon="6.28166">
        <ele>863.65</ele>
        <time>2016-10-21T11:00:56Z</time>
      </trkpt>
      <trkpt lat="43.61848" lon="6.28165">
        <ele>863.91</ele>
        <time>2016-10-21T11:01:19Z</time>
      </trkpt>
      <trkpt lat="43.61846" lon="6.28166">
        <ele>863.92</ele>
        <time>2016-10-21T11:02:00Z</time>
      </trkpt>
      <trkpt lat="43.61846" lon="6.28166">
        <ele>863.87</ele>
        <time>2016-10-21T11:02:27Z</time>
      </trkpt>
      <trkpt lat="43.61847" lon="6.28167">
        <ele>863.91</ele>
        <time>2016-10-21T11:02:56Z</time>
      </trkpt>
      <trkpt lat="43.61846" lon="6.28171">
        <ele>864.01</ele>
        <time>2016-10-21T11:03:19Z</time>
      </trkpt>
      <trkpt lat="43.61846" lon="6.28178">
        <ele>864.56</ele>
        <time>2016-10-21T11:03:37Z</time>
      </trkpt>
      <trkpt lat="43.61844" lon="6.28181">
        <ele>865.37</ele>
        <time>2016-10-21T11:04:00Z</time>
      </trkpt>
      <trkpt lat="43.61846" lon="6.28179">
        <ele>865.19</ele>
        <time>2016-10-21T11:04:23Z</time>
      </trkpt>
      <trkpt lat="43.61844" lon="6.28175">
        <ele>864.31</ele>
        <time>2016-10-21T11:04:52Z</time>
      </trkpt>
      <trkpt lat="43.61842" lon="6.28182">
        <ele>864.52</ele>
        <time>2016-10-21T11:05:12Z</time>
      </trkpt>
      <trkpt lat="43.61847" lon="6.28174">
        <ele>864.5</ele>
        <time>2016-10-21T11:05:28Z</time>
      </trkpt>
      <trkpt lat="43.61855" lon="6.28173">
        <ele>863.96</ele>
        <time>2016-10-21T11:05:48Z</time>
      </trkpt>
      <trkpt lat="43.61857" lon="6.28175">
        <ele>863.89</ele>
        <time>2016-10-21T11:06:07Z</time>
      </trkpt>
      <trkpt lat="43.61863" lon="6.28172">
        <ele>863.58</ele>
        <time>2016-10-21T11:06:33Z</time>
      </trkpt>
      <trkpt lat="43.61867" lon="6.28173">
        <ele>863.63</ele>
        <time>2016-10-21T11:06:50Z</time>
      </trkpt>
      <trkpt lat="43.61873" lon="6.28175">
        <ele>862.34</ele>
        <time>2016-10-21T11:07:10Z</time>
      </trkpt>
      <trkpt lat="43.6188" lon="6.28177">
        <ele>860.87</ele>
        <time>2016-10-21T11:07:35Z</time>
      </trkpt>
      <trkpt lat="43.61883" lon="6.28176">
        <ele>859.16</ele>
        <time>2016-10-21T11:07:54Z</time>
      </trkpt>
      <trkpt lat="43.61889" lon="6.28174">
        <ele>858.55</ele>
        <time>2016-10-21T11:08:13Z</time>
      </trkpt>
      <trkpt lat="43.61896" lon="6.28171">
        <ele>857.75</ele>
        <time>2016-10-21T11:08:36Z</time>
      </trkpt>
      <trkpt lat="43.619" lon="6.28163">
        <ele>857.68</ele>
        <time>2016-10-21T11:09:01Z</time>
      </trkpt>
      <trkpt lat="43.61901" lon="6.28157">
        <ele>856.95</ele>
        <time>2016-10-21T11:09:26Z</time>
      </trkpt>
      <trkpt lat="43.61904" lon="6.28155">
        <ele>856.86</ele>
        <time>2016-10-21T11:09:45Z</time>
      </trkpt>
      <trkpt lat="43.61907" lon="6.28154">
        <ele>855.65</ele>
        <time>2016-10-21T11:10:09Z</time>
      </trkpt>
      <trkpt lat="43.61914" lon="6.28162">
        <ele>854.18</ele>
        <time>2016-10-21T11:10:30Z</time>
      </trkpt>
      <trkpt lat="43.61914" lon="6.28164">
        <ele>854</ele>
        <time>2016-10-21T11:10:32Z</time>
      </trkpt>
      <trkpt lat="43.61913" lon="6.28185">
        <ele>851.62</ele>
        <time>2016-10-21T11:10:50Z</time>
      </trkpt>
      <trkpt lat="43.61913" lon="6.28192">
        <ele>850.16</ele>
        <time>2016-10-21T11:11:12Z</time>
      </trkpt>
      <trkpt lat="43.61919" lon="6.28207">
        <ele>847.08</ele>
        <time>2016-10-21T11:11:34Z</time>
      </trkpt>
      <trkpt lat="43.61927" lon="6.28213">
        <ele>844.52</ele>
        <time>2016-10-21T11:11:54Z</time>
      </trkpt>
      <trkpt lat="43.61934" lon="6.28221">
        <ele>841.39</ele>
        <time>2016-10-21T11:12:09Z</time>
      </trkpt>
      <trkpt lat="43.61941" lon="6.28229">
        <ele>838.32</ele>
        <time>2016-10-21T11:12:24Z</time>
      </trkpt>
      <trkpt lat="43.61949" lon="6.28238">
        <ele>835.28</ele>
        <time>2016-10-21T11:12:39Z</time>
      </trkpt>
      <trkpt lat="43.61957" lon="6.28238">
        <ele>833.12</ele>
        <time>2016-10-21T11:12:59Z</time>
      </trkpt>
      <trkpt lat="43.61959" lon="6.2824">
        <ele>832.9</ele>
        <time>2016-10-21T11:13:04Z</time>
      </trkpt>
      <trkpt lat="43.61967" lon="6.28252">
        <ele>831.56</ele>
        <time>2016-10-21T11:13:14Z</time>
      </trkpt>
      <trkpt lat="43.61971" lon="6.28259">
        <ele>832.09</ele>
        <time>2016-10-21T11:13:31Z</time>
      </trkpt>
      <trkpt lat="43.61967" lon="6.28257">
        <ele>831.74</ele>
        <time>2016-10-21T11:13:44Z</time>
      </trkpt>
      <trkpt lat="43.61962" lon="6.28254">
        <ele>831.04</ele>
        <time>2016-10-21T11:14:04Z</time>
      </trkpt>
      <trkpt lat="43.61958" lon="6.28254">
        <ele>830.93</ele>
        <time>2016-10-21T11:14:26Z</time>
      </trkpt>
      <trkpt lat="43.61957" lon="6.28255">
        <ele>830.79</ele>
        <time>2016-10-21T11:14:53Z</time>
      </trkpt>
      <trkpt lat="43.61959" lon="6.28254">
        <ele>830.61</ele>
        <time>2016-10-21T11:15:11Z</time>
      </trkpt>
      <trkpt lat="43.61959" lon="6.28252">
        <ele>830.74</ele>
        <time>2016-10-21T11:15:29Z</time>
      </trkpt>
      <trkpt lat="43.61959" lon="6.28253">
        <ele>830.94</ele>
        <time>2016-10-21T11:15:51Z</time>
      </trkpt>
      <trkpt lat="43.61964" lon="6.2826">
        <ele>831.16</ele>
        <time>2016-10-21T11:16:08Z</time>
      </trkpt>
      <trkpt lat="43.61968" lon="6.28262">
        <ele>831.43</ele>
        <time>2016-10-21T11:16:39Z</time>
      </trkpt>
      <trkpt lat="43.61979" lon="6.2827">
        <ele>833.15</ele>
        <time>2016-10-21T11:16:57Z</time>
      </trkpt>
      <trkpt lat="43.61989" lon="6.2828">
        <ele>835.26</ele>
        <time>2016-10-21T11:17:15Z</time>
      </trkpt>
      <trkpt lat="43.61996" lon="6.28287">
        <ele>836.56</ele>
        <time>2016-10-21T11:17:34Z</time>
      </trkpt>
      <trkpt lat="43.62007" lon="6.28295">
        <ele>838.64</ele>
        <time>2016-10-21T11:17:50Z</time>
      </trkpt>
      <trkpt lat="43.62018" lon="6.28303">
        <ele>840.51</ele>
        <time>2016-10-21T11:18:07Z</time>
      </trkpt>
      <trkpt lat="43.6203" lon="6.2831">
        <ele>842.4</ele>
        <time>2016-10-21T11:18:22Z</time>
      </trkpt>
      <trkpt lat="43.62042" lon="6.28313">
        <ele>844.6</ele>
        <time>2016-10-21T11:18:37Z</time>
      </trkpt>
      <trkpt lat="43.62052" lon="6.28303">
        <ele>846.63</ele>
        <time>2016-10-21T11:18:54Z</time>
      </trkpt>
      <trkpt lat="43.62055" lon="6.28298">
        <ele>846.76</ele>
        <time>2016-10-21T11:19:12Z</time>
      </trkpt>
      <trkpt lat="43.62055" lon="6.28302">
        <ele>846.81</ele>
        <time>2016-10-21T11:19:43Z</time>
      </trkpt>
      <trkpt lat="43.62056" lon="6.28304">
        <ele>846.99</ele>
        <time>2016-10-21T11:20:17Z</time>
      </trkpt>
      <trkpt lat="43.62057" lon="6.28304">
        <ele>846.74</ele>
        <time>2016-10-21T11:20:50Z</time>
      </trkpt>
      <trkpt lat="43.62058" lon="6.28304">
        <ele>846.62</ele>
        <time>2016-10-21T11:21:20Z</time>
      </trkpt>
      <trkpt lat="43.62065" lon="6.28298">
        <ele>846.76</ele>
        <time>2016-10-21T11:21:40Z</time>
      </trkpt>
      <trkpt lat="43.62079" lon="6.28291">
        <ele>846.26</ele>
        <time>2016-10-21T11:21:56Z</time>
      </trkpt>
      <trkpt lat="43.62085" lon="6.28291">
        <ele>846.13</ele>
        <time>2016-10-21T11:22:15Z</time>
      </trkpt>
      <trkpt lat="43.62088" lon="6.28289">
        <ele>846.65</ele>
        <time>2016-10-21T11:22:34Z</time>
      </trkpt>
      <trkpt lat="43.62099" lon="6.2829">
        <ele>846.65</ele>
        <time>2016-10-21T11:22:50Z</time>
      </trkpt>
      <trkpt lat="43.62104" lon="6.28292">
        <ele>847.22</ele>
        <time>2016-10-21T11:23:11Z</time>
      </trkpt>
      <trkpt lat="43.62115" lon="6.28299">
        <ele>848.54</ele>
        <time>2016-10-21T11:23:39Z</time>
      </trkpt>
      <trkpt lat="43.62117" lon="6.28301">
        <ele>848.68</ele>
        <time>2016-10-21T11:23:41Z</time>
      </trkpt>
      <trkpt lat="43.6212" lon="6.28303">
        <ele>848.88</ele>
        <time>2016-10-21T11:23:43Z</time>
      </trkpt>
      <trkpt lat="43.62128" lon="6.28322">
        <ele>850.17</ele>
        <time>2016-10-21T11:23:57Z</time>
      </trkpt>
      <trkpt lat="43.62138" lon="6.28343">
        <ele>850.76</ele>
        <time>2016-10-21T11:24:12Z</time>
      </trkpt>
      <trkpt lat="43.62149" lon="6.28365">
        <ele>851.48</ele>
        <time>2016-10-21T11:24:28Z</time>
      </trkpt>
      <trkpt lat="43.6216" lon="6.28381">
        <ele>852.66</ele>
        <time>2016-10-21T11:24:42Z</time>
      </trkpt>
      <trkpt lat="43.62179" lon="6.28389">
        <ele>854.66</ele>
        <time>2016-10-21T11:24:59Z</time>
      </trkpt>
      <trkpt lat="43.62181" lon="6.2839">
        <ele>854.86</ele>
        <time>2016-10-21T11:25:01Z</time>
      </trkpt>
      <trkpt lat="43.62186" lon="6.2839">
        <ele>855.19</ele>
        <time>2016-10-21T11:25:05Z</time>
      </trkpt>
      <trkpt lat="43.62201" lon="6.28395">
        <ele>855.79</ele>
        <time>2016-10-21T11:25:20Z</time>
      </trkpt>
      <trkpt lat="43.62213" lon="6.28404">
        <ele>856.45</ele>
        <time>2016-10-21T11:25:32Z</time>
      </trkpt>
      <trkpt lat="43.62222" lon="6.28423">
        <ele>856.16</ele>
        <time>2016-10-21T11:25:47Z</time>
      </trkpt>
      <trkpt lat="43.62232" lon="6.28433">
        <ele>856.77</ele>
        <time>2016-10-21T11:25:59Z</time>
      </trkpt>
      <trkpt lat="43.62245" lon="6.28442">
        <ele>858.35</ele>
        <time>2016-10-21T11:26:13Z</time>
      </trkpt>
      <trkpt lat="43.62251" lon="6.2845">
        <ele>859.55</ele>
        <time>2016-10-21T11:26:22Z</time>
      </trkpt>
      <trkpt lat="43.62249" lon="6.28459">
        <ele>861.04</ele>
        <time>2016-10-21T11:26:31Z</time>
      </trkpt>
      <trkpt lat="43.62243" lon="6.28466">
        <ele>862.94</ele>
        <time>2016-10-21T11:26:47Z</time>
      </trkpt>
      <trkpt lat="43.62239" lon="6.28464">
        <ele>862.93</ele>
        <time>2016-10-21T11:27:08Z</time>
      </trkpt>
      <trkpt lat="43.62235" lon="6.28465">
        <ele>862.58</ele>
        <time>2016-10-21T11:27:34Z</time>
      </trkpt>
      <trkpt lat="43.62225" lon="6.2846">
        <ele>862.17</ele>
        <time>2016-10-21T11:27:51Z</time>
      </trkpt>
      <trkpt lat="43.62213" lon="6.28465">
        <ele>860.99</ele>
        <time>2016-10-21T11:28:06Z</time>
      </trkpt>
      <trkpt lat="43.6221" lon="6.28473">
        <ele>860.25</ele>
        <time>2016-10-21T11:28:14Z</time>
      </trkpt>
      <trkpt lat="43.62216" lon="6.28493">
        <ele>859.05</ele>
        <time>2016-10-21T11:28:29Z</time>
      </trkpt>
      <trkpt lat="43.62232" lon="6.28512">
        <ele>858.17</ele>
        <time>2016-10-21T11:28:45Z</time>
      </trkpt>
      <trkpt lat="43.62245" lon="6.2852">
        <ele>859.32</ele>
        <time>2016-10-21T11:29:00Z</time>
      </trkpt>
      <trkpt lat="43.6226" lon="6.28523">
        <ele>861.3</ele>
        <time>2016-10-21T11:29:13Z</time>
      </trkpt>
      <trkpt lat="43.62272" lon="6.28542">
        <ele>863.07</ele>
        <time>2016-10-21T11:29:30Z</time>
      </trkpt>
      <trkpt lat="43.62282" lon="6.28564">
        <ele>863.17</ele>
        <time>2016-10-21T11:29:46Z</time>
      </trkpt>
      <trkpt lat="43.62288" lon="6.28585">
        <ele>865.12</ele>
        <time>2016-10-21T11:30:03Z</time>
      </trkpt>
      <trkpt lat="43.62289" lon="6.28602">
        <ele>865.71</ele>
        <time>2016-10-21T11:30:14Z</time>
      </trkpt>
      <trkpt lat="43.62285" lon="6.28618">
        <ele>866.53</ele>
        <time>2016-10-21T11:30:25Z</time>
      </trkpt>
      <trkpt lat="43.6228" lon="6.28641">
        <ele>868.61</ele>
        <time>2016-10-21T11:30:41Z</time>
      </trkpt>
      <trkpt lat="43.62278" lon="6.28646">
        <ele>869.69</ele>
        <time>2016-10-21T11:30:55Z</time>
      </trkpt>
      <trkpt lat="43.62282" lon="6.28654">
        <ele>869.87</ele>
        <time>2016-10-21T11:31:27Z</time>
      </trkpt>
      <trkpt lat="43.62281" lon="6.28658">
        <ele>869.84</ele>
        <time>2016-10-21T11:31:55Z</time>
      </trkpt>
      <trkpt lat="43.62283" lon="6.28652">
        <ele>870.34</ele>
        <time>2016-10-21T11:32:22Z</time>
      </trkpt>
      <trkpt lat="43.62282" lon="6.28652">
        <ele>870.17</ele>
        <time>2016-10-21T11:32:48Z</time>
      </trkpt>
      <trkpt lat="43.62277" lon="6.28654">
        <ele>870.43</ele>
        <time>2016-10-21T11:33:19Z</time>
      </trkpt>
      <trkpt lat="43.62276" lon="6.28653">
        <ele>870.45</ele>
        <time>2016-10-21T11:33:46Z</time>
      </trkpt>
      <trkpt lat="43.62276" lon="6.28651">
        <ele>870.61</ele>
        <time>2016-10-21T11:34:22Z</time>
      </trkpt>
      <trkpt lat="43.6227" lon="6.28659">
        <ele>870.17</ele>
        <time>2016-10-21T11:34:47Z</time>
      </trkpt>
      <trkpt lat="43.6226" lon="6.28679">
        <ele>870.31</ele>
        <time>2016-10-21T11:35:12Z</time>
      </trkpt>
      <trkpt lat="43.62244" lon="6.28689">
        <ele>868.49</ele>
        <time>2016-10-21T11:35:35Z</time>
      </trkpt>
      <trkpt lat="43.62233" lon="6.28689">
        <ele>867.41</ele>
        <time>2016-10-21T11:35:45Z</time>
      </trkpt>
      <trkpt lat="43.62229" lon="6.2869">
        <ele>866.95</ele>
        <time>2016-10-21T11:35:48Z</time>
      </trkpt>
      <trkpt lat="43.62213" lon="6.28692">
        <ele>863.72</ele>
        <time>2016-10-21T11:36:04Z</time>
      </trkpt>
      <trkpt lat="43.62208" lon="6.28697">
        <ele>862.85</ele>
        <time>2016-10-21T11:36:11Z</time>
      </trkpt>
      <trkpt lat="43.62204" lon="6.2871">
        <ele>862.51</ele>
        <time>2016-10-21T11:36:20Z</time>
      </trkpt>
      <trkpt lat="43.62198" lon="6.28729">
        <ele>862.4</ele>
        <time>2016-10-21T11:36:34Z</time>
      </trkpt>
      <trkpt lat="43.62191" lon="6.28745">
        <ele>861.52</ele>
        <time>2016-10-21T11:36:48Z</time>
      </trkpt>
      <trkpt lat="43.62183" lon="6.28764">
        <ele>860.24</ele>
        <time>2016-10-21T11:37:01Z</time>
      </trkpt>
      <trkpt lat="43.62173" lon="6.28779">
        <ele>859.72</ele>
        <time>2016-10-21T11:37:17Z</time>
      </trkpt>
      <trkpt lat="43.62171" lon="6.2878">
        <ele>859.67</ele>
        <time>2016-10-21T11:37:19Z</time>
      </trkpt>
      <trkpt lat="43.62156" lon="6.28791">
        <ele>858.3</ele>
        <time>2016-10-21T11:37:34Z</time>
      </trkpt>
      <trkpt lat="43.6214" lon="6.28805">
        <ele>857.08</ele>
        <time>2016-10-21T11:37:49Z</time>
      </trkpt>
      <trkpt lat="43.62132" lon="6.2882">
        <ele>856.75</ele>
        <time>2016-10-21T11:38:01Z</time>
      </trkpt>
      <trkpt lat="43.62131" lon="6.28827">
        <ele>856.66</ele>
        <time>2016-10-21T11:38:06Z</time>
      </trkpt>
      <trkpt lat="43.62132" lon="6.28831">
        <ele>856.52</ele>
        <time>2016-10-21T11:38:09Z</time>
      </trkpt>
      <trkpt lat="43.62126" lon="6.28846">
        <ele>856.35</ele>
        <time>2016-10-21T11:38:20Z</time>
      </trkpt>
      <trkpt lat="43.62118" lon="6.28857">
        <ele>856.22</ele>
        <time>2016-10-21T11:38:29Z</time>
      </trkpt>
      <trkpt lat="43.62102" lon="6.28868">
        <ele>856.74</ele>
        <time>2016-10-21T11:38:45Z</time>
      </trkpt>
      <trkpt lat="43.62093" lon="6.28875">
        <ele>858.95</ele>
        <time>2016-10-21T11:39:04Z</time>
      </trkpt>
      <trkpt lat="43.62091" lon="6.28875">
        <ele>859.37</ele>
        <time>2016-10-21T11:39:41Z</time>
      </trkpt>
      <trkpt lat="43.62091" lon="6.28874">
        <ele>859.34</ele>
        <time>2016-10-21T11:40:11Z</time>
      </trkpt>
      <trkpt lat="43.62091" lon="6.28871">
        <ele>859.47</ele>
        <time>2016-10-21T11:40:42Z</time>
      </trkpt>
      <trkpt lat="43.62079" lon="6.28881">
        <ele>861.04</ele>
        <time>2016-10-21T11:41:04Z</time>
      </trkpt>
      <trkpt lat="43.6207" lon="6.28884">
        <ele>862.23</ele>
        <time>2016-10-21T11:41:22Z</time>
      </trkpt>
      <trkpt lat="43.62055" lon="6.28877">
        <ele>863.76</ele>
        <time>2016-10-21T11:41:38Z</time>
      </trkpt>
      <trkpt lat="43.62049" lon="6.28875">
        <ele>864.18</ele>
        <time>2016-10-21T11:41:44Z</time>
      </trkpt>
      <trkpt lat="43.62032" lon="6.28873">
        <ele>864.69</ele>
        <time>2016-10-21T11:41:59Z</time>
      </trkpt>
      <trkpt lat="43.62017" lon="6.28872">
        <ele>865.04</ele>
        <time>2016-10-21T11:42:15Z</time>
      </trkpt>
      <trkpt lat="43.62007" lon="6.28875">
        <ele>864.67</ele>
        <time>2016-10-21T11:42:36Z</time>
      </trkpt>
      <trkpt lat="43.62001" lon="6.28878">
        <ele>864.85</ele>
        <time>2016-10-21T11:42:55Z</time>
      </trkpt>
      <trkpt lat="43.61986" lon="6.28881">
        <ele>862.69</ele>
        <time>2016-10-21T11:43:12Z</time>
      </trkpt>
      <trkpt lat="43.61974" lon="6.28891">
        <ele>859.61</ele>
        <time>2016-10-21T11:43:28Z</time>
      </trkpt>
      <trkpt lat="43.61962" lon="6.28899">
        <ele>857.29</ele>
        <time>2016-10-21T11:43:44Z</time>
      </trkpt>
      <trkpt lat="43.61947" lon="6.2891">
        <ele>854.29</ele>
        <time>2016-10-21T11:44:05Z</time>
      </trkpt>
      <trkpt lat="43.61934" lon="6.28921">
        <ele>851.66</ele>
        <time>2016-10-21T11:44:24Z</time>
      </trkpt>
      <trkpt lat="43.61923" lon="6.28929">
        <ele>848.71</ele>
        <time>2016-10-21T11:44:39Z</time>
      </trkpt>
      <trkpt lat="43.61915" lon="6.2894">
        <ele>845.51</ele>
        <time>2016-10-21T11:44:57Z</time>
      </trkpt>
      <trkpt lat="43.61908" lon="6.28952">
        <ele>842.5</ele>
        <time>2016-10-21T11:45:12Z</time>
      </trkpt>
      <trkpt lat="43.61901" lon="6.28961">
        <ele>840.36</ele>
        <time>2016-10-21T11:45:34Z</time>
      </trkpt>
      <trkpt lat="43.61894" lon="6.28974">
        <ele>837.69</ele>
        <time>2016-10-21T11:45:52Z</time>
      </trkpt>
      <trkpt lat="43.61883" lon="6.28992">
        <ele>834.62</ele>
        <time>2016-10-21T11:46:12Z</time>
      </trkpt>
      <trkpt lat="43.61868" lon="6.29001">
        <ele>831.45</ele>
        <time>2016-10-21T11:46:32Z</time>
      </trkpt>
      <trkpt lat="43.61853" lon="6.29003">
        <ele>828.61</ele>
        <time>2016-10-21T11:46:51Z</time>
      </trkpt>
      <trkpt lat="43.61847" lon="6.29008">
        <ele>827.4</ele>
        <time>2016-10-21T11:47:07Z</time>
      </trkpt>
      <trkpt lat="43.61843" lon="6.2901">
        <ele>826.77</ele>
        <time>2016-10-21T11:47:31Z</time>
      </trkpt>
      <trkpt lat="43.61831" lon="6.29014">
        <ele>825.83</ele>
        <time>2016-10-21T11:47:48Z</time>
      </trkpt>
      <trkpt lat="43.61816" lon="6.29018">
        <ele>823.67</ele>
        <time>2016-10-21T11:48:06Z</time>
      </trkpt>
      <trkpt lat="43.61801" lon="6.29019">
        <ele>822.31</ele>
        <time>2016-10-21T11:48:25Z</time>
      </trkpt>
      <trkpt lat="43.61797" lon="6.29017">
        <ele>821.12</ele>
        <time>2016-10-21T11:48:47Z</time>
      </trkpt>
      <trkpt lat="43.61793" lon="6.29016">
        <ele>820.86</ele>
        <time>2016-10-21T11:49:14Z</time>
      </trkpt>
      <trkpt lat="43.61793" lon="6.29015">
        <ele>820.43</ele>
        <time>2016-10-21T11:49:43Z</time>
      </trkpt>
      <trkpt lat="43.61799" lon="6.29017">
        <ele>820.55</ele>
        <time>2016-10-21T11:49:52Z</time>
      </trkpt>
      <trkpt lat="43.61813" lon="6.29015">
        <ele>822.65</ele>
        <time>2016-10-21T11:50:09Z</time>
      </trkpt>
      <trkpt lat="43.61826" lon="6.2901">
        <ele>823.98</ele>
        <time>2016-10-21T11:50:22Z</time>
      </trkpt>
      <trkpt lat="43.6184" lon="6.29006">
        <ele>826.1</ele>
        <time>2016-10-21T11:50:38Z</time>
      </trkpt>
      <trkpt lat="43.61854" lon="6.28998">
        <ele>828.33</ele>
        <time>2016-10-21T11:50:56Z</time>
      </trkpt>
      <trkpt lat="43.61866" lon="6.28998">
        <ele>831.31</ele>
        <time>2016-10-21T11:51:13Z</time>
      </trkpt>
      <trkpt lat="43.61879" lon="6.2899">
        <ele>833.81</ele>
        <time>2016-10-21T11:51:33Z</time>
      </trkpt>
      <trkpt lat="43.61888" lon="6.28975">
        <ele>836.09</ele>
        <time>2016-10-21T11:51:53Z</time>
      </trkpt>
      <trkpt lat="43.61893" lon="6.28961">
        <ele>839.09</ele>
        <time>2016-10-21T11:52:13Z</time>
      </trkpt>
      <trkpt lat="43.61902" lon="6.28947">
        <ele>842.29</ele>
        <time>2016-10-21T11:52:34Z</time>
      </trkpt>
      <trkpt lat="43.61912" lon="6.28934">
        <ele>845.39</ele>
        <time>2016-10-21T11:52:55Z</time>
      </trkpt>
      <trkpt lat="43.6192" lon="6.28923">
        <ele>848.58</ele>
        <time>2016-10-21T11:53:16Z</time>
      </trkpt>
      <trkpt lat="43.61934" lon="6.28914">
        <ele>851.68</ele>
        <time>2016-10-21T11:53:38Z</time>
      </trkpt>
      <trkpt lat="43.61947" lon="6.28904">
        <ele>854.64</ele>
        <time>2016-10-21T11:53:57Z</time>
      </trkpt>
      <trkpt lat="43.61962" lon="6.28894">
        <ele>857.14</ele>
        <time>2016-10-21T11:54:17Z</time>
      </trkpt>
      <trkpt lat="43.61978" lon="6.28883">
        <ele>860.21</ele>
        <time>2016-10-21T11:54:40Z</time>
      </trkpt>
      <trkpt lat="43.61993" lon="6.28875">
        <ele>863.23</ele>
        <time>2016-10-21T11:55:00Z</time>
      </trkpt>
      <trkpt lat="43.62003" lon="6.28872">
        <ele>865.7</ele>
        <time>2016-10-21T11:55:24Z</time>
      </trkpt>
      <trkpt lat="43.62005" lon="6.28874">
        <ele>866.28</ele>
        <time>2016-10-21T11:55:57Z</time>
      </trkpt>
      <trkpt lat="43.62007" lon="6.28875">
        <ele>866.21</ele>
        <time>2016-10-21T11:56:30Z</time>
      </trkpt>
      <trkpt lat="43.62008" lon="6.28875">
        <ele>866.21</ele>
        <time>2016-10-21T11:56:56Z</time>
      </trkpt>
      <trkpt lat="43.62008" lon="6.28875">
        <ele>866.13</ele>
        <time>2016-10-21T11:57:25Z</time>
      </trkpt>
      <trkpt lat="43.62008" lon="6.28876">
        <ele>865.94</ele>
        <time>2016-10-21T11:57:52Z</time>
      </trkpt>
      <trkpt lat="43.6201" lon="6.28873">
        <ele>866.11</ele>
        <time>2016-10-21T11:58:22Z</time>
      </trkpt>
      <trkpt lat="43.62005" lon="6.28872">
        <ele>866.41</ele>
        <time>2016-10-21T11:58:47Z</time>
      </trkpt>
      <trkpt lat="43.62006" lon="6.28876">
        <ele>866.27</ele>
        <time>2016-10-21T11:59:17Z</time>
      </trkpt>
      <trkpt lat="43.62006" lon="6.28874">
        <ele>866.25</ele>
        <time>2016-10-21T11:59:41Z</time>
      </trkpt>
      <trkpt lat="43.62007" lon="6.2887">
        <ele>865.86</ele>
        <time>2016-10-21T12:00:20Z</time>
      </trkpt>
      <trkpt lat="43.62021" lon="6.28868">
        <ele>866.31</ele>
        <time>2016-10-21T12:00:38Z</time>
      </trkpt>
      <trkpt lat="43.62023" lon="6.28867">
        <ele>866.33</ele>
        <time>2016-10-21T12:00:40Z</time>
      </trkpt>
      <trkpt lat="43.6204" lon="6.28869">
        <ele>866.56</ele>
        <time>2016-10-21T12:00:56Z</time>
      </trkpt>
      <trkpt lat="43.62059" lon="6.28875">
        <ele>865.57</ele>
        <time>2016-10-21T12:01:13Z</time>
      </trkpt>
      <trkpt lat="43.6207" lon="6.2888">
        <ele>864.32</ele>
        <time>2016-10-21T12:01:27Z</time>
      </trkpt>
      <trkpt lat="43.62078" lon="6.28882">
        <ele>863.41</ele>
        <time>2016-10-21T12:01:45Z</time>
      </trkpt>
      <trkpt lat="43.62083" lon="6.28886">
        <ele>863.37</ele>
        <time>2016-10-21T12:02:04Z</time>
      </trkpt>
      <trkpt lat="43.62096" lon="6.2889">
        <ele>862.98</ele>
        <time>2016-10-21T12:02:23Z</time>
      </trkpt>
      <trkpt lat="43.62095" lon="6.28884">
        <ele>862.09</ele>
        <time>2016-10-21T12:02:41Z</time>
      </trkpt>
      <trkpt lat="43.62088" lon="6.28875">
        <ele>861.4</ele>
        <time>2016-10-21T12:02:56Z</time>
      </trkpt>
      <trkpt lat="43.62088" lon="6.28873">
        <ele>860.67</ele>
        <time>2016-10-21T12:03:30Z</time>
      </trkpt>
      <trkpt lat="43.62092" lon="6.28873">
        <ele>861.03</ele>
        <time>2016-10-21T12:04:06Z</time>
      </trkpt>
      <trkpt lat="43.62093" lon="6.28876">
        <ele>861.4</ele>
        <time>2016-10-21T12:04:29Z</time>
      </trkpt>
      <trkpt lat="43.62092" lon="6.28878">
        <ele>861.71</ele>
        <time>2016-10-21T12:05:02Z</time>
      </trkpt>
      <trkpt lat="43.62089" lon="6.28877">
        <ele>861.87</ele>
        <time>2016-10-21T12:05:28Z</time>
      </trkpt>
      <trkpt lat="43.62093" lon="6.28871">
        <ele>860.33</ele>
        <time>2016-10-21T12:05:49Z</time>
      </trkpt>
      <trkpt lat="43.62092" lon="6.28872">
        <ele>860.99</ele>
        <time>2016-10-21T12:06:15Z</time>
      </trkpt>
      <trkpt lat="43.62088" lon="6.28878">
        <ele>861.62</ele>
        <time>2016-10-21T12:06:39Z</time>
      </trkpt>
      <trkpt lat="43.62089" lon="6.28872">
        <ele>861.81</ele>
        <time>2016-10-21T12:07:06Z</time>
      </trkpt>
      <trkpt lat="43.62091" lon="6.28872">
        <ele>860.51</ele>
        <time>2016-10-21T12:07:25Z</time>
      </trkpt>
      <trkpt lat="43.62089" lon="6.28872">
        <ele>860.84</ele>
        <time>2016-10-21T12:07:52Z</time>
      </trkpt>
      <trkpt lat="43.62092" lon="6.2888">
        <ele>861.18</ele>
        <time>2016-10-21T12:08:17Z</time>
      </trkpt>
      <trkpt lat="43.62103" lon="6.28895">
        <ele>862.1</ele>
        <time>2016-10-21T12:08:39Z</time>
      </trkpt>
      <trkpt lat="43.62111" lon="6.28903">
        <ele>861.83</ele>
        <time>2016-10-21T12:08:50Z</time>
      </trkpt>
      <trkpt lat="43.62117" lon="6.28909">
        <ele>861.46</ele>
        <time>2016-10-21T12:08:56Z</time>
      </trkpt>
      <trkpt lat="43.6212" lon="6.28909">
        <ele>861.22</ele>
        <time>2016-10-21T12:08:59Z</time>
      </trkpt>
      <trkpt lat="43.62124" lon="6.28907">
        <ele>861.04</ele>
        <time>2016-10-21T12:09:02Z</time>
      </trkpt>
      <trkpt lat="43.6213" lon="6.28908">
        <ele>860.81</ele>
        <time>2016-10-21T12:09:06Z</time>
      </trkpt>
      <trkpt lat="43.62133" lon="6.28908">
        <ele>860.58</ele>
        <time>2016-10-21T12:09:09Z</time>
      </trkpt>
      <trkpt lat="43.62148" lon="6.28925">
        <ele>859.44</ele>
        <time>2016-10-21T12:09:25Z</time>
      </trkpt>
      <trkpt lat="43.62152" lon="6.28933">
        <ele>858.93</ele>
        <time>2016-10-21T12:09:31Z</time>
      </trkpt>
      <trkpt lat="43.62153" lon="6.28935">
        <ele>858.8</ele>
        <time>2016-10-21T12:09:33Z</time>
      </trkpt>
      <trkpt lat="43.6216" lon="6.28953">
        <ele>858.07</ele>
        <time>2016-10-21T12:09:48Z</time>
      </trkpt>
      <trkpt lat="43.62174" lon="6.28966">
        <ele>857.05</ele>
        <time>2016-10-21T12:10:04Z</time>
      </trkpt>
      <trkpt lat="43.62188" lon="6.28972">
        <ele>856.16</ele>
        <time>2016-10-21T12:10:16Z</time>
      </trkpt>
      <trkpt lat="43.6219" lon="6.28973">
        <ele>856.1</ele>
        <time>2016-10-21T12:10:18Z</time>
      </trkpt>
      <trkpt lat="43.62193" lon="6.28977">
        <ele>856.05</ele>
        <time>2016-10-21T12:10:21Z</time>
      </trkpt>
      <trkpt lat="43.62198" lon="6.29004">
        <ele>855.54</ele>
        <time>2016-10-21T12:10:37Z</time>
      </trkpt>
      <trkpt lat="43.62202" lon="6.29025">
        <ele>855.58</ele>
        <time>2016-10-21T12:10:50Z</time>
      </trkpt>
      <trkpt lat="43.62213" lon="6.29051">
        <ele>855.94</ele>
        <time>2016-10-21T12:11:07Z</time>
      </trkpt>
      <trkpt lat="43.62225" lon="6.29072">
        <ele>855.76</ele>
        <time>2016-10-21T12:11:24Z</time>
      </trkpt>
      <trkpt lat="43.62233" lon="6.29092">
        <ele>856.05</ele>
        <time>2016-10-21T12:11:37Z</time>
      </trkpt>
      <trkpt lat="43.62233" lon="6.29094">
        <ele>856.12</ele>
        <time>2016-10-21T12:11:39Z</time>
      </trkpt>
      <trkpt lat="43.62233" lon="6.29099">
        <ele>856.19</ele>
        <time>2016-10-21T12:11:42Z</time>
      </trkpt>
      <trkpt lat="43.62238" lon="6.29113">
        <ele>856.83</ele>
        <time>2016-10-21T12:11:53Z</time>
      </trkpt>
      <trkpt lat="43.6225" lon="6.29119">
        <ele>857.61</ele>
        <time>2016-10-21T12:12:04Z</time>
      </trkpt>
      <trkpt lat="43.62256" lon="6.29137">
        <ele>858.87</ele>
        <time>2016-10-21T12:12:18Z</time>
      </trkpt>
      <trkpt lat="43.62265" lon="6.29154">
        <ele>860.47</ele>
        <time>2016-10-21T12:12:32Z</time>
      </trkpt>
      <trkpt lat="43.62266" lon="6.29164">
        <ele>861.64</ele>
        <time>2016-10-21T12:12:52Z</time>
      </trkpt>
      <trkpt lat="43.62266" lon="6.29177">
        <ele>861.46</ele>
        <time>2016-10-21T12:13:13Z</time>
      </trkpt>
      <trkpt lat="43.62276" lon="6.29186">
        <ele>861.91</ele>
        <time>2016-10-21T12:13:29Z</time>
      </trkpt>
      <trkpt lat="43.62277" lon="6.29186">
        <ele>861.92</ele>
        <time>2016-10-21T12:13:30Z</time>
      </trkpt>
      <trkpt lat="43.62283" lon="6.29188">
        <ele>861.95</ele>
        <time>2016-10-21T12:13:36Z</time>
      </trkpt>
      <trkpt lat="43.62286" lon="6.29196">
        <ele>862.25</ele>
        <time>2016-10-21T12:13:44Z</time>
      </trkpt>
      <trkpt lat="43.62286" lon="6.29201">
        <ele>862.35</ele>
        <time>2016-10-21T12:13:47Z</time>
      </trkpt>
      <trkpt lat="43.62284" lon="6.29213">
        <ele>862.56</ele>
        <time>2016-10-21T12:13:54Z</time>
      </trkpt>
      <trkpt lat="43.62292" lon="6.29219">
        <ele>862.5</ele>
        <time>2016-10-21T12:14:04Z</time>
      </trkpt>
      <trkpt lat="43.623" lon="6.29231">
        <ele>862.52</ele>
        <time>2016-10-21T12:14:18Z</time>
      </trkpt>
      <trkpt lat="43.62305" lon="6.29246">
        <ele>863.15</ele>
        <time>2016-10-21T12:14:30Z</time>
      </trkpt>
      <trkpt lat="43.62311" lon="6.29267">
        <ele>864.2</ele>
        <time>2016-10-21T12:14:46Z</time>
      </trkpt>
      <trkpt lat="43.62315" lon="6.29274">
        <ele>864.47</ele>
        <time>2016-10-21T12:14:53Z</time>
      </trkpt>
      <trkpt lat="43.6232" lon="6.2928">
        <ele>864.54</ele>
        <time>2016-10-21T12:15:00Z</time>
      </trkpt>
      <trkpt lat="43.62321" lon="6.29283">
        <ele>864.49</ele>
        <time>2016-10-21T12:15:02Z</time>
      </trkpt>
      <trkpt lat="43.62322" lon="6.29285">
        <ele>864.44</ele>
        <time>2016-10-21T12:15:04Z</time>
      </trkpt>
      <trkpt lat="43.62324" lon="6.29304">
        <ele>864.13</ele>
        <time>2016-10-21T12:15:21Z</time>
      </trkpt>
      <trkpt lat="43.6232" lon="6.29308">
        <ele>864.65</ele>
        <time>2016-10-21T12:15:38Z</time>
      </trkpt>
      <trkpt lat="43.62302" lon="6.29312">
        <ele>865.38</ele>
        <time>2016-10-21T12:15:55Z</time>
      </trkpt>
      <trkpt lat="43.623" lon="6.29313">
        <ele>865.67</ele>
        <time>2016-10-21T12:15:57Z</time>
      </trkpt>
      <trkpt lat="43.62291" lon="6.29323">
        <ele>867.12</ele>
        <time>2016-10-21T12:16:13Z</time>
      </trkpt>
      <trkpt lat="43.62273" lon="6.29332">
        <ele>868.2</ele>
        <time>2016-10-21T12:16:32Z</time>
      </trkpt>
      <trkpt lat="43.62255" lon="6.29335">
        <ele>869.19</ele>
        <time>2016-10-21T12:16:51Z</time>
      </trkpt>
      <trkpt lat="43.62246" lon="6.29344">
        <ele>868.5</ele>
        <time>2016-10-21T12:17:05Z</time>
      </trkpt>
      <trkpt lat="43.6224" lon="6.29361">
        <ele>866.8</ele>
        <time>2016-10-21T12:17:20Z</time>
      </trkpt>
      <trkpt lat="43.62238" lon="6.29369">
        <ele>865.74</ele>
        <time>2016-10-21T12:17:25Z</time>
      </trkpt>
      <trkpt lat="43.62237" lon="6.29392">
        <ele>863.81</ele>
        <time>2016-10-21T12:17:41Z</time>
      </trkpt>
      <trkpt lat="43.62237" lon="6.29403">
        <ele>862.86</ele>
        <time>2016-10-21T12:17:48Z</time>
      </trkpt>
      <trkpt lat="43.62238" lon="6.29419">
        <ele>861.75</ele>
        <time>2016-10-21T12:17:59Z</time>
      </trkpt>
      <trkpt lat="43.62232" lon="6.29431">
        <ele>860.68</ele>
        <time>2016-10-21T12:18:15Z</time>
      </trkpt>
      <trkpt lat="43.62228" lon="6.29432">
        <ele>860.49</ele>
        <time>2016-10-21T12:18:46Z</time>
      </trkpt>
      <trkpt lat="43.62223" lon="6.29419">
        <ele>861.42</ele>
        <time>2016-10-21T12:19:04Z</time>
      </trkpt>
      <trkpt lat="43.62222" lon="6.29415">
        <ele>861.62</ele>
        <time>2016-10-21T12:19:07Z</time>
      </trkpt>
      <trkpt lat="43.62221" lon="6.29407">
        <ele>862.07</ele>
        <time>2016-10-21T12:19:14Z</time>
      </trkpt>
      <trkpt lat="43.62218" lon="6.29393">
        <ele>862.89</ele>
        <time>2016-10-21T12:19:25Z</time>
      </trkpt>
      <trkpt lat="43.62205" lon="6.29382">
        <ele>863.96</ele>
        <time>2016-10-21T12:19:40Z</time>
      </trkpt>
      <trkpt lat="43.62194" lon="6.29376">
        <ele>865.3</ele>
        <time>2016-10-21T12:19:54Z</time>
      </trkpt>
      <trkpt lat="43.62181" lon="6.29372">
        <ele>867.42</ele>
        <time>2016-10-21T12:20:09Z</time>
      </trkpt>
      <trkpt lat="43.62171" lon="6.29379">
        <ele>870.45</ele>
        <time>2016-10-21T12:20:27Z</time>
      </trkpt>
      <trkpt lat="43.62171" lon="6.2938">
        <ele>870.59</ele>
        <time>2016-10-21T12:20:28Z</time>
      </trkpt>
      <trkpt lat="43.62165" lon="6.29395">
        <ele>872.18</ele>
        <time>2016-10-21T12:20:45Z</time>
      </trkpt>
      <trkpt lat="43.62163" lon="6.29394">
        <ele>872.61</ele>
        <time>2016-10-21T12:21:08Z</time>
      </trkpt>
      <trkpt lat="43.62165" lon="6.29394">
        <ele>872.57</ele>
        <time>2016-10-21T12:21:25Z</time>
      </trkpt>
      <trkpt lat="43.62166" lon="6.29398">
        <ele>872.69</ele>
        <time>2016-10-21T12:21:38Z</time>
      </trkpt>
      <trkpt lat="43.62175" lon="6.29406">
        <ele>872.59</ele>
        <time>2016-10-21T12:21:53Z</time>
      </trkpt>
      <trkpt lat="43.62174" lon="6.29406">
        <ele>872.72</ele>
        <time>2016-10-21T12:22:21Z</time>
      </trkpt>
      <trkpt lat="43.62173" lon="6.29406">
        <ele>872.73</ele>
        <time>2016-10-21T12:22:56Z</time>
      </trkpt>
      <trkpt lat="43.62168" lon="6.29399">
        <ele>872.22</ele>
        <time>2016-10-21T12:23:22Z</time>
      </trkpt>
      <trkpt lat="43.62162" lon="6.29394">
        <ele>872.86</ele>
        <time>2016-10-21T12:23:34Z</time>
      </trkpt>
      <trkpt lat="43.62153" lon="6.29391">
        <ele>873.61</ele>
        <time>2016-10-21T12:23:51Z</time>
      </trkpt>
      <trkpt lat="43.62134" lon="6.29385">
        <ele>874.78</ele>
        <time>2016-10-21T12:24:12Z</time>
      </trkpt>
      <trkpt lat="43.62124" lon="6.29394">
        <ele>873.84</ele>
        <time>2016-10-21T12:24:25Z</time>
      </trkpt>
      <trkpt lat="43.62108" lon="6.29411">
        <ele>871.04</ele>
        <time>2016-10-21T12:24:48Z</time>
      </trkpt>
      <trkpt lat="43.621" lon="6.29422">
        <ele>869.25</ele>
        <time>2016-10-21T12:25:08Z</time>
      </trkpt>
      <trkpt lat="43.62098" lon="6.29428">
        <ele>868.98</ele>
        <time>2016-10-21T12:25:32Z</time>
      </trkpt>
      <trkpt lat="43.62097" lon="6.2943">
        <ele>868.9</ele>
        <time>2016-10-21T12:25:34Z</time>
      </trkpt>
      <trkpt lat="43.62087" lon="6.2944">
        <ele>868.33</ele>
        <time>2016-10-21T12:25:47Z</time>
      </trkpt>
      <trkpt lat="43.6208" lon="6.29459">
        <ele>867.39</ele>
        <time>2016-10-21T12:26:10Z</time>
      </trkpt>
      <trkpt lat="43.62076" lon="6.29465">
        <ele>866.5</ele>
        <time>2016-10-21T12:26:38Z</time>
      </trkpt>
      <trkpt lat="43.62075" lon="6.29466">
        <ele>866.77</ele>
        <time>2016-10-21T12:27:12Z</time>
      </trkpt>
      <trkpt lat="43.62076" lon="6.29467">
        <ele>866.5</ele>
        <time>2016-10-21T12:27:39Z</time>
      </trkpt>
      <trkpt lat="43.62076" lon="6.29471">
        <ele>866.06</ele>
        <time>2016-10-21T12:28:07Z</time>
      </trkpt>
      <trkpt lat="43.62074" lon="6.29491">
        <ele>863.65</ele>
        <time>2016-10-21T12:28:28Z</time>
      </trkpt>
      <trkpt lat="43.62064" lon="6.29521">
        <ele>862.25</ele>
        <time>2016-10-21T12:28:52Z</time>
      </trkpt>
      <trkpt lat="43.62047" lon="6.29534">
        <ele>862.53</ele>
        <time>2016-10-21T12:29:12Z</time>
      </trkpt>
      <trkpt lat="43.62026" lon="6.29536">
        <ele>863.95</ele>
        <time>2016-10-21T12:29:32Z</time>
      </trkpt>
      <trkpt lat="43.62014" lon="6.29553">
        <ele>863.75</ele>
        <time>2016-10-21T12:29:53Z</time>
      </trkpt>
      <trkpt lat="43.6201" lon="6.29574">
        <ele>861.69</ele>
        <time>2016-10-21T12:30:09Z</time>
      </trkpt>
      <trkpt lat="43.62009" lon="6.29608">
        <ele>859.28</ele>
        <time>2016-10-21T12:30:29Z</time>
      </trkpt>
      <trkpt lat="43.62011" lon="6.29619">
        <ele>858.16</ele>
        <time>2016-10-21T12:30:36Z</time>
      </trkpt>
      <trkpt lat="43.62013" lon="6.2963">
        <ele>857.35</ele>
        <time>2016-10-21T12:30:42Z</time>
      </trkpt>
      <trkpt lat="43.62018" lon="6.29649">
        <ele>855.18</ele>
        <time>2016-10-21T12:30:57Z</time>
      </trkpt>
      <trkpt lat="43.62019" lon="6.2965">
        <ele>854.97</ele>
        <time>2016-10-21T12:30:58Z</time>
      </trkpt>
      <trkpt lat="43.62029" lon="6.29677">
        <ele>852.15</ele>
        <time>2016-10-21T12:31:20Z</time>
      </trkpt>
      <trkpt lat="43.62027" lon="6.29702">
        <ele>849.1</ele>
        <time>2016-10-21T12:31:39Z</time>
      </trkpt>
      <trkpt lat="43.62019" lon="6.29726">
        <ele>846.08</ele>
        <time>2016-10-21T12:32:00Z</time>
      </trkpt>
      <trkpt lat="43.62007" lon="6.29739">
        <ele>843.06</ele>
        <time>2016-10-21T12:32:20Z</time>
      </trkpt>
      <trkpt lat="43.61995" lon="6.29748">
        <ele>839.89</ele>
        <time>2016-10-21T12:32:39Z</time>
      </trkpt>
      <trkpt lat="43.61984" lon="6.29751">
        <ele>836.83</ele>
        <time>2016-10-21T12:32:52Z</time>
      </trkpt>
      <trkpt lat="43.61972" lon="6.29758">
        <ele>833.66</ele>
        <time>2016-10-21T12:33:08Z</time>
      </trkpt>
      <trkpt lat="43.61962" lon="6.29771">
        <ele>830.44</ele>
        <time>2016-10-21T12:33:21Z</time>
      </trkpt>
      <trkpt lat="43.61959" lon="6.29784">
        <ele>827.4</ele>
        <time>2016-10-21T12:33:34Z</time>
      </trkpt>
      <trkpt lat="43.61949" lon="6.29809">
        <ele>824.39</ele>
        <time>2016-10-21T12:33:52Z</time>
      </trkpt>
      <trkpt lat="43.61946" lon="6.29827">
        <ele>823.19</ele>
        <time>2016-10-21T12:34:03Z</time>
      </trkpt>
      <trkpt lat="43.6194" lon="6.29852">
        <ele>823.42</ele>
        <time>2016-10-21T12:34:24Z</time>
      </trkpt>
      <trkpt lat="43.61936" lon="6.29879">
        <ele>826.47</ele>
        <time>2016-10-21T12:34:41Z</time>
      </trkpt>
      <trkpt lat="43.61936" lon="6.29883">
        <ele>826.73</ele>
        <time>2016-10-21T12:34:43Z</time>
      </trkpt>
      <trkpt lat="43.61936" lon="6.299">
        <ele>828.57</ele>
        <time>2016-10-21T12:34:58Z</time>
      </trkpt>
      <trkpt lat="43.61943" lon="6.29915">
        <ele>829.09</ele>
        <time>2016-10-21T12:35:13Z</time>
      </trkpt>
      <trkpt lat="43.61943" lon="6.29916">
        <ele>829.09</ele>
        <time>2016-10-21T12:35:14Z</time>
      </trkpt>
      <trkpt lat="43.61944" lon="6.29937">
        <ele>828.22</ele>
        <time>2016-10-21T12:35:34Z</time>
      </trkpt>
      <trkpt lat="43.61943" lon="6.2994">
        <ele>827.03</ele>
        <time>2016-10-21T12:35:53Z</time>
      </trkpt>
      <trkpt lat="43.61945" lon="6.29942">
        <ele>827.18</ele>
        <time>2016-10-21T12:36:22Z</time>
      </trkpt>
      <trkpt lat="43.61947" lon="6.29942">
        <ele>827.11</ele>
        <time>2016-10-21T12:36:53Z</time>
      </trkpt>
      <trkpt lat="43.61948" lon="6.29929">
        <ele>828.21</ele>
        <time>2016-10-21T12:37:17Z</time>
      </trkpt>
      <trkpt lat="43.61947" lon="6.29919">
        <ele>829.55</ele>
        <time>2016-10-21T12:37:39Z</time>
      </trkpt>
      <trkpt lat="43.61949" lon="6.29924">
        <ele>829.06</ele>
        <time>2016-10-21T12:38:05Z</time>
      </trkpt>
      <trkpt lat="43.61945" lon="6.2994">
        <ele>827.66</ele>
        <time>2016-10-21T12:38:25Z</time>
      </trkpt>
      <trkpt lat="43.61938" lon="6.29957">
        <ele>824.83</ele>
        <time>2016-10-21T12:38:40Z</time>
      </trkpt>
      <trkpt lat="43.61934" lon="6.29976">
        <ele>821.81</ele>
        <time>2016-10-21T12:38:51Z</time>
      </trkpt>
      <trkpt lat="43.61932" lon="6.30011">
        <ele>819.51</ele>
        <time>2016-10-21T12:39:11Z</time>
      </trkpt>
      <trkpt lat="43.61927" lon="6.3004">
        <ele>817.01</ele>
        <time>2016-10-21T12:39:31Z</time>
      </trkpt>
      <trkpt lat="43.61921" lon="6.30071">
        <ele>816.28</ele>
        <time>2016-10-21T12:39:50Z</time>
      </trkpt>
      <trkpt lat="43.61914" lon="6.301">
        <ele>819.46</ele>
        <time>2016-10-21T12:40:06Z</time>
      </trkpt>
      <trkpt lat="43.61919" lon="6.30116">
        <ele>819.81</ele>
        <time>2016-10-21T12:40:20Z</time>
      </trkpt>
      <trkpt lat="43.61927" lon="6.30145">
        <ele>818.72</ele>
        <time>2016-10-21T12:40:38Z</time>
      </trkpt>
      <trkpt lat="43.61932" lon="6.30162">
        <ele>818.23</ele>
        <time>2016-10-21T12:40:49Z</time>
      </trkpt>
      <trkpt lat="43.61934" lon="6.30164">
        <ele>818.07</ele>
        <time>2016-10-21T12:40:51Z</time>
      </trkpt>
      <trkpt lat="43.61935" lon="6.30183">
        <ele>817.03</ele>
        <time>2016-10-21T12:41:02Z</time>
      </trkpt>
      <trkpt lat="43.61938" lon="6.30215">
        <ele>815.46</ele>
        <time>2016-10-21T12:41:22Z</time>
      </trkpt>
      <trkpt lat="43.61936" lon="6.30234">
        <ele>814.55</ele>
        <time>2016-10-21T12:41:31Z</time>
      </trkpt>
      <trkpt lat="43.61933" lon="6.30241">
        <ele>814.14</ele>
        <time>2016-10-21T12:41:36Z</time>
      </trkpt>
      <trkpt lat="43.61923" lon="6.30265">
        <ele>814.56</ele>
        <time>2016-10-21T12:41:53Z</time>
      </trkpt>
      <trkpt lat="43.61915" lon="6.30277">
        <ele>815.25</ele>
        <time>2016-10-21T12:42:03Z</time>
      </trkpt>
      <trkpt lat="43.61907" lon="6.30301">
        <ele>814.74</ele>
        <time>2016-10-21T12:42:20Z</time>
      </trkpt>
      <trkpt lat="43.61904" lon="6.30318">
        <ele>813.48</ele>
        <time>2016-10-21T12:42:33Z</time>
      </trkpt>
      <trkpt lat="43.61903" lon="6.30319">
        <ele>813.26</ele>
        <time>2016-10-21T12:42:34Z</time>
      </trkpt>
      <trkpt lat="43.61902" lon="6.30333">
        <ele>812.42</ele>
        <time>2016-10-21T12:42:42Z</time>
      </trkpt>
      <trkpt lat="43.61904" lon="6.30346">
        <ele>810.93</ele>
        <time>2016-10-21T12:42:54Z</time>
      </trkpt>
      <trkpt lat="43.61899" lon="6.3036">
        <ele>810.38</ele>
        <time>2016-10-21T12:43:10Z</time>
      </trkpt>
      <trkpt lat="43.61899" lon="6.30368">
        <ele>810.21</ele>
        <time>2016-10-21T12:43:32Z</time>
      </trkpt>
      <trkpt lat="43.61896" lon="6.30369">
        <ele>809.92</ele>
        <time>2016-10-21T12:43:59Z</time>
      </trkpt>
      <trkpt lat="43.61884" lon="6.30361">
        <ele>810.52</ele>
        <time>2016-10-21T12:44:21Z</time>
      </trkpt>
      <trkpt lat="43.61867" lon="6.30352">
        <ele>811.09</ele>
        <time>2016-10-21T12:44:36Z</time>
      </trkpt>
      <trkpt lat="43.61855" lon="6.30345">
        <ele>812.47</ele>
        <time>2016-10-21T12:44:50Z</time>
      </trkpt>
      <trkpt lat="43.61851" lon="6.30344">
        <ele>812.74</ele>
        <time>2016-10-21T12:44:54Z</time>
      </trkpt>
      <trkpt lat="43.61844" lon="6.30327">
        <ele>814.07</ele>
        <time>2016-10-21T12:45:10Z</time>
      </trkpt>
      <trkpt lat="43.61838" lon="6.30316">
        <ele>815.46</ele>
        <time>2016-10-21T12:45:21Z</time>
      </trkpt>
      <trkpt lat="43.61826" lon="6.30314">
        <ele>817.09</ele>
        <time>2016-10-21T12:45:34Z</time>
      </trkpt>
      <trkpt lat="43.6182" lon="6.30319">
        <ele>818.34</ele>
        <time>2016-10-21T12:45:43Z</time>
      </trkpt>
      <trkpt lat="43.61813" lon="6.30332">
        <ele>819.32</ele>
        <time>2016-10-21T12:46:02Z</time>
      </trkpt>
      <trkpt lat="43.61808" lon="6.30352">
        <ele>817.48</ele>
        <time>2016-10-21T12:46:23Z</time>
      </trkpt>
      <trkpt lat="43.61799" lon="6.3037">
        <ele>814.4</ele>
        <time>2016-10-21T12:46:40Z</time>
      </trkpt>
      <trkpt lat="43.61793" lon="6.30382">
        <ele>812.1</ele>
        <time>2016-10-21T12:46:51Z</time>
      </trkpt>
      <trkpt lat="43.6178" lon="6.30395">
        <ele>810.05</ele>
        <time>2016-10-21T12:47:05Z</time>
      </trkpt>
      <trkpt lat="43.61775" lon="6.30402">
        <ele>808.51</ele>
        <time>2016-10-21T12:47:24Z</time>
      </trkpt>
      <trkpt lat="43.61771" lon="6.30416">
        <ele>807.58</ele>
        <time>2016-10-21T12:47:42Z</time>
      </trkpt>
      <trkpt lat="43.61766" lon="6.30431">
        <ele>804.57</ele>
        <time>2016-10-21T12:47:59Z</time>
      </trkpt>
      <trkpt lat="43.61758" lon="6.30442">
        <ele>802.01</ele>
        <time>2016-10-21T12:48:13Z</time>
      </trkpt>
      <trkpt lat="43.61752" lon="6.30453">
        <ele>799.82</ele>
        <time>2016-10-21T12:48:26Z</time>
      </trkpt>
      <trkpt lat="43.61747" lon="6.3047">
        <ele>796.57</ele>
        <time>2016-10-21T12:48:40Z</time>
      </trkpt>
      <trkpt lat="43.61746" lon="6.30472">
        <ele>796.24</ele>
        <time>2016-10-21T12:48:42Z</time>
      </trkpt>
      <trkpt lat="43.61743" lon="6.30478">
        <ele>795.37</ele>
        <time>2016-10-21T12:48:47Z</time>
      </trkpt>
      <trkpt lat="43.61734" lon="6.30488">
        <ele>793.26</ele>
        <time>2016-10-21T12:49:00Z</time>
      </trkpt>
      <trkpt lat="43.6173" lon="6.30492">
        <ele>792.25</ele>
        <time>2016-10-21T12:49:05Z</time>
      </trkpt>
      <trkpt lat="43.6172" lon="6.305">
        <ele>789.79</ele>
        <time>2016-10-21T12:49:18Z</time>
      </trkpt>
      <trkpt lat="43.61709" lon="6.30516">
        <ele>787.06</ele>
        <time>2016-10-21T12:49:33Z</time>
      </trkpt>
      <trkpt lat="43.61703" lon="6.30533">
        <ele>783.78</ele>
        <time>2016-10-21T12:49:50Z</time>
      </trkpt>
      <trkpt lat="43.61695" lon="6.30548">
        <ele>780.57</ele>
        <time>2016-10-21T12:50:07Z</time>
      </trkpt>
      <trkpt lat="43.61692" lon="6.30557">
        <ele>778.8</ele>
        <time>2016-10-21T12:50:16Z</time>
      </trkpt>
      <trkpt lat="43.61691" lon="6.30575">
        <ele>775.85</ele>
        <time>2016-10-21T12:50:32Z</time>
      </trkpt>
      <trkpt lat="43.61691" lon="6.30577">
        <ele>775.64</ele>
        <time>2016-10-21T12:50:33Z</time>
      </trkpt>
      <trkpt lat="43.61683" lon="6.30593">
        <ele>772.51</ele>
        <time>2016-10-21T12:50:50Z</time>
      </trkpt>
      <trkpt lat="43.61676" lon="6.30604">
        <ele>769.4</ele>
        <time>2016-10-21T12:51:04Z</time>
      </trkpt>
      <trkpt lat="43.61674" lon="6.30619">
        <ele>766.22</ele>
        <time>2016-10-21T12:51:20Z</time>
      </trkpt>
      <trkpt lat="43.61667" lon="6.30631">
        <ele>763.06</ele>
        <time>2016-10-21T12:51:35Z</time>
      </trkpt>
      <trkpt lat="43.61659" lon="6.30646">
        <ele>759.95</ele>
        <time>2016-10-21T12:51:51Z</time>
      </trkpt>
      <trkpt lat="43.61654" lon="6.30658">
        <ele>757.39</ele>
        <time>2016-10-21T12:52:08Z</time>
      </trkpt>
      <trkpt lat="43.61648" lon="6.30671">
        <ele>754.21</ele>
        <time>2016-10-21T12:52:26Z</time>
      </trkpt>
      <trkpt lat="43.61642" lon="6.30682">
        <ele>751.24</ele>
        <time>2016-10-21T12:52:41Z</time>
      </trkpt>
      <trkpt lat="43.61635" lon="6.30691">
        <ele>748.11</ele>
        <time>2016-10-21T12:52:57Z</time>
      </trkpt>
      <trkpt lat="43.61626" lon="6.307">
        <ele>745.08</ele>
        <time>2016-10-21T12:53:15Z</time>
      </trkpt>
      <trkpt lat="43.61618" lon="6.30712">
        <ele>741.93</ele>
        <time>2016-10-21T12:53:33Z</time>
      </trkpt>
      <trkpt lat="43.61616" lon="6.30716">
        <ele>740.74</ele>
        <time>2016-10-21T12:53:39Z</time>
      </trkpt>
      <trkpt lat="43.61609" lon="6.30728">
        <ele>738.13</ele>
        <time>2016-10-21T12:53:52Z</time>
      </trkpt>
      <trkpt lat="43.61608" lon="6.30732">
        <ele>736.46</ele>
        <time>2016-10-21T12:54:13Z</time>
      </trkpt>
      <trkpt lat="43.61607" lon="6.30735">
        <ele>735.59</ele>
        <time>2016-10-21T12:54:40Z</time>
      </trkpt>
      <trkpt lat="43.61605" lon="6.30737">
        <ele>735.52</ele>
        <time>2016-10-21T12:54:44Z</time>
      </trkpt>
      <trkpt lat="43.61602" lon="6.30739">
        <ele>735.46</ele>
        <time>2016-10-21T12:54:48Z</time>
      </trkpt>
      <trkpt lat="43.61597" lon="6.3074">
        <ele>734.78</ele>
        <time>2016-10-21T12:54:54Z</time>
      </trkpt>
      <trkpt lat="43.61596" lon="6.30742">
        <ele>734.44</ele>
        <time>2016-10-21T12:54:56Z</time>
      </trkpt>
      <trkpt lat="43.61581" lon="6.30747">
        <ele>733.01</ele>
        <time>2016-10-21T12:55:11Z</time>
      </trkpt>
      <trkpt lat="43.61575" lon="6.30755">
        <ele>732.22</ele>
        <time>2016-10-21T12:55:18Z</time>
      </trkpt>
      <trkpt lat="43.61558" lon="6.30769">
        <ele>729.38</ele>
        <time>2016-10-21T12:55:33Z</time>
      </trkpt>
      <trkpt lat="43.61541" lon="6.30781">
        <ele>726.73</ele>
        <time>2016-10-21T12:55:50Z</time>
      </trkpt>
      <trkpt lat="43.61526" lon="6.30789">
        <ele>725.34</ele>
        <time>2016-10-21T12:56:03Z</time>
      </trkpt>
      <trkpt lat="43.61509" lon="6.30804">
        <ele>723.18</ele>
        <time>2016-10-21T12:56:20Z</time>
      </trkpt>
      <trkpt lat="43.61507" lon="6.30806">
        <ele>722.67</ele>
        <time>2016-10-21T12:56:23Z</time>
      </trkpt>
      <trkpt lat="43.61502" lon="6.30817">
        <ele>721.77</ele>
        <time>2016-10-21T12:56:29Z</time>
      </trkpt>
      <trkpt lat="43.6149" lon="6.30837">
        <ele>719.62</ele>
        <time>2016-10-21T12:56:44Z</time>
      </trkpt>
      <trkpt lat="43.61488" lon="6.3084">
        <ele>719.48</ele>
        <time>2016-10-21T12:56:46Z</time>
      </trkpt>
      <trkpt lat="43.61474" lon="6.30862">
        <ele>718.25</ele>
        <time>2016-10-21T12:57:04Z</time>
      </trkpt>
      <trkpt lat="43.61469" lon="6.3087">
        <ele>717.72</ele>
        <time>2016-10-21T12:57:10Z</time>
      </trkpt>
      <trkpt lat="43.61455" lon="6.3088">
        <ele>716.54</ele>
        <time>2016-10-21T12:57:26Z</time>
      </trkpt>
      <trkpt lat="43.61442" lon="6.30884">
        <ele>715.34</ele>
        <time>2016-10-21T12:57:42Z</time>
      </trkpt>
      <trkpt lat="43.61439" lon="6.30886">
        <ele>715.19</ele>
        <time>2016-10-21T12:57:45Z</time>
      </trkpt>
      <trkpt lat="43.61426" lon="6.30894">
        <ele>713.97</ele>
        <time>2016-10-21T12:57:58Z</time>
      </trkpt>
      <trkpt lat="43.61411" lon="6.30905">
        <ele>712.83</ele>
        <time>2016-10-21T12:58:14Z</time>
      </trkpt>
      <trkpt lat="43.614" lon="6.30913">
        <ele>711.72</ele>
        <time>2016-10-21T12:58:35Z</time>
      </trkpt>
      <trkpt lat="43.61394" lon="6.3093">
        <ele>711.45</ele>
        <time>2016-10-21T12:59:05Z</time>
      </trkpt>
      <trkpt lat="43.61392" lon="6.30929">
        <ele>711.29</ele>
        <time>2016-10-21T12:59:25Z</time>
      </trkpt>
      <trkpt lat="43.61392" lon="6.30932">
        <ele>711.74</ele>
        <time>2016-10-21T12:59:45Z</time>
      </trkpt>
      <trkpt lat="43.61395" lon="6.30946">
        <ele>711.89</ele>
        <time>2016-10-21T13:00:08Z</time>
      </trkpt>
      <trkpt lat="43.61401" lon="6.3097">
        <ele>712.7</ele>
        <time>2016-10-21T13:00:28Z</time>
      </trkpt>
      <trkpt lat="43.61414" lon="6.30976">
        <ele>713.41</ele>
        <time>2016-10-21T13:00:47Z</time>
      </trkpt>
      <trkpt lat="43.61418" lon="6.30984">
        <ele>713.64</ele>
        <time>2016-10-21T13:00:56Z</time>
      </trkpt>
      <trkpt lat="43.61426" lon="6.31003">
        <ele>714.68</ele>
        <time>2016-10-21T13:01:13Z</time>
      </trkpt>
      <trkpt lat="43.61431" lon="6.31019">
        <ele>715.45</ele>
        <time>2016-10-21T13:01:29Z</time>
      </trkpt>
      <trkpt lat="43.61444" lon="6.31039">
        <ele>716.08</ele>
        <time>2016-10-21T13:01:53Z</time>
      </trkpt>
      <trkpt lat="43.6146" lon="6.31054">
        <ele>717.82</ele>
        <time>2016-10-21T13:02:15Z</time>
      </trkpt>
      <trkpt lat="43.61472" lon="6.31076">
        <ele>719.25</ele>
        <time>2016-10-21T13:02:35Z</time>
      </trkpt>
      <trkpt lat="43.61471" lon="6.31089">
        <ele>720.27</ele>
        <time>2016-10-21T13:02:51Z</time>
      </trkpt>
      <trkpt lat="43.61456" lon="6.31115">
        <ele>720.89</ele>
        <time>2016-10-21T13:03:11Z</time>
      </trkpt>
      <trkpt lat="43.61463" lon="6.31141">
        <ele>722.1</ele>
        <time>2016-10-21T13:03:31Z</time>
      </trkpt>
      <trkpt lat="43.61481" lon="6.31148">
        <ele>723.66</ele>
        <time>2016-10-21T13:03:50Z</time>
      </trkpt>
      <trkpt lat="43.61502" lon="6.31158">
        <ele>724.53</ele>
        <time>2016-10-21T13:04:10Z</time>
      </trkpt>
      <trkpt lat="43.61517" lon="6.31175">
        <ele>725.03</ele>
        <time>2016-10-21T13:04:32Z</time>
      </trkpt>
      <trkpt lat="43.61518" lon="6.31176">
        <ele>725.05</ele>
        <time>2016-10-21T13:04:33Z</time>
      </trkpt>
      <trkpt lat="43.61521" lon="6.31185">
        <ele>725.22</ele>
        <time>2016-10-21T13:04:38Z</time>
      </trkpt>
      <trkpt lat="43.61519" lon="6.31205">
        <ele>725.23</ele>
        <time>2016-10-21T13:04:50Z</time>
      </trkpt>
      <trkpt lat="43.61514" lon="6.31224">
        <ele>725.24</ele>
        <time>2016-10-21T13:05:03Z</time>
      </trkpt>
      <trkpt lat="43.61499" lon="6.31262">
        <ele>723.91</ele>
        <time>2016-10-21T13:05:26Z</time>
      </trkpt>
      <trkpt lat="43.61496" lon="6.31265">
        <ele>723.83</ele>
        <time>2016-10-21T13:05:28Z</time>
      </trkpt>
      <trkpt lat="43.61485" lon="6.31283">
        <ele>722.73</ele>
        <time>2016-10-21T13:05:46Z</time>
      </trkpt>
      <trkpt lat="43.61485" lon="6.31283">
        <ele>722.57</ele>
        <time>2016-10-21T13:05:48Z</time>
      </trkpt>
      <trkpt lat="43.6146" lon="6.31296">
        <ele>721.1</ele>
        <time>2016-10-21T13:06:09Z</time>
      </trkpt>
      <trkpt lat="43.61447" lon="6.31313">
        <ele>720.91</ele>
        <time>2016-10-21T13:06:23Z</time>
      </trkpt>
      <trkpt lat="43.61443" lon="6.31319">
        <ele>721</ele>
        <time>2016-10-21T13:06:28Z</time>
      </trkpt>
      <trkpt lat="43.61439" lon="6.31324">
        <ele>720.97</ele>
        <time>2016-10-21T13:06:34Z</time>
      </trkpt>
      <trkpt lat="43.61431" lon="6.31347">
        <ele>720.91</ele>
        <time>2016-10-21T13:06:44Z</time>
      </trkpt>
      <trkpt lat="43.61426" lon="6.31375">
        <ele>721.17</ele>
        <time>2016-10-21T13:06:58Z</time>
      </trkpt>
      <trkpt lat="43.61427" lon="6.31407">
        <ele>721.57</ele>
        <time>2016-10-21T13:07:17Z</time>
      </trkpt>
      <trkpt lat="43.61423" lon="6.31423">
        <ele>721.85</ele>
        <time>2016-10-21T13:07:29Z</time>
      </trkpt>
      <trkpt lat="43.61413" lon="6.31446">
        <ele>722.69</ele>
        <time>2016-10-21T13:07:44Z</time>
      </trkpt>
      <trkpt lat="43.6141" lon="6.31453">
        <ele>723.28</ele>
        <time>2016-10-21T13:08:05Z</time>
      </trkpt>
      <trkpt lat="43.61416" lon="6.31463">
        <ele>723.27</ele>
        <time>2016-10-21T13:08:36Z</time>
      </trkpt>
      <trkpt lat="43.61414" lon="6.31456">
        <ele>723.42</ele>
        <time>2016-10-21T13:08:58Z</time>
      </trkpt>
      <trkpt lat="43.61411" lon="6.31458">
        <ele>723.5</ele>
        <time>2016-10-21T13:09:19Z</time>
      </trkpt>
      <trkpt lat="43.61413" lon="6.31455">
        <ele>723.46</ele>
        <time>2016-10-21T13:09:44Z</time>
      </trkpt>
      <trkpt lat="43.61413" lon="6.31455">
        <ele>723.31</ele>
        <time>2016-10-21T13:10:07Z</time>
      </trkpt>
      <trkpt lat="43.6141" lon="6.31458">
        <ele>723.38</ele>
        <time>2016-10-21T13:10:33Z</time>
      </trkpt>
      <trkpt lat="43.61415" lon="6.31462">
        <ele>723.34</ele>
        <time>2016-10-21T13:10:59Z</time>
      </trkpt>
      <trkpt lat="43.61414" lon="6.3146">
        <ele>723.38</ele>
        <time>2016-10-21T13:11:20Z</time>
      </trkpt>
      <trkpt lat="43.61414" lon="6.31458">
        <ele>723.41</ele>
        <time>2016-10-21T13:11:43Z</time>
      </trkpt>
      <trkpt lat="43.61409" lon="6.31462">
        <ele>723.31</ele>
        <time>2016-10-21T13:12:06Z</time>
      </trkpt>
      <trkpt lat="43.61399" lon="6.31476">
        <ele>723.97</ele>
        <time>2016-10-21T13:12:20Z</time>
      </trkpt>
      <trkpt lat="43.61385" lon="6.31493">
        <ele>724.1</ele>
        <time>2016-10-21T13:12:36Z</time>
      </trkpt>
      <trkpt lat="43.61376" lon="6.31511">
        <ele>724.47</ele>
        <time>2016-10-21T13:12:50Z</time>
      </trkpt>
      <trkpt lat="43.6137" lon="6.31519">
        <ele>724.72</ele>
        <time>2016-10-21T13:12:58Z</time>
      </trkpt>
      <trkpt lat="43.6136" lon="6.3153">
        <ele>725.04</ele>
        <time>2016-10-21T13:13:08Z</time>
      </trkpt>
      <trkpt lat="43.61354" lon="6.3154">
        <ele>724.92</ele>
        <time>2016-10-21T13:13:15Z</time>
      </trkpt>
      <trkpt lat="43.6135" lon="6.31546">
        <ele>724.95</ele>
        <time>2016-10-21T13:13:19Z</time>
      </trkpt>
      <trkpt lat="43.61335" lon="6.31562">
        <ele>724.92</ele>
        <time>2016-10-21T13:13:33Z</time>
      </trkpt>
      <trkpt lat="43.61319" lon="6.31578">
        <ele>725.06</ele>
        <time>2016-10-21T13:13:48Z</time>
      </trkpt>
      <trkpt lat="43.61307" lon="6.31588">
        <ele>724.97</ele>
        <time>2016-10-21T13:13:58Z</time>
      </trkpt>
      <trkpt lat="43.61287" lon="6.31598">
        <ele>724.49</ele>
        <time>2016-10-21T13:14:13Z</time>
      </trkpt>
      <trkpt lat="43.61272" lon="6.31615">
        <ele>723.6</ele>
        <time>2016-10-21T13:14:27Z</time>
      </trkpt>
      <trkpt lat="43.61255" lon="6.31629">
        <ele>723.38</ele>
        <time>2016-10-21T13:14:40Z</time>
      </trkpt>
      <trkpt lat="43.61238" lon="6.31648">
        <ele>723.06</ele>
        <time>2016-10-21T13:14:55Z</time>
      </trkpt>
      <trkpt lat="43.61224" lon="6.31669">
        <ele>722.88</ele>
        <time>2016-10-21T13:15:10Z</time>
      </trkpt>
      <trkpt lat="43.61222" lon="6.31673">
        <ele>722.81</ele>
        <time>2016-10-21T13:15:13Z</time>
      </trkpt>
      <trkpt lat="43.61204" lon="6.31696">
        <ele>722.72</ele>
        <time>2016-10-21T13:15:29Z</time>
      </trkpt>
      <trkpt lat="43.61186" lon="6.31723">
        <ele>722.64</ele>
        <time>2016-10-21T13:15:47Z</time>
      </trkpt>
      <trkpt lat="43.61176" lon="6.3175">
        <ele>722.67</ele>
        <time>2016-10-21T13:16:02Z</time>
      </trkpt>
      <trkpt lat="43.61165" lon="6.31773">
        <ele>722.05</ele>
        <time>2016-10-21T13:16:17Z</time>
      </trkpt>
      <trkpt lat="43.61149" lon="6.31792">
        <ele>721.57</ele>
        <time>2016-10-21T13:16:32Z</time>
      </trkpt>
      <trkpt lat="43.61143" lon="6.31798">
        <ele>721.5</ele>
        <time>2016-10-21T13:16:37Z</time>
      </trkpt>
      <trkpt lat="43.61125" lon="6.31807">
        <ele>721.77</ele>
        <time>2016-10-21T13:16:51Z</time>
      </trkpt>
      <trkpt lat="43.61105" lon="6.31815">
        <ele>721.88</ele>
        <time>2016-10-21T13:17:06Z</time>
      </trkpt>
      <trkpt lat="43.61085" lon="6.31826">
        <ele>722.27</ele>
        <time>2016-10-21T13:17:21Z</time>
      </trkpt>
      <trkpt lat="43.61068" lon="6.31837">
        <ele>722.68</ele>
        <time>2016-10-21T13:17:36Z</time>
      </trkpt>
      <trkpt lat="43.61064" lon="6.31843">
        <ele>722.69</ele>
        <time>2016-10-21T13:17:40Z</time>
      </trkpt>
      <trkpt lat="43.61053" lon="6.31867">
        <ele>722.96</ele>
        <time>2016-10-21T13:17:55Z</time>
      </trkpt>
      <trkpt lat="43.61053" lon="6.31868">
        <ele>722.97</ele>
        <time>2016-10-21T13:17:56Z</time>
      </trkpt>
      <trkpt lat="43.61047" lon="6.3188">
        <ele>723.37</ele>
        <time>2016-10-21T13:18:04Z</time>
      </trkpt>
      <trkpt lat="43.61036" lon="6.31902">
        <ele>723.47</ele>
        <time>2016-10-21T13:18:19Z</time>
      </trkpt>
      <trkpt lat="43.61025" lon="6.3193">
        <ele>724</ele>
        <time>2016-10-21T13:18:37Z</time>
      </trkpt>
      <trkpt lat="43.61017" lon="6.31953">
        <ele>724.35</ele>
        <time>2016-10-21T13:18:52Z</time>
      </trkpt>
      <trkpt lat="43.61005" lon="6.31979">
        <ele>724.73</ele>
        <time>2016-10-21T13:19:09Z</time>
      </trkpt>
      <trkpt lat="43.60993" lon="6.3199">
        <ele>724.78</ele>
        <time>2016-10-21T13:19:21Z</time>
      </trkpt>
      <trkpt lat="43.60986" lon="6.31993">
        <ele>724.84</ele>
        <time>2016-10-21T13:19:27Z</time>
      </trkpt>
      <trkpt lat="43.60979" lon="6.31995">
        <ele>724.57</ele>
        <time>2016-10-21T13:19:34Z</time>
      </trkpt>
      <trkpt lat="43.60977" lon="6.31995">
        <ele>724.55</ele>
        <time>2016-10-21T13:19:36Z</time>
      </trkpt>
      <trkpt lat="43.60971" lon="6.31998">
        <ele>724.54</ele>
        <time>2016-10-21T13:19:40Z</time>
      </trkpt>
      <trkpt lat="43.60951" lon="6.32016">
        <ele>724.51</ele>
        <time>2016-10-21T13:19:56Z</time>
      </trkpt>
      <trkpt lat="43.60933" lon="6.32032">
        <ele>725.04</ele>
        <time>2016-10-21T13:20:10Z</time>
      </trkpt>
      <trkpt lat="43.60916" lon="6.32044">
        <ele>725.28</ele>
        <time>2016-10-21T13:20:25Z</time>
      </trkpt>
      <trkpt lat="43.60904" lon="6.32048">
        <ele>725.17</ele>
        <time>2016-10-21T13:20:34Z</time>
      </trkpt>
      <trkpt lat="43.60898" lon="6.32052">
        <ele>725.08</ele>
        <time>2016-10-21T13:20:39Z</time>
      </trkpt>
      <trkpt lat="43.60883" lon="6.32067">
        <ele>725.16</ele>
        <time>2016-10-21T13:20:54Z</time>
      </trkpt>
      <trkpt lat="43.60875" lon="6.32085">
        <ele>725</ele>
        <time>2016-10-21T13:21:10Z</time>
      </trkpt>
      <trkpt lat="43.60867" lon="6.32093">
        <ele>724.8</ele>
        <time>2016-10-21T13:21:30Z</time>
      </trkpt>
      <trkpt lat="43.60866" lon="6.32095">
        <ele>724.85</ele>
        <time>2016-10-21T13:21:47Z</time>
      </trkpt>
      <trkpt lat="43.60866" lon="6.32096">
        <ele>724.88</ele>
        <time>2016-10-21T13:22:16Z</time>
      </trkpt>
      <trkpt lat="43.60865" lon="6.32097">
        <ele>724.97</ele>
        <time>2016-10-21T13:22:32Z</time>
      </trkpt>
      <trkpt lat="43.60861" lon="6.32102">
        <ele>725.14</ele>
        <time>2016-10-21T13:22:59Z</time>
      </trkpt>
      <trkpt lat="43.60859" lon="6.32109">
        <ele>725.34</ele>
        <time>2016-10-21T13:23:26Z</time>
      </trkpt>
      <trkpt lat="43.6086" lon="6.32108">
        <ele>725.17</ele>
        <time>2016-10-21T13:23:50Z</time>
      </trkpt>
      <trkpt lat="43.6086" lon="6.32103">
        <ele>725.1</ele>
        <time>2016-10-21T13:24:18Z</time>
      </trkpt>
      <trkpt lat="43.60857" lon="6.32106">
        <ele>725.13</ele>
        <time>2016-10-21T13:24:56Z</time>
      </trkpt>
      <trkpt lat="43.6086" lon="6.32108">
        <ele>724.84</ele>
        <time>2016-10-21T13:25:37Z</time>
      </trkpt>
      <trkpt lat="43.6086" lon="6.32106">
        <ele>725.01</ele>
        <time>2016-10-21T13:25:57Z</time>
      </trkpt>
      <trkpt lat="43.60857" lon="6.32106">
        <ele>724.74</ele>
        <time>2016-10-21T13:26:28Z</time>
      </trkpt>
      <trkpt lat="43.60851" lon="6.32105">
        <ele>725</ele>
        <time>2016-10-21T13:26:53Z</time>
      </trkpt>
      <trkpt lat="43.6085" lon="6.32105">
        <ele>725</ele>
        <time>2016-10-21T13:26:54Z</time>
      </trkpt>
      <trkpt lat="43.60829" lon="6.32095">
        <ele>725.04</ele>
        <time>2016-10-21T13:27:09Z</time>
      </trkpt>
      <trkpt lat="43.60812" lon="6.32088">
        <ele>725.14</ele>
        <time>2016-10-21T13:27:23Z</time>
      </trkpt>
      <trkpt lat="43.60797" lon="6.32085">
        <ele>725.38</ele>
        <time>2016-10-21T13:27:38Z</time>
      </trkpt>
      <trkpt lat="43.60777" lon="6.32086">
        <ele>726.13</ele>
        <time>2016-10-21T13:27:53Z</time>
      </trkpt>
      <trkpt lat="43.6076" lon="6.32087">
        <ele>725.89</ele>
        <time>2016-10-21T13:28:07Z</time>
      </trkpt>
      <trkpt lat="43.60744" lon="6.32082">
        <ele>725.62</ele>
        <time>2016-10-21T13:28:21Z</time>
      </trkpt>
      <trkpt lat="43.6074" lon="6.32083">
        <ele>725.6</ele>
        <time>2016-10-21T13:28:24Z</time>
      </trkpt>
      <trkpt lat="43.60714" lon="6.32072">
        <ele>724.67</ele>
        <time>2016-10-21T13:28:43Z</time>
      </trkpt>
      <trkpt lat="43.60696" lon="6.32058">
        <ele>723.8</ele>
        <time>2016-10-21T13:28:57Z</time>
      </trkpt>
      <trkpt lat="43.60691" lon="6.32054">
        <ele>723.1</ele>
        <time>2016-10-21T13:29:02Z</time>
      </trkpt>
      <trkpt lat="43.60683" lon="6.32049">
        <ele>722.77</ele>
        <time>2016-10-21T13:29:08Z</time>
      </trkpt>
      <trkpt lat="43.60663" lon="6.32032">
        <ele>722.06</ele>
        <time>2016-10-21T13:29:26Z</time>
      </trkpt>
      <trkpt lat="43.60647" lon="6.32022">
        <ele>721.5</ele>
        <time>2016-10-21T13:29:39Z</time>
      </trkpt>
      <trkpt lat="43.60639" lon="6.32019">
        <ele>721.21</ele>
        <time>2016-10-21T13:29:45Z</time>
      </trkpt>
      <trkpt lat="43.6062" lon="6.32002">
        <ele>720.06</ele>
        <time>2016-10-21T13:30:02Z</time>
      </trkpt>
      <trkpt lat="43.60606" lon="6.31988">
        <ele>718.4</ele>
        <time>2016-10-21T13:30:18Z</time>
      </trkpt>
      <trkpt lat="43.60598" lon="6.31981">
        <ele>717.59</ele>
        <time>2016-10-21T13:30:25Z</time>
      </trkpt>
      <trkpt lat="43.60588" lon="6.3196">
        <ele>715.52</ele>
        <time>2016-10-21T13:30:38Z</time>
      </trkpt>
      <trkpt lat="43.60576" lon="6.31938">
        <ele>713.79</ele>
        <time>2016-10-21T13:30:54Z</time>
      </trkpt>
      <trkpt lat="43.60563" lon="6.31935">
        <ele>713.22</ele>
        <time>2016-10-21T13:31:14Z</time>
      </trkpt>
      <trkpt lat="43.60552" lon="6.31945">
        <ele>711.86</ele>
        <time>2016-10-21T13:31:27Z</time>
      </trkpt>
      <trkpt lat="43.60542" lon="6.31947">
        <ele>710.65</ele>
        <time>2016-10-21T13:31:44Z</time>
      </trkpt>
      <trkpt lat="43.60524" lon="6.3194">
        <ele>710.2</ele>
        <time>2016-10-21T13:32:04Z</time>
      </trkpt>
      <trkpt lat="43.60504" lon="6.31934">
        <ele>710.67</ele>
        <time>2016-10-21T13:32:23Z</time>
      </trkpt>
      <trkpt lat="43.60483" lon="6.31923">
        <ele>708.34</ele>
        <time>2016-10-21T13:32:43Z</time>
      </trkpt>
      <trkpt lat="43.60483" lon="6.31923">
        <ele>708.08</ele>
        <time>2016-10-21T13:32:44Z</time>
      </trkpt>
      <trkpt lat="43.60473" lon="6.31915">
        <ele>707.59</ele>
        <time>2016-10-21T13:33:11Z</time>
      </trkpt>
      <trkpt lat="43.60474" lon="6.31909">
        <ele>707.75</ele>
        <time>2016-10-21T13:33:33Z</time>
      </trkpt>
      <trkpt lat="43.6048" lon="6.31902">
        <ele>708.58</ele>
        <time>2016-10-21T13:33:56Z</time>
      </trkpt>
      <trkpt lat="43.60484" lon="6.31891">
        <ele>708.42</ele>
        <time>2016-10-21T13:34:20Z</time>
      </trkpt>
      <trkpt lat="43.60482" lon="6.31893">
        <ele>708.11</ele>
        <time>2016-10-21T13:34:50Z</time>
      </trkpt>
      <trkpt lat="43.60488" lon="6.31887">
        <ele>708.44</ele>
        <time>2016-10-21T13:35:13Z</time>
      </trkpt>
      <trkpt lat="43.60486" lon="6.31896">
        <ele>708.53</ele>
        <time>2016-10-21T13:35:20Z</time>
      </trkpt>
      <trkpt lat="43.60483" lon="6.31912">
        <ele>708.68</ele>
        <time>2016-10-21T13:35:35Z</time>
      </trkpt>
      <trkpt lat="43.60469" lon="6.31915">
        <ele>707.85</ele>
        <time>2016-10-21T13:35:52Z</time>
      </trkpt>
      <trkpt lat="43.6046" lon="6.3191">
        <ele>707.16</ele>
        <time>2016-10-21T13:36:00Z</time>
      </trkpt>
      <trkpt lat="43.60449" lon="6.31915">
        <ele>706.3</ele>
        <time>2016-10-21T13:36:14Z</time>
      </trkpt>
      <trkpt lat="43.60443" lon="6.31919">
        <ele>705.79</ele>
        <time>2016-10-21T13:36:40Z</time>
      </trkpt>
      <trkpt lat="43.60438" lon="6.31925">
        <ele>705.97</ele>
        <time>2016-10-21T13:36:48Z</time>
      </trkpt>
      <trkpt lat="43.60431" lon="6.31936">
        <ele>705.54</ele>
        <time>2016-10-21T13:37:09Z</time>
      </trkpt>
      <trkpt lat="43.60412" lon="6.31959">
        <ele>704.69</ele>
        <time>2016-10-21T13:37:27Z</time>
      </trkpt>
      <trkpt lat="43.60411" lon="6.31964">
        <ele>704.66</ele>
        <time>2016-10-21T13:37:43Z</time>
      </trkpt>
      <trkpt lat="43.60406" lon="6.31965">
        <ele>704.64</ele>
        <time>2016-10-21T13:38:04Z</time>
      </trkpt>
      <trkpt lat="43.60394" lon="6.31978">
        <ele>704.28</ele>
        <time>2016-10-21T13:38:18Z</time>
      </trkpt>
      <trkpt lat="43.60386" lon="6.31974">
        <ele>704.39</ele>
        <time>2016-10-21T13:38:25Z</time>
      </trkpt>
      <trkpt lat="43.60385" lon="6.31968">
        <ele>704.22</ele>
        <time>2016-10-21T13:38:44Z</time>
      </trkpt>
      <trkpt lat="43.60376" lon="6.31967">
        <ele>704.25</ele>
        <time>2016-10-21T13:39:15Z</time>
      </trkpt>
      <trkpt lat="43.60369" lon="6.31956">
        <ele>704.17</ele>
        <time>2016-10-21T13:39:26Z</time>
      </trkpt>
      <trkpt lat="43.60358" lon="6.3195">
        <ele>703.97</ele>
        <time>2016-10-21T13:39:42Z</time>
      </trkpt>
      <trkpt lat="43.60351" lon="6.31944">
        <ele>703.89</ele>
        <time>2016-10-21T13:39:56Z</time>
      </trkpt>
      <trkpt lat="43.60338" lon="6.31935">
        <ele>703.96</ele>
        <time>2016-10-21T13:40:11Z</time>
      </trkpt>
      <trkpt lat="43.60333" lon="6.31933">
        <ele>704.35</ele>
        <time>2016-10-21T13:40:27Z</time>
      </trkpt>
      <trkpt lat="43.60328" lon="6.3193">
        <ele>704.26</ele>
        <time>2016-10-21T13:40:31Z</time>
      </trkpt>
      <trkpt lat="43.60313" lon="6.31917">
        <ele>704.24</ele>
        <time>2016-10-21T13:40:45Z</time>
      </trkpt>
      <trkpt lat="43.6031" lon="6.31913">
        <ele>704.49</ele>
        <time>2016-10-21T13:40:49Z</time>
      </trkpt>
      <trkpt lat="43.60292" lon="6.31901">
        <ele>705.53</ele>
        <time>2016-10-21T13:41:04Z</time>
      </trkpt>
      <trkpt lat="43.60276" lon="6.31887">
        <ele>705.96</ele>
        <time>2016-10-21T13:41:19Z</time>
      </trkpt>
      <trkpt lat="43.60261" lon="6.31877">
        <ele>705.7</ele>
        <time>2016-10-21T13:41:33Z</time>
      </trkpt>
      <trkpt lat="43.60247" lon="6.31866">
        <ele>705.66</ele>
        <time>2016-10-21T13:41:50Z</time>
      </trkpt>
      <trkpt lat="43.60239" lon="6.3186">
        <ele>705.62</ele>
        <time>2016-10-21T13:42:09Z</time>
      </trkpt>
      <trkpt lat="43.60232" lon="6.31856">
        <ele>705.66</ele>
        <time>2016-10-21T13:42:14Z</time>
      </trkpt>
      <trkpt lat="43.60213" lon="6.31851">
        <ele>705.68</ele>
        <time>2016-10-21T13:42:31Z</time>
      </trkpt>
      <trkpt lat="43.60202" lon="6.31851">
        <ele>706.22</ele>
        <time>2016-10-21T13:42:40Z</time>
      </trkpt>
      <trkpt lat="43.60198" lon="6.3185">
        <ele>706.52</ele>
        <time>2016-10-21T13:42:44Z</time>
      </trkpt>
      <trkpt lat="43.60182" lon="6.31841">
        <ele>707.52</ele>
        <time>2016-10-21T13:42:59Z</time>
      </trkpt>
      <trkpt lat="43.60181" lon="6.3184">
        <ele>707.78</ele>
        <time>2016-10-21T13:43:01Z</time>
      </trkpt>
      <trkpt lat="43.60177" lon="6.31836">
        <ele>708.18</ele>
        <time>2016-10-21T13:43:05Z</time>
      </trkpt>
      <trkpt lat="43.60156" lon="6.31827">
        <ele>708.73</ele>
        <time>2016-10-21T13:43:22Z</time>
      </trkpt>
      <trkpt lat="43.60154" lon="6.31828">
        <ele>708.78</ele>
        <time>2016-10-21T13:43:23Z</time>
      </trkpt>
      <trkpt lat="43.6014" lon="6.31839">
        <ele>709.48</ele>
        <time>2016-10-21T13:43:37Z</time>
      </trkpt>
      <trkpt lat="43.60125" lon="6.31858">
        <ele>711.14</ele>
        <time>2016-10-21T13:43:56Z</time>
      </trkpt>
      <trkpt lat="43.60111" lon="6.31871">
        <ele>712.64</ele>
        <time>2016-10-21T13:44:14Z</time>
      </trkpt>
      <trkpt lat="43.60094" lon="6.31888">
        <ele>714.31</ele>
        <time>2016-10-21T13:44:34Z</time>
      </trkpt>
      <trkpt lat="43.60071" lon="6.31883">
        <ele>716.4</ele>
        <time>2016-10-21T13:44:54Z</time>
      </trkpt>
      <trkpt lat="43.60053" lon="6.31879">
        <ele>718.71</ele>
        <time>2016-10-21T13:45:12Z</time>
      </trkpt>
      <trkpt lat="43.60045" lon="6.31878">
        <ele>719.68</ele>
        <time>2016-10-21T13:45:19Z</time>
      </trkpt>
      <trkpt lat="43.60037" lon="6.31872">
        <ele>721.37</ele>
        <time>2016-10-21T13:45:28Z</time>
      </trkpt>
      <trkpt lat="43.60028" lon="6.3186">
        <ele>723.35</ele>
        <time>2016-10-21T13:45:41Z</time>
      </trkpt>
      <trkpt lat="43.60015" lon="6.31861">
        <ele>726.08</ele>
        <time>2016-10-21T13:45:56Z</time>
      </trkpt>
      <trkpt lat="43.60004" lon="6.31865">
        <ele>728.57</ele>
        <time>2016-10-21T13:46:12Z</time>
      </trkpt>
      <trkpt lat="43.59987" lon="6.31876">
        <ele>731.6</ele>
        <time>2016-10-21T13:46:31Z</time>
      </trkpt>
      <trkpt lat="43.59972" lon="6.31864">
        <ele>733.34</ele>
        <time>2016-10-21T13:46:51Z</time>
      </trkpt>
      <trkpt lat="43.59955" lon="6.31842">
        <ele>735.57</ele>
        <time>2016-10-21T13:47:12Z</time>
      </trkpt>
      <trkpt lat="43.59932" lon="6.31843">
        <ele>738.08</ele>
        <time>2016-10-21T13:47:31Z</time>
      </trkpt>
      <trkpt lat="43.59925" lon="6.31847">
        <ele>738.58</ele>
        <time>2016-10-21T13:47:37Z</time>
      </trkpt>
      <trkpt lat="43.5992" lon="6.31843">
        <ele>738.92</ele>
        <time>2016-10-21T13:47:42Z</time>
      </trkpt>
      <trkpt lat="43.5991" lon="6.31832">
        <ele>741.08</ele>
        <time>2016-10-21T13:48:01Z</time>
      </trkpt>
      <trkpt lat="43.59908" lon="6.31816">
        <ele>740.45</ele>
        <time>2016-10-21T13:48:18Z</time>
      </trkpt>
      <trkpt lat="43.59906" lon="6.31805">
        <ele>740.41</ele>
        <time>2016-10-21T13:48:26Z</time>
      </trkpt>
      <trkpt lat="43.59893" lon="6.31787">
        <ele>740.2</ele>
        <time>2016-10-21T13:48:44Z</time>
      </trkpt>
      <trkpt lat="43.59891" lon="6.31786">
        <ele>740.36</ele>
        <time>2016-10-21T13:48:46Z</time>
      </trkpt>
      <trkpt lat="43.59875" lon="6.31775">
        <ele>740.89</ele>
        <time>2016-10-21T13:49:02Z</time>
      </trkpt>
      <trkpt lat="43.59856" lon="6.31758">
        <ele>742.68</ele>
        <time>2016-10-21T13:49:21Z</time>
      </trkpt>
      <trkpt lat="43.59845" lon="6.31761">
        <ele>743.6</ele>
        <time>2016-10-21T13:49:39Z</time>
      </trkpt>
      <trkpt lat="43.59837" lon="6.31745">
        <ele>743.95</ele>
        <time>2016-10-21T13:49:57Z</time>
      </trkpt>
      <trkpt lat="43.59833" lon="6.31728">
        <ele>744.14</ele>
        <time>2016-10-21T13:50:14Z</time>
      </trkpt>
      <trkpt lat="43.59828" lon="6.31709">
        <ele>744.16</ele>
        <time>2016-10-21T13:50:25Z</time>
      </trkpt>
      <trkpt lat="43.59817" lon="6.31686">
        <ele>745</ele>
        <time>2016-10-21T13:50:40Z</time>
      </trkpt>
      <trkpt lat="43.59812" lon="6.31676">
        <ele>745.44</ele>
        <time>2016-10-21T13:50:48Z</time>
      </trkpt>
      <trkpt lat="43.5981" lon="6.3167">
        <ele>745.95</ele>
        <time>2016-10-21T13:50:53Z</time>
      </trkpt>
      <trkpt lat="43.59796" lon="6.31652">
        <ele>746.53</ele>
        <time>2016-10-21T13:51:09Z</time>
      </trkpt>
      <trkpt lat="43.59794" lon="6.31646">
        <ele>746.35</ele>
        <time>2016-10-21T13:51:35Z</time>
      </trkpt>
      <trkpt lat="43.59795" lon="6.31646">
        <ele>746.39</ele>
        <time>2016-10-21T13:51:46Z</time>
      </trkpt>
      <trkpt lat="43.59791" lon="6.31632">
        <ele>746.46</ele>
        <time>2016-10-21T13:52:18Z</time>
      </trkpt>
      <trkpt lat="43.5979" lon="6.31629">
        <ele>746.36</ele>
        <time>2016-10-21T13:52:48Z</time>
      </trkpt>
      <trkpt lat="43.59788" lon="6.3163">
        <ele>746.73</ele>
        <time>2016-10-21T13:53:16Z</time>
      </trkpt>
      <trkpt lat="43.59779" lon="6.31621">
        <ele>746.45</ele>
        <time>2016-10-21T13:53:46Z</time>
      </trkpt>
      <trkpt lat="43.59777" lon="6.31618">
        <ele>746.15</ele>
        <time>2016-10-21T13:54:08Z</time>
      </trkpt>
      <trkpt lat="43.5977" lon="6.31609">
        <ele>746.26</ele>
        <time>2016-10-21T13:54:39Z</time>
      </trkpt>
      <trkpt lat="43.59763" lon="6.3159">
        <ele>744.99</ele>
        <time>2016-10-21T13:54:57Z</time>
      </trkpt>
      <trkpt lat="43.5976" lon="6.31567">
        <ele>743.39</ele>
        <time>2016-10-21T13:55:14Z</time>
      </trkpt>
      <trkpt lat="43.59759" lon="6.31561">
        <ele>742.83</ele>
        <time>2016-10-21T13:55:18Z</time>
      </trkpt>
      <trkpt lat="43.59751" lon="6.31534">
        <ele>740.1</ele>
        <time>2016-10-21T13:55:36Z</time>
      </trkpt>
      <trkpt lat="43.5974" lon="6.31512">
        <ele>738.25</ele>
        <time>2016-10-21T13:55:58Z</time>
      </trkpt>
      <trkpt lat="43.59733" lon="6.31497">
        <ele>736.28</ele>
        <time>2016-10-21T13:56:10Z</time>
      </trkpt>
      <trkpt lat="43.59726" lon="6.31478">
        <ele>733.5</ele>
        <time>2016-10-21T13:56:26Z</time>
      </trkpt>
      <trkpt lat="43.59727" lon="6.31458">
        <ele>730.39</ele>
        <time>2016-10-21T13:56:42Z</time>
      </trkpt>
      <trkpt lat="43.59724" lon="6.31437">
        <ele>727.3</ele>
        <time>2016-10-21T13:56:58Z</time>
      </trkpt>
      <trkpt lat="43.59721" lon="6.31414">
        <ele>724.12</ele>
        <time>2016-10-21T13:57:15Z</time>
      </trkpt>
      <trkpt lat="43.5972" lon="6.31385">
        <ele>721.1</ele>
        <time>2016-10-21T13:57:35Z</time>
      </trkpt>
      <trkpt lat="43.59719" lon="6.31374">
        <ele>719.9</ele>
        <time>2016-10-21T13:57:57Z</time>
      </trkpt>
      <trkpt lat="43.59716" lon="6.3137">
        <ele>719.95</ele>
        <time>2016-10-21T13:58:26Z</time>
      </trkpt>
      <trkpt lat="43.59714" lon="6.31368">
        <ele>719.89</ele>
        <time>2016-10-21T13:58:55Z</time>
      </trkpt>
      <trkpt lat="43.59716" lon="6.31372">
        <ele>720.01</ele>
        <time>2016-10-21T13:59:25Z</time>
      </trkpt>
      <trkpt lat="43.59714" lon="6.31357">
        <ele>719.24</ele>
        <time>2016-10-21T13:59:52Z</time>
      </trkpt>
      <trkpt lat="43.59711" lon="6.31343">
        <ele>716.21</ele>
        <time>2016-10-21T14:00:08Z</time>
      </trkpt>
      <trkpt lat="43.59704" lon="6.31325">
        <ele>713.21</ele>
        <time>2016-10-21T14:00:29Z</time>
      </trkpt>
      <trkpt lat="43.59691" lon="6.31304">
        <ele>710.08</ele>
        <time>2016-10-21T14:00:54Z</time>
      </trkpt>
      <trkpt lat="43.59681" lon="6.31293">
        <ele>708.29</ele>
        <time>2016-10-21T14:01:08Z</time>
      </trkpt>
      <trkpt lat="43.59668" lon="6.31281">
        <ele>705.57</ele>
        <time>2016-10-21T14:01:24Z</time>
      </trkpt>
      <trkpt lat="43.59657" lon="6.31264">
        <ele>702.48</ele>
        <time>2016-10-21T14:01:42Z</time>
      </trkpt>
      <trkpt lat="43.5964" lon="6.31247">
        <ele>699.89</ele>
        <time>2016-10-21T14:02:01Z</time>
      </trkpt>
      <trkpt lat="43.59621" lon="6.31235">
        <ele>696.79</ele>
        <time>2016-10-21T14:02:22Z</time>
      </trkpt>
      <trkpt lat="43.59609" lon="6.31227">
        <ele>694.75</ele>
        <time>2016-10-21T14:02:36Z</time>
      </trkpt>
      <trkpt lat="43.59593" lon="6.31214">
        <ele>693.09</ele>
        <time>2016-10-21T14:02:52Z</time>
      </trkpt>
      <trkpt lat="43.59578" lon="6.31202">
        <ele>690.05</ele>
        <time>2016-10-21T14:03:10Z</time>
      </trkpt>
      <trkpt lat="43.59563" lon="6.31186">
        <ele>687.39</ele>
        <time>2016-10-21T14:03:26Z</time>
      </trkpt>
      <trkpt lat="43.59548" lon="6.31176">
        <ele>685.46</ele>
        <time>2016-10-21T14:03:43Z</time>
      </trkpt>
      <trkpt lat="43.59537" lon="6.31171">
        <ele>683.33</ele>
        <time>2016-10-21T14:03:58Z</time>
      </trkpt>
      <trkpt lat="43.59523" lon="6.31176">
        <ele>681.82</ele>
        <time>2016-10-21T14:04:26Z</time>
      </trkpt>
      <trkpt lat="43.59518" lon="6.31181">
        <ele>681</ele>
        <time>2016-10-21T14:04:46Z</time>
      </trkpt>
      <trkpt lat="43.59511" lon="6.31178">
        <ele>680.45</ele>
        <time>2016-10-21T14:05:04Z</time>
      </trkpt>
      <trkpt lat="43.59496" lon="6.31176">
        <ele>678.74</ele>
        <time>2016-10-21T14:05:20Z</time>
      </trkpt>
      <trkpt lat="43.59493" lon="6.31176">
        <ele>678.36</ele>
        <time>2016-10-21T14:05:44Z</time>
      </trkpt>
      <trkpt lat="43.59478" lon="6.31177">
        <ele>677.71</ele>
        <time>2016-10-21T14:05:58Z</time>
      </trkpt>
      <trkpt lat="43.59459" lon="6.31163">
        <ele>676.2</ele>
        <time>2016-10-21T14:06:16Z</time>
      </trkpt>
      <trkpt lat="43.59444" lon="6.31161">
        <ele>676.41</ele>
        <time>2016-10-21T14:06:29Z</time>
      </trkpt>
      <trkpt lat="43.59433" lon="6.31171">
        <ele>677.15</ele>
        <time>2016-10-21T14:06:41Z</time>
      </trkpt>
      <trkpt lat="43.5942" lon="6.31177">
        <ele>678.76</ele>
        <time>2016-10-21T14:06:57Z</time>
      </trkpt>
      <trkpt lat="43.5941" lon="6.31188">
        <ele>679.89</ele>
        <time>2016-10-21T14:07:12Z</time>
      </trkpt>
      <trkpt lat="43.59407" lon="6.31192">
        <ele>680.01</ele>
        <time>2016-10-21T14:07:45Z</time>
      </trkpt>
      <trkpt lat="43.59409" lon="6.31189">
        <ele>679.97</ele>
        <time>2016-10-21T14:08:18Z</time>
      </trkpt>
      <trkpt lat="43.5942" lon="6.31182">
        <ele>678.58</ele>
        <time>2016-10-21T14:08:33Z</time>
      </trkpt>
      <trkpt lat="43.59424" lon="6.3118">
        <ele>678.35</ele>
        <time>2016-10-21T14:08:36Z</time>
      </trkpt>
      <trkpt lat="43.59435" lon="6.31164">
        <ele>677.38</ele>
        <time>2016-10-21T14:08:52Z</time>
      </trkpt>
      <trkpt lat="43.59442" lon="6.31158">
        <ele>676.89</ele>
        <time>2016-10-21T14:09:07Z</time>
      </trkpt>
      <trkpt lat="43.59444" lon="6.31146">
        <ele>676.4</ele>
        <time>2016-10-21T14:09:28Z</time>
      </trkpt>
      <trkpt lat="43.59447" lon="6.31139">
        <ele>676.24</ele>
        <time>2016-10-21T14:09:55Z</time>
      </trkpt>
      <trkpt lat="43.59443" lon="6.31142">
        <ele>676.47</ele>
        <time>2016-10-21T14:10:20Z</time>
      </trkpt>
      <trkpt lat="43.59445" lon="6.3114">
        <ele>676.5</ele>
        <time>2016-10-21T14:10:46Z</time>
      </trkpt>
      <trkpt lat="43.59444" lon="6.31138">
        <ele>676.34</ele>
        <time>2016-10-21T14:11:17Z</time>
      </trkpt>
      <trkpt lat="43.59442" lon="6.31134">
        <ele>676.24</ele>
        <time>2016-10-21T14:11:48Z</time>
      </trkpt>
      <trkpt lat="43.59447" lon="6.31123">
        <ele>675.99</ele>
        <time>2016-10-21T14:12:13Z</time>
      </trkpt>
      <trkpt lat="43.59454" lon="6.31101">
        <ele>675.23</ele>
        <time>2016-10-21T14:12:35Z</time>
      </trkpt>
      <trkpt lat="43.59443" lon="6.31082">
        <ele>675.91</ele>
        <time>2016-10-21T14:12:54Z</time>
      </trkpt>
      <trkpt lat="43.59429" lon="6.31068">
        <ele>676.12</ele>
        <time>2016-10-21T14:13:19Z</time>
      </trkpt>
      <trkpt lat="43.59416" lon="6.31057">
        <ele>675.18</ele>
        <time>2016-10-21T14:13:40Z</time>
      </trkpt>
      <trkpt lat="43.5941" lon="6.3105">
        <ele>674.88</ele>
        <time>2016-10-21T14:13:59Z</time>
      </trkpt>
      <trkpt lat="43.5941" lon="6.31052">
        <ele>674.81</ele>
        <time>2016-10-21T14:14:31Z</time>
      </trkpt>
      <trkpt lat="43.59412" lon="6.31058">
        <ele>675.4</ele>
        <time>2016-10-21T14:14:45Z</time>
      </trkpt>
      <trkpt lat="43.59424" lon="6.31071">
        <ele>676.37</ele>
        <time>2016-10-21T14:15:04Z</time>
      </trkpt>
      <trkpt lat="43.59441" lon="6.31088">
        <ele>675.78</ele>
        <time>2016-10-21T14:15:26Z</time>
      </trkpt>
      <trkpt lat="43.5945" lon="6.31107">
        <ele>675.78</ele>
        <time>2016-10-21T14:15:45Z</time>
      </trkpt>
      <trkpt lat="43.59446" lon="6.31145">
        <ele>676.52</ele>
        <time>2016-10-21T14:16:05Z</time>
      </trkpt>
      <trkpt lat="43.59435" lon="6.3117">
        <ele>677.11</ele>
        <time>2016-10-21T14:16:24Z</time>
      </trkpt>
      <trkpt lat="43.59416" lon="6.3118">
        <ele>678.98</ele>
        <time>2016-10-21T14:16:42Z</time>
      </trkpt>
      <trkpt lat="43.59409" lon="6.31189">
        <ele>679.81</ele>
        <time>2016-10-21T14:16:50Z</time>
      </trkpt>
      <trkpt lat="43.59389" lon="6.31195">
        <ele>681.36</ele>
        <time>2016-10-21T14:17:07Z</time>
      </trkpt>
      <trkpt lat="43.59374" lon="6.31207">
        <ele>684.02</ele>
        <time>2016-10-21T14:17:26Z</time>
      </trkpt>
      <trkpt lat="43.59353" lon="6.31206">
        <ele>685.57</ele>
        <time>2016-10-21T14:17:45Z</time>
      </trkpt>
      <trkpt lat="43.5935" lon="6.31207">
        <ele>685.63</ele>
        <time>2016-10-21T14:17:48Z</time>
      </trkpt>
      <trkpt lat="43.59335" lon="6.31219">
        <ele>684.31</ele>
        <time>2016-10-21T14:18:05Z</time>
      </trkpt>
      <trkpt lat="43.59321" lon="6.31227">
        <ele>682.7</ele>
        <time>2016-10-21T14:18:22Z</time>
      </trkpt>
      <trkpt lat="43.59322" lon="6.31212">
        <ele>679.61</ele>
        <time>2016-10-21T14:18:41Z</time>
      </trkpt>
      <trkpt lat="43.59322" lon="6.31206">
        <ele>678.41</ele>
        <time>2016-10-21T14:18:47Z</time>
      </trkpt>
      <trkpt lat="43.59323" lon="6.31179">
        <ele>675.1</ele>
        <time>2016-10-21T14:19:09Z</time>
      </trkpt>
      <trkpt lat="43.59311" lon="6.3116">
        <ele>672.08</ele>
        <time>2016-10-21T14:19:25Z</time>
      </trkpt>
      <trkpt lat="43.59304" lon="6.31159">
        <ele>671.47</ele>
        <time>2016-10-21T14:19:57Z</time>
      </trkpt>
      <trkpt lat="43.59298" lon="6.31153">
        <ele>671.14</ele>
        <time>2016-10-21T14:20:38Z</time>
      </trkpt>
      <trkpt lat="43.59296" lon="6.31152">
        <ele>671.38</ele>
        <time>2016-10-21T14:21:04Z</time>
      </trkpt>
      <trkpt lat="43.59284" lon="6.31142">
        <ele>670.64</ele>
        <time>2016-10-21T14:21:18Z</time>
      </trkpt>
      <trkpt lat="43.59269" lon="6.31134">
        <ele>670</ele>
        <time>2016-10-21T14:21:43Z</time>
      </trkpt>
      <trkpt lat="43.59265" lon="6.31131">
        <ele>669.57</ele>
        <time>2016-10-21T14:22:14Z</time>
      </trkpt>
      <trkpt lat="43.59264" lon="6.31131">
        <ele>669.28</ele>
        <time>2016-10-21T14:22:45Z</time>
      </trkpt>
      <trkpt lat="43.59263" lon="6.31133">
        <ele>669.36</ele>
        <time>2016-10-21T14:23:15Z</time>
      </trkpt>
      <trkpt lat="43.59263" lon="6.31135">
        <ele>669.39</ele>
        <time>2016-10-21T14:23:43Z</time>
      </trkpt>
      <trkpt lat="43.59265" lon="6.31133">
        <ele>669.21</ele>
        <time>2016-10-21T14:24:14Z</time>
      </trkpt>
      <trkpt lat="43.59261" lon="6.31133">
        <ele>669.18</ele>
        <time>2016-10-21T14:24:44Z</time>
      </trkpt>
      <trkpt lat="43.59253" lon="6.31131">
        <ele>669.4</ele>
        <time>2016-10-21T14:24:53Z</time>
      </trkpt>
      <trkpt lat="43.59243" lon="6.31132">
        <ele>668.94</ele>
        <time>2016-10-21T14:25:01Z</time>
      </trkpt>
      <trkpt lat="43.59229" lon="6.31112">
        <ele>668.53</ele>
        <time>2016-10-21T14:25:20Z</time>
      </trkpt>
      <trkpt lat="43.59219" lon="6.31091">
        <ele>668.88</ele>
        <time>2016-10-21T14:25:38Z</time>
      </trkpt>
      <trkpt lat="43.59211" lon="6.31069">
        <ele>669.27</ele>
        <time>2016-10-21T14:25:54Z</time>
      </trkpt>
      <trkpt lat="43.59205" lon="6.31045">
        <ele>669.35</ele>
        <time>2016-10-21T14:26:12Z</time>
      </trkpt>
      <trkpt lat="43.59204" lon="6.31019">
        <ele>668.84</ele>
        <time>2016-10-21T14:26:30Z</time>
      </trkpt>
      <trkpt lat="43.59197" lon="6.30991">
        <ele>667.84</ele>
        <time>2016-10-21T14:26:49Z</time>
      </trkpt>
      <trkpt lat="43.5919" lon="6.30967">
        <ele>666.65</ele>
        <time>2016-10-21T14:27:06Z</time>
      </trkpt>
      <trkpt lat="43.59183" lon="6.30936">
        <ele>664.49</ele>
        <time>2016-10-21T14:27:25Z</time>
      </trkpt>
      <trkpt lat="43.59182" lon="6.30909">
        <ele>662.74</ele>
        <time>2016-10-21T14:27:43Z</time>
      </trkpt>
      <trkpt lat="43.59184" lon="6.30885">
        <ele>660.69</ele>
        <time>2016-10-21T14:28:00Z</time>
      </trkpt>
      <trkpt lat="43.59182" lon="6.3088">
        <ele>659.41</ele>
        <time>2016-10-21T14:28:20Z</time>
      </trkpt>
      <trkpt lat="43.59182" lon="6.30872">
        <ele>659.14</ele>
        <time>2016-10-21T14:29:02Z</time>
      </trkpt>
      <trkpt lat="43.59181" lon="6.30865">
        <ele>658.77</ele>
        <time>2016-10-21T14:29:08Z</time>
      </trkpt>
      <trkpt lat="43.59172" lon="6.30841">
        <ele>656.46</ele>
        <time>2016-10-21T14:29:25Z</time>
      </trkpt>
      <trkpt lat="43.59162" lon="6.3082">
        <ele>654.66</ele>
        <time>2016-10-21T14:29:40Z</time>
      </trkpt>
      <trkpt lat="43.59148" lon="6.30803">
        <ele>653.19</ele>
        <time>2016-10-21T14:29:57Z</time>
      </trkpt>
      <trkpt lat="43.59134" lon="6.30779">
        <ele>651.74</ele>
        <time>2016-10-21T14:30:16Z</time>
      </trkpt>
      <trkpt lat="43.59122" lon="6.30758">
        <ele>651.01</ele>
        <time>2016-10-21T14:30:32Z</time>
      </trkpt>
      <trkpt lat="43.59119" lon="6.30749">
        <ele>650.68</ele>
        <time>2016-10-21T14:30:38Z</time>
      </trkpt>
      <trkpt lat="43.59114" lon="6.30731">
        <ele>649.26</ele>
        <time>2016-10-21T14:30:51Z</time>
      </trkpt>
      <trkpt lat="43.59108" lon="6.30705">
        <ele>647.3</ele>
        <time>2016-10-21T14:31:08Z</time>
      </trkpt>
      <trkpt lat="43.59092" lon="6.30681">
        <ele>645.53</ele>
        <time>2016-10-21T14:31:26Z</time>
      </trkpt>
      <trkpt lat="43.59085" lon="6.30672">
        <ele>644.17</ele>
        <time>2016-10-21T14:31:42Z</time>
      </trkpt>
      <trkpt lat="43.59075" lon="6.3066">
        <ele>643.31</ele>
        <time>2016-10-21T14:32:02Z</time>
      </trkpt>
      <trkpt lat="43.59063" lon="6.30643">
        <ele>642.25</ele>
        <time>2016-10-21T14:32:17Z</time>
      </trkpt>
      <trkpt lat="43.59062" lon="6.30642">
        <ele>642.08</ele>
        <time>2016-10-21T14:32:19Z</time>
      </trkpt>
      <trkpt lat="43.59048" lon="6.30624">
        <ele>640.69</ele>
        <time>2016-10-21T14:32:36Z</time>
      </trkpt>
      <trkpt lat="43.59039" lon="6.30606">
        <ele>639.41</ele>
        <time>2016-10-21T14:32:51Z</time>
      </trkpt>
      <trkpt lat="43.59026" lon="6.30585">
        <ele>636.83</ele>
        <time>2016-10-21T14:33:08Z</time>
      </trkpt>
      <trkpt lat="43.59015" lon="6.30562">
        <ele>634.59</ele>
        <time>2016-10-21T14:33:23Z</time>
      </trkpt>
      <trkpt lat="43.58998" lon="6.30541">
        <ele>632.55</ele>
        <time>2016-10-21T14:33:41Z</time>
      </trkpt>
      <trkpt lat="43.58981" lon="6.30529">
        <ele>631.14</ele>
        <time>2016-10-21T14:33:57Z</time>
      </trkpt>
      <trkpt lat="43.58971" lon="6.30522">
        <ele>630.57</ele>
        <time>2016-10-21T14:34:16Z</time>
      </trkpt>
      <trkpt lat="43.58952" lon="6.30515">
        <ele>630.85</ele>
        <time>2016-10-21T14:34:32Z</time>
      </trkpt>
      <trkpt lat="43.58933" lon="6.30506">
        <ele>631.42</ele>
        <time>2016-10-21T14:34:50Z</time>
      </trkpt>
      <trkpt lat="43.58922" lon="6.30487">
        <ele>632.82</ele>
        <time>2016-10-21T14:35:08Z</time>
      </trkpt>
      <trkpt lat="43.58919" lon="6.3048">
        <ele>633.03</ele>
        <time>2016-10-21T14:35:14Z</time>
      </trkpt>
      <trkpt lat="43.58915" lon="6.30469">
        <ele>633.33</ele>
        <time>2016-10-21T14:35:22Z</time>
      </trkpt>
      <trkpt lat="43.58909" lon="6.30447">
        <ele>634.33</ele>
        <time>2016-10-21T14:35:38Z</time>
      </trkpt>
      <trkpt lat="43.58906" lon="6.3042">
        <ele>634.81</ele>
        <time>2016-10-21T14:35:59Z</time>
      </trkpt>
      <trkpt lat="43.58894" lon="6.30389">
        <ele>636.14</ele>
        <time>2016-10-21T14:36:22Z</time>
      </trkpt>
      <trkpt lat="43.58889" lon="6.30378">
        <ele>637.38</ele>
        <time>2016-10-21T14:36:31Z</time>
      </trkpt>
      <trkpt lat="43.58888" lon="6.30352">
        <ele>637.9</ele>
        <time>2016-10-21T14:36:53Z</time>
      </trkpt>
      <trkpt lat="43.58885" lon="6.30342">
        <ele>637.93</ele>
        <time>2016-10-21T14:37:04Z</time>
      </trkpt>
      <trkpt lat="43.58897" lon="6.30321">
        <ele>637.83</ele>
        <time>2016-10-21T14:37:20Z</time>
      </trkpt>
      <trkpt lat="43.58901" lon="6.30299">
        <ele>637.49</ele>
        <time>2016-10-21T14:37:39Z</time>
      </trkpt>
      <trkpt lat="43.5892" lon="6.30277">
        <ele>636.42</ele>
        <time>2016-10-21T14:38:02Z</time>
      </trkpt>
      <trkpt lat="43.58928" lon="6.30262">
        <ele>636.12</ele>
        <time>2016-10-21T14:38:24Z</time>
      </trkpt>
      <trkpt lat="43.58931" lon="6.30258">
        <ele>636.58</ele>
        <time>2016-10-21T14:38:44Z</time>
      </trkpt>
      <trkpt lat="43.5893" lon="6.30261">
        <ele>636.27</ele>
        <time>2016-10-21T14:39:07Z</time>
      </trkpt>
      <trkpt lat="43.58932" lon="6.30261">
        <ele>636.11</ele>
        <time>2016-10-21T14:39:37Z</time>
      </trkpt>
      <trkpt lat="43.58928" lon="6.30261">
        <ele>636.05</ele>
        <time>2016-10-21T14:40:05Z</time>
      </trkpt>
      <trkpt lat="43.58925" lon="6.3026">
        <ele>636.57</ele>
        <time>2016-10-21T14:40:38Z</time>
      </trkpt>
      <trkpt lat="43.58926" lon="6.30258">
        <ele>637.06</ele>
        <time>2016-10-21T14:41:07Z</time>
      </trkpt>
      <trkpt lat="43.58928" lon="6.30262">
        <ele>636.6</ele>
        <time>2016-10-21T14:41:36Z</time>
      </trkpt>
      <trkpt lat="43.5893" lon="6.30262">
        <ele>636.58</ele>
        <time>2016-10-21T14:42:05Z</time>
      </trkpt>
      <trkpt lat="43.58933" lon="6.30261">
        <ele>636.73</ele>
        <time>2016-10-21T14:42:37Z</time>
      </trkpt>
      <trkpt lat="43.58929" lon="6.30259">
        <ele>636.85</ele>
        <time>2016-10-21T14:43:07Z</time>
      </trkpt>
      <trkpt lat="43.58929" lon="6.30263">
        <ele>636.23</ele>
        <time>2016-10-21T14:43:39Z</time>
      </trkpt>
      <trkpt lat="43.58929" lon="6.30259">
        <ele>635.65</ele>
        <time>2016-10-21T14:44:07Z</time>
      </trkpt>
      <trkpt lat="43.58931" lon="6.30261">
        <ele>636.03</ele>
        <time>2016-10-21T14:44:42Z</time>
      </trkpt>
      <trkpt lat="43.5893" lon="6.3026">
        <ele>636.36</ele>
        <time>2016-10-21T14:45:11Z</time>
      </trkpt>
      <trkpt lat="43.58928" lon="6.30257">
        <ele>636.13</ele>
        <time>2016-10-21T14:45:42Z</time>
      </trkpt>
      <trkpt lat="43.58927" lon="6.30258">
        <ele>636.16</ele>
        <time>2016-10-21T14:46:12Z</time>
      </trkpt>
      <trkpt lat="43.58928" lon="6.30259">
        <ele>635.84</ele>
        <time>2016-10-21T14:46:44Z</time>
      </trkpt>
      <trkpt lat="43.58925" lon="6.30257">
        <ele>636.11</ele>
        <time>2016-10-21T14:47:15Z</time>
      </trkpt>
      <trkpt lat="43.58927" lon="6.30262">
        <ele>635.95</ele>
        <time>2016-10-21T14:47:47Z</time>
      </trkpt>
      <trkpt lat="43.58931" lon="6.30267">
        <ele>636.22</ele>
        <time>2016-10-21T14:48:23Z</time>
      </trkpt>
      <trkpt lat="43.58927" lon="6.3026">
        <ele>636.36</ele>
        <time>2016-10-21T14:48:53Z</time>
      </trkpt>
      <trkpt lat="43.58926" lon="6.30257">
        <ele>636.15</ele>
        <time>2016-10-21T14:49:25Z</time>
      </trkpt>
      <trkpt lat="43.58927" lon="6.3026">
        <ele>636.03</ele>
        <time>2016-10-21T14:49:57Z</time>
      </trkpt>
      <trkpt lat="43.58932" lon="6.30268">
        <ele>636.78</ele>
        <time>2016-10-21T14:50:26Z</time>
      </trkpt>
      <trkpt lat="43.58934" lon="6.30272">
        <ele>636.63</ele>
        <time>2016-10-21T14:50:54Z</time>
      </trkpt>
      <trkpt lat="43.58929" lon="6.30257">
        <ele>636.58</ele>
        <time>2016-10-21T14:51:29Z</time>
      </trkpt>
      <trkpt lat="43.58924" lon="6.30255">
        <ele>636.75</ele>
        <time>2016-10-21T14:52:03Z</time>
      </trkpt>
      <trkpt lat="43.58926" lon="6.30255">
        <ele>636.83</ele>
        <time>2016-10-21T14:52:33Z</time>
      </trkpt>
      <trkpt lat="43.58931" lon="6.30259">
        <ele>636.26</ele>
        <time>2016-10-21T14:53:06Z</time>
      </trkpt>
      <trkpt lat="43.58932" lon="6.30261">
        <ele>636.3</ele>
        <time>2016-10-21T14:53:38Z</time>
      </trkpt>
      <trkpt lat="43.58933" lon="6.30262">
        <ele>636.24</ele>
        <time>2016-10-21T14:54:04Z</time>
      </trkpt>
      <trkpt lat="43.5893" lon="6.30258">
        <ele>635.95</ele>
        <time>2016-10-21T14:54:34Z</time>
      </trkpt>
      <trkpt lat="43.58923" lon="6.30256">
        <ele>635.84</ele>
        <time>2016-10-21T14:55:10Z</time>
      </trkpt>
      <trkpt lat="43.58923" lon="6.30255">
        <ele>635.98</ele>
        <time>2016-10-21T14:55:41Z</time>
      </trkpt>
      <trkpt lat="43.58926" lon="6.30252">
        <ele>636.26</ele>
        <time>2016-10-21T14:56:06Z</time>
      </trkpt>
      <trkpt lat="43.58928" lon="6.30256">
        <ele>635.76</ele>
        <time>2016-10-21T14:56:34Z</time>
      </trkpt>
      <trkpt lat="43.58925" lon="6.30258">
        <ele>635.5</ele>
        <time>2016-10-21T14:57:02Z</time>
      </trkpt>
      <trkpt lat="43.58924" lon="6.3026">
        <ele>635.26</ele>
        <time>2016-10-21T14:57:30Z</time>
      </trkpt>
      <trkpt lat="43.58925" lon="6.30259">
        <ele>635.39</ele>
        <time>2016-10-21T14:58:03Z</time>
      </trkpt>
      <trkpt lat="43.58925" lon="6.30258">
        <ele>635.86</ele>
        <time>2016-10-21T14:58:31Z</time>
      </trkpt>
      <trkpt lat="43.58926" lon="6.30257">
        <ele>635.96</ele>
        <time>2016-10-21T14:58:56Z</time>
      </trkpt>
      <trkpt lat="43.58926" lon="6.30258">
        <ele>635.96</ele>
        <time>2016-10-21T14:59:24Z</time>
      </trkpt>
      <trkpt lat="43.58921" lon="6.30259">
        <ele>636.36</ele>
        <time>2016-10-21T14:59:49Z</time>
      </trkpt>
      <trkpt lat="43.58914" lon="6.30264">
        <ele>636.25</ele>
        <time>2016-10-21T15:00:00Z</time>
      </trkpt>
      <trkpt lat="43.58901" lon="6.3028">
        <ele>636.19</ele>
        <time>2016-10-21T15:00:17Z</time>
      </trkpt>
      <trkpt lat="43.58899" lon="6.30282">
        <ele>636.18</ele>
        <time>2016-10-21T15:00:19Z</time>
      </trkpt>
      <trkpt lat="43.58894" lon="6.30305">
        <ele>636.7</ele>
        <time>2016-10-21T15:00:36Z</time>
      </trkpt>
      <trkpt lat="43.58892" lon="6.30308">
        <ele>637.02</ele>
        <time>2016-10-21T15:00:39Z</time>
      </trkpt>
      <trkpt lat="43.58884" lon="6.30316">
        <ele>637.93</ele>
        <time>2016-10-21T15:00:49Z</time>
      </trkpt>
      <trkpt lat="43.58874" lon="6.30335">
        <ele>639.31</ele>
        <time>2016-10-21T15:01:07Z</time>
      </trkpt>
      <trkpt lat="43.58862" lon="6.30353">
        <ele>640.9</ele>
        <time>2016-10-21T15:01:23Z</time>
      </trkpt>
      <trkpt lat="43.58851" lon="6.30367">
        <ele>642.85</ele>
        <time>2016-10-21T15:01:40Z</time>
      </trkpt>
      <trkpt lat="43.58841" lon="6.30367">
        <ele>643.34</ele>
        <time>2016-10-21T15:01:55Z</time>
      </trkpt>
      <trkpt lat="43.58821" lon="6.30365">
        <ele>641.95</ele>
        <time>2016-10-21T15:02:15Z</time>
      </trkpt>
      <trkpt lat="43.58811" lon="6.30371">
        <ele>640.96</ele>
        <time>2016-10-21T15:02:26Z</time>
      </trkpt>
      <trkpt lat="43.58797" lon="6.30387">
        <ele>640.09</ele>
        <time>2016-10-21T15:02:44Z</time>
      </trkpt>
      <trkpt lat="43.58797" lon="6.30388">
        <ele>639.74</ele>
        <time>2016-10-21T15:03:07Z</time>
      </trkpt>
      <trkpt lat="43.58798" lon="6.30388">
        <ele>639.66</ele>
        <time>2016-10-21T15:03:13Z</time>
      </trkpt>
    </trkseg>
  </trk>
</gpx>